[[{"header":{"parameterUnit":"m.s-1","parameterCategory":1,"la1":30.6,"la2":28.766,"lo1":-90.7593,"lo2":-88.6598,"dy":0.0162,"dx":0.0183,"nx":116,"ny":114,"refTime":"2023-04-21T12:00:00:Z","depth":0,"parameterNumber":2,"parameterNumberName":"U-component_of_WINDS"},"data":[0.0,0.0,0.0,0.0,0.0,0.0,0.0,0.0,0.0,0.0,0.0,0.0,0.0,0.0,0.0,0.0,0.0,0.0,0.0,0.0,0.0,0.0,0.0,0.0,0.0,0.0,0.0,0.0,0.0,0.0,0.0,0.0,0.0,0.0,0.0,0.0,0.0,0.0,0.0,0.0,0.0,0.0,0.0,0.0,0.0,0.0,0.0,0.0,0.0,0.0,0.0,0.0,0.0,0.0,0.0,0.0,0.0,0.0,0.0,0.0,0.0,0.0,0.0,0.0,0.0,0.0,0.0,0.0,0.0,0.0,0.0,0.0,0.0,0.0,0.0,0.0,0.0,0.0,0.0,0.0,0.0,0.0,0.0,0.0,0.0,0.0,0.0,0.0,0.0,0.0,0.0,0.0,0.0,0.0,0.0,0.0,0.0,0.0,0.0,0.0,0.0,0.0,0.0,0.0,0.0,0.0,0.0,0.0,0.0,0.0,0.0,0.0,0.0,0.0,0.0,0.0,0.0,0.0,0.0,0.0,0.0,0.0,0.0,0.0,0.0,0.0,0.0,0.0,0.0,0.0,0.0,0.0,0.0,0.0,0.0,0.0,0.0,0.0,0.0,0.0,0.0,0.0,0.0,0.0,0.0,0.0,0.0,0.0,0.0,0.0,0.0,0.0,0.0,0.0,0.0,0.0,0.0,0.0,0.0,0.0,0.0,0.0,0.0,0.0,0.0,0.0,0.0,0.0,0.0,0.0,0.0,0.0,0.0,0.0,0.0,0.0,0.0,0.0,0.0,0.0,0.0,0.0,0.0,0.0,0.0,0.0,0.0,0.0,0.0,0.0,0.0,0.0,0.0,0.0,0.0,0.0,0.0,0.0,0.0,0.0,0.0,0.0,0.0,0.0,0.0,0.0,0.0,0.0,0.0,0.0,0.0,0.0,0.0,0.0,0.0,0.0,0.0,0.0,0.0,0.0,0.0,0.0,0.0,0.0,0.0,0.0,0.0,0.0,0.0,0.0,0.0,0.0,0.0,0.0,0.0,0.0,0.0,0.0,0.0,0.0,0.0,0.0,0.0,0.0,0.0,0.0,0.0,0.0,0.0,0.0,0.0,0.0,0.0,0.0,0.0,0.0,0.0,0.0,0.0,0.0,0.0,0.0,0.0,0.0,0.0,0.0,0.0,0.0,0.0,0.0,0.0,0.0,0.0,0.0,0.0,0.0,0.0,0.0,0.0,0.0,0.0,0.0,0.0,0.0,0.0,0.0,0.0,0.0,0.0,0.0,0.0,0.0,0.0,0.0,0.0,0.0,0.0,0.0,0.0,0.0,0.0,0.0,0.0,0.0,0.0,0.0,0.0,0.0,0.0,0.0,0.0,0.0,0.0,0.0,0.0,0.0,0.0,0.0,0.0,0.0,0.0,0.0,0.0,0.0,0.0,0.0,0.0,0.0,0.0,0.0,0.0,0.0,0.0,0.0,0.0,0.0,0.0,0.0,0.0,0.0,0.0,0.0,0.0,0.0,0.0,0.0,0.0,0.0,0.0,0.0,0.0,0.0,0.0,0.0,0.0,0.0,0.0,0.0,0.0,0.0,0.0,0.0,0.0,0.0,0.0,0.0,0.0,0.0,0.0,0.0,0.0,0.0,0.0,0.0,0.0,0.0,0.0,0.0,0.0,0.0,0.0,0.0,0.0,0.0,0.0,0.0,0.0,0.0,0.0,0.0,0.0,0.0,0.0,0.0,0.0,0.0,0.0,0.0,0.0,0.0,0.0,0.0,0.0,0.0,0.0,0.0,0.0,0.0,0.0,0.0,0.0,0.0,0.0,0.0,0.0,0.0,0.0,0.0,0.0,0.0,0.0,0.0,0.0,0.0,0.0,0.0,0.0,0.0,0.0,0.0,0.0,0.0,0.0,0.0,0.0,0.0,0.0,0.0,0.0,0.0,0.0,0.0,0.0,0.0,0.0,0.0,0.0,0.0,0.0,0.0,0.0,0.0,0.0,0.0,0.0,0.0,0.0,0.0,0.0,0.0,0.0,0.0,0.0,0.0,0.0,0.0,0.0,0.0,0.0,0.0,0.0,0.0,0.0,0.0,0.0,0.0,0.0,0.0,0.0,0.0,0.0,0.0,0.0,0.0,0.0,0.0,0.0,0.0,0.0,0.0,0.0,0.0,0.0,0.0,0.0,0.0,0.0,0.0,0.0,0.0,0.0,0.0,0.0,0.0,0.0,0.0,0.0,0.0,0.0,0.0,0.0,0.0,0.0,0.0,0.0,0.0,0.0,0.0,0.0,0.0,0.0,0.0,0.0,0.0,0.0,0.0,0.0,0.0,0.0,0.0,0.0,0.0,0.0,0.0,0.0,0.0,0.0,0.0,0.0,0.0,0.0,0.0,0.0,0.0,0.0,0.0,0.0,0.0,0.0,0.0,0.0,0.0,0.0,0.0,0.0,0.0,0.0,0.0,0.0,0.0,0.0,0.0,0.0,0.0,0.0,0.0,0.0,0.0,0.0,0.0,0.0,0.0,0.0,0.0,0.0,0.0,0.0,0.0,0.0,0.0,0.0,0.0,0.0,0.0,0.0,0.0,0.0,0.0,0.0,0.0,0.0,0.0,0.0,0.0,0.0,0.0,0.0,0.0,0.0,0.0,0.0,0.0,0.0,0.0,0.0,0.0,0.0,0.0,0.0,0.0,0.0,0.0,0.0,0.0,0.0,0.0,0.0,0.0,0.0,0.0,0.0,0.0,0.0,0.0,0.0,0.0,0.0,0.0,0.0,0.0,0.0,0.0,0.0,0.0,0.0,0.0,0.0,0.0,0.0,0.0,0.0,0.0,0.0,0.0,0.0,0.0,0.0,0.0,0.0,0.0,0.0,0.0,0.0,0.0,0.0,0.0,0.0,0.0,0.0,0.0,0.0,0.0,0.0,0.0,0.0,0.0,0.0,0.0,0.0,0.0,0.0,0.0,0.0,0.0,0.0,0.0,0.0,0.0,0.0,0.0,0.0,0.0,0.0,0.0,0.0,0.0,0.0,0.0,0.0,0.0,0.0,0.0,0.0,0.0,0.0,0.0,0.0,0.0,0.0,0.0,0.0,0.0,0.0,0.0,0.0,0.0,0.0,0.0,0.0,0.0,0.0,0.0,0.0,0.0,0.0,0.0,0.0,0.0,0.0,0.0,0.0,0.0,0.0,0.0,0.0,0.0,0.0,0.0,0.0,0.0,0.0,0.0,0.0,0.0,0.0,0.0,0.0,0.0,0.0,0.0,0.0,0.0,0.0,0.0,0.0,0.0,0.0,0.0,0.0,0.0,0.0,0.0,0.0,0.0,0.0,0.0,0.0,0.0,0.0,0.0,0.0,0.0,0.0,0.0,0.0,0.0,0.0,0.0,0.0,0.0,0.0,0.0,0.0,0.0,0.0,0.0,0.0,0.0,0.0,0.0,0.0,0.0,0.0,0.0,0.0,0.0,0.0,0.0,0.0,0.0,0.0,0.0,0.0,0.0,0.0,0.0,0.0,0.0,0.0,0.0,0.0,0.0,0.0,0.0,0.0,0.0,0.0,0.0,0.0,0.0,0.0,0.0,0.0,0.0,0.0,0.0,0.0,0.0,0.0,0.0,0.0,0.0,0.0,0.0,0.0,0.0,0.0,0.0,0.0,0.0,0.0,0.0,0.0,0.0,0.0,0.0,0.0,0.0,0.0,0.0,0.0,0.0,0.0,0.0,0.0,0.0,0.0,0.0,0.0,0.0,0.0,0.0,0.0,0.0,0.0,0.0,0.0,0.0,0.0,0.0,0.0,0.0,0.0,0.0,0.0,0.0,0.0,0.0,0.0,0.0,0.0,0.0,0.0,0.0,0.0,0.0,0.0,0.0,0.0,0.0,0.0,0.0,0.0,0.0,0.0,0.0,0.0,0.0,0.0,0.0,0.0,0.0,0.0,0.0,0.0,0.0,0.0,0.0,0.0,0.0,0.0,0.0,0.0,0.0,0.0,0.0,0.0,0.0,0.0,0.0,0.0,0.0,0.0,0.0,0.0,0.0,0.0,0.0,0.0,0.0,0.0,0.0,0.0,0.0,0.0,0.0,0.0,0.0,0.0,0.0,0.0,0.0,0.0,0.0,0.0,0.0,0.0,0.0,0.0,0.0,0.0,0.0,0.0,0.0,0.0,0.0,0.0,0.0,0.0,0.0,0.0,0.0,0.0,0.0,0.0,0.0,0.0,0.0,0.0,0.0,0.0,0.0,0.0,0.0,0.0,0.0,0.0,0.0,0.0,0.0,0.0,0.0,0.0,0.0,0.0,0.0,0.0,0.0,0.0,0.0,0.0,0.0,0.0,0.0,0.0,0.0,0.0,0.0,0.0,0.0,0.0,0.0,0.0,0.0,0.0,0.0,0.0,0.0,0.0,0.0,0.0,0.0,0.0,0.0,0.0,0.0,0.0,0.0,0.0,0.0,0.0,0.0,0.0,0.0,0.0,0.0,0.0,0.0,0.0,0.0,0.0,0.0,0.0,0.0,0.0,0.0,0.0,0.0,0.0,0.0,0.0,0.0,0.0,0.0,0.0,0.0,0.0,0.0,0.0,0.0,0.0,0.0,0.0,0.0,0.0,0.0,0.0,0.0,0.0,0.0,0.0,0.0,0.0,0.0,0.0,0.0,0.0,0.0,0.0,0.0,0.0,0.0,0.0,0.0,0.0,0.0,0.0,0.0,0.0,0.0,0.0,0.0,0.0,0.0,0.0,0.0,0.0,0.0,0.0,0.0,0.0,0.0,0.0,0.0,0.0,0.0,0.0,0.0,0.0,0.0,0.0,0.0,0.0,0.0,0.0,0.0,0.0,0.0,0.0,0.0,0.0,0.0,0.0,0.0,0.0,0.0,0.0,0.0,0.0,0.0,0.0,0.0,0.0,0.0,0.0,0.0,0.0,0.0,0.0,0.0,0.0,0.0,0.0,0.0,0.0,0.0,0.0,0.0,0.0,0.0,0.0,0.0,0.0,0.0,0.0,0.0,0.0,0.0,0.0,0.0,0.0,0.0,0.0,0.0,0.0,0.0,0.0,0.0,0.0,0.0,0.0,0.0,0.0,0.0,0.0,0.0,0.0,0.0,0.0,0.0,0.0,0.0,0.0,0.0,0.0,0.0,0.0,0.0,0.0,0.0,0.0,0.0,0.0,0.0,0.0,0.0,0.0,0.0,0.0,0.0,0.0,0.0,0.0,0.0,0.0,0.0,0.0,0.0,0.0,0.0,0.0,0.0,0.0,0.0,0.0,0.0,0.0,0.0,0.0,0.0,0.0,0.0,0.0,0.0,0.0,0.0,0.0,0.0,0.0,0.0,0.0,0.0,0.0,0.0,0.0,0.0,0.0,0.0,0.0,0.0,0.0,0.0,0.0,0.0,0.0,0.0,0.0,0.0,0.0,0.0,0.0,0.0,0.0,0.0,0.0,0.0,0.0,0.0,0.0,0.0,0.0,0.0,0.0,0.0,0.0,0.0,0.0,0.0,0.0,0.0,0.0,0.0,0.0,0.0,0.0,0.0,0.0,0.0,0.0,0.0,0.0,0.0,0.0,0.0,0.0,0.0,0.0,0.0,0.0,0.0,0.0,0.0,0.0,0.0,0.0,0.0,0.0,0.0,0.0,0.0,0.0,0.0,0.0,0.0,0.0,0.0,0.0,0.0,0.0,0.0,0.0,0.0,0.0,0.0,0.0,0.0,0.0,0.0,0.0,0.0,0.0,0.0,0.0,0.0,0.0,0.0,0.0,0.0,0.0,0.0,0.0,0.0,0.0,0.0,0.0,0.0,0.0,0.0,0.0,0.0,0.0,0.0,0.0,0.0,0.0,0.0,0.0,0.0,0.0,0.0,0.0,0.0,0.0,0.0,0.0,0.0,0.0,0.0,0.0,0.0,0.0,0.0,0.0,0.0,0.0,0.0,0.0,0.0,0.0,0.0,0.0,0.0,0.0,0.0,0.0,0.0,0.0,0.0,0.0,0.0,0.0,0.0,0.0,0.0,0.0,0.0,0.0,0.0,0.0,0.0,0.0,0.0,0.0,0.0,0.0,0.0,0.0,0.0,0.0,0.0,5.5858,5.5959,0.0,0.0,0.0,0.0,0.0,0.0,0.0,0.0,0.0,0.0,0.0,0.0,0.0,0.0,0.0,0.0,0.0,0.0,0.0,0.0,0.0,0.0,0.0,0.0,0.0,0.0,0.0,0.0,0.0,0.0,0.0,0.0,0.0,0.0,0.0,0.0,0.0,4.9082,4.9872,5.0259,5.0259,4.9855,4.9784,4.9988,0.0,0.0,0.0,0.0,0.0,0.0,0.0,0.0,0.0,0.0,0.0,0.0,0.0,0.0,0.0,0.0,0.0,0.0,0.0,0.0,0.0,0.0,0.0,0.0,0.0,0.0,0.0,0.0,0.0,0.0,0.0,0.0,0.0,0.0,0.0,0.0,0.0,0.0,0.0,0.0,0.0,0.0,0.0,0.0,0.0,0.0,0.0,0.0,0.0,0.0,0.0,0.0,0.0,0.0,0.0,0.0,0.0,0.0,0.0,0.0,0.0,0.0,0.0,0.0,0.0,0.0,0.0,0.0,0.0,0.0,5.618,5.6164,0.0,0.0,0.0,0.0,0.0,0.0,0.0,0.0,0.0,0.0,0.0,0.0,0.0,0.0,0.0,0.0,0.0,0.0,0.0,0.0,0.0,0.0,0.0,4.5972,4.5972,4.5972,4.6122,4.6172,0.0,0.0,0.0,0.0,0.0,0.0,4.7783,4.903,4.975,4.989,5.0557,5.0891,5.0891,5.0891,5.1123,5.1449,5.0759,0.0,0.0,0.0,0.0,0.0,0.0,0.0,0.0,0.0,0.0,0.0,0.0,0.0,0.0,0.0,0.0,0.0,0.0,0.0,0.0,0.0,0.0,0.0,0.0,0.0,0.0,0.0,0.0,0.0,0.0,0.0,0.0,0.0,0.0,0.0,0.0,0.0,0.0,0.0,0.0,0.0,0.0,0.0,0.0,0.0,0.0,0.0,0.0,0.0,0.0,0.0,0.0,0.0,0.0,0.0,0.0,0.0,0.0,0.0,0.0,0.0,0.0,0.0,5.6214,5.6214,5.6214,5.6214,5.6223,5.6232,5.6209,5.6223,5.6199,5.6145,0.0,0.0,0.0,0.0,0.0,0.0,0.0,0.0,0.0,0.0,0.0,0.0,0.0,0.0,0.0,0.0,0.0,0.0,0.0,0.0,0.0,4.5922,4.5972,4.5972,4.6122,4.6172,4.6172,0.0,0.0,0.0,0.0,0.0,4.9363,4.9592,5.003,5.0733,5.0838,5.0891,5.0891,5.0891,5.0945,5.0981,5.0875,5.0876,5.0911,0.0,0.0,0.0,0.0,0.0,0.0,0.0,0.0,0.0,0.0,0.0,0.0,0.0,0.0,0.0,0.0,0.0,0.0,0.0,0.0,0.0,0.0,0.0,0.0,0.0,0.0,0.0,0.0,0.0,0.0,0.0,0.0,0.0,0.0,0.0,0.0,0.0,0.0,0.0,0.0,0.0,5.0978,5.1831,0.0,0.0,0.0,0.0,0.0,0.0,0.0,0.0,0.0,0.0,0.0,0.0,0.0,5.5532,5.5572,5.5883,5.6029,5.6029,5.6204,5.6298,5.6298,5.6298,5.6278,5.6291,5.6278,0.0,5.6278,5.6199,0.0,0.0,0.0,0.0,0.0,0.0,0.0,0.0,0.0,0.0,0.0,0.0,0.0,0.0,0.0,0.0,0.0,0.0,0.0,0.0,0.0,4.5649,4.5803,4.5407,4.5684,4.6147,4.6853,4.6966,0.0,0.0,0.0,4.9328,4.9679,5.0118,5.0539,5.0891,5.0891,5.0891,5.0891,5.0891,5.0891,5.0891,5.0891,5.0891,5.0873,5.0752,0.0,0.0,0.0,0.0,0.0,0.0,0.0,0.0,0.0,0.0,0.0,0.0,0.0,0.0,0.0,0.0,0.0,0.0,0.0,0.0,0.0,0.0,0.0,0.0,0.0,0.0,0.0,0.0,0.0,0.0,0.0,0.0,0.0,0.0,0.0,0.0,0.0,0.0,0.0,5.0772,5.16,5.2039,5.2741,5.3229,0.0,0.0,0.0,0.0,0.0,0.0,0.0,0.0,0.0,5.5573,5.5512,5.5535,5.564,5.5884,5.6007,5.6007,5.6199,5.6291,5.6311,5.6816,5.7029,5.7049,5.7515,5.7709,5.767,5.7144,5.6936,5.6966,0.0,0.0,0.0,0.0,5.7862,5.8202,0.0,0.0,0.0,0.0,0.0,0.0,0.0,0.0,0.0,0.0,0.0,0.0,4.4889,4.5424,4.5529,4.491,4.5367,4.6118,4.7124,4.7247,4.7716,4.8697,4.9574,4.9995,4.9995,5.0575,5.0891,5.0891,5.0891,5.0891,5.0891,5.0891,5.0891,5.0891,5.0891,5.0891,5.0891,5.0891,5.084,5.0713,0.0,0.0,0.0,0.0,0.0,0.0,0.0,0.0,0.0,0.0,0.0,0.0,0.0,0.0,0.0,0.0,0.0,0.0,0.0,0.0,0.0,0.0,0.0,0.0,0.0,0.0,0.0,0.0,0.0,0.0,0.0,0.0,0.0,0.0,0.0,0.0,0.0,5.1738,5.2306,5.2531,5.3327,5.3867,0.0,0.0,0.0,0.0,0.0,0.0,5.5596,5.5383,5.5307,5.5476,5.5418,5.5446,5.5596,5.5864,5.6117,5.633,5.6529,5.6738,5.6952,5.7612,5.7904,5.7942,5.8545,5.8797,5.8758,5.8109,5.7824,5.7887,5.8498,5.8735,5.8735,5.8784,5.8935,5.9124,0.0,0.0,0.0,0.0,0.0,0.0,0.0,0.0,0.0,0.0,0.0,4.5511,4.523,4.523,4.5123,4.4763,4.5465,4.6114,4.6546,4.8003,4.9017,4.9449,5.0363,5.0838,5.0838,5.0873,5.0891,5.0891,5.0891,5.0891,5.0891,5.0891,5.0891,5.0891,5.0891,5.0891,5.0891,5.0891,5.114,5.1547,5.1547,0.0,0.0,0.0,0.0,0.0,0.0,0.0,0.0,0.0,0.0,0.0,0.0,0.0,0.0,0.0,0.0,0.0,0.0,0.0,0.0,0.0,0.0,0.0,0.0,0.0,0.0,0.0,0.0,0.0,0.0,0.0,0.0,0.0,0.0,0.0,0.0,0.0,0.0,5.4183,5.4444,0.0,0.0,0.0,0.0,5.5212,5.5107,5.5119,5.5307,5.5176,5.5195,5.5403,5.5523,5.5596,5.5596,5.5864,5.6427,5.724,5.7455,5.7923,5.8681,5.8719,5.8739,5.8739,5.8778,5.8797,5.8797,5.8758,5.8731,5.8741,5.878,5.8799,5.8799,5.8799,5.9333,6.004,0.0,0.0,0.0,0.0,0.0,0.0,0.0,0.0,4.5615,4.5667,4.5563,4.5089,4.4226,4.4451,4.4525,4.4158,4.462,4.547,4.6845,4.7775,4.8655,4.9499,5.0425,5.0891,5.0891,5.0891,5.0891,5.0891,5.0891,5.0891,5.0891,5.0891,5.0891,5.0891,5.0891,5.0891,5.0891,5.0891,5.0981,5.1158,5.1158,5.1358,0.0,0.0,0.0,0.0,0.0,0.0,0.0,0.0,0.0,0.0,0.0,0.0,0.0,0.0,0.0,0.0,0.0,0.0,0.0,0.0,0.0,0.0,0.0,0.0,0.0,0.0,0.0,0.0,0.0,0.0,0.0,0.0,0.0,0.0,0.0,0.0,0.0,5.4482,5.4486,0.0,5.4642,5.4716,5.4776,5.4817,5.4952,5.5102,5.5176,5.5241,5.5332,5.5403,5.5957,5.6231,5.6231,5.7097,5.7699,5.8007,5.8265,5.8525,5.8817,5.938,5.9632,5.9671,6.0234,6.0468,6.0468,6.0468,6.0143,5.9696,6.0245,6.0459,6.0459,6.0459,6.0667,6.0934,0.0,0.0,0.0,0.0,0.0,0.0,0.0,0.0,4.5546,4.5336,4.5213,4.4746,4.3571,4.3748,4.3988,4.4109,4.4341,4.5359,4.7501,4.8003,4.872,4.9879,5.0564,5.0891,5.0891,5.0891,5.0891,5.0891,5.0891,5.0891,5.0891,5.0891,5.0891,5.0891,5.0891,5.0891,5.0891,5.0891,5.0891,5.0891,5.0891,5.1158,5.1597,0.0,0.0,0.0,0.0,0.0,0.0,0.0,0.0,0.0,0.0,0.0,0.0,0.0,0.0,0.0,0.0,0.0,0.0,0.0,0.0,0.0,0.0,0.0,0.0,0.0,0.0,0.0,0.0,0.0,0.0,0.0,0.0,0.0,0.0,5.3931,5.4424,5.4519,5.4486,5.4472,5.4519,5.4565,5.4597,5.4597,5.4863,5.5038,5.5094,5.5553,5.5804,5.5804,5.674,5.7191,5.7191,5.8084,5.8681,5.8989,5.9153,5.9399,5.971,6.0273,6.0545,6.0565,6.1147,6.14,6.14,6.14,6.107,6.0604,6.1167,6.14,6.14,6.14,6.14,6.14,0.0,0.0,0.0,0.0,0.0,0.0,0.0,4.5922,4.5701,4.4818,4.4708,4.4356,4.3366,4.3174,4.3547,4.4544,4.4754,4.5859,4.8367,4.8753,4.9428,5.053,5.0819,5.0891,5.0891,5.0891,5.0891,5.0891,5.0891,5.0891,5.0891,5.0891,5.0891,5.0891,5.0891,5.0891,5.0891,5.0891,5.0891,5.0891,5.0891,5.1158,5.1569,0.0,0.0,0.0,0.0,0.0,0.0,0.0,0.0,0.0,0.0,0.0,0.0,0.0,0.0,0.0,0.0,0.0,0.0,0.0,0.0,0.0,0.0,0.0,0.0,0.0,0.0,0.0,0.0,0.0,0.0,0.0,0.0,0.0,5.3851,5.4146,5.439,5.4409,5.4519,5.4552,5.4424,5.4519,5.4597,5.4597,5.481,5.4979,5.5132,5.6088,5.6625,5.6625,5.7819,5.8432,5.8432,5.8723,5.9288,6.0137,6.0137,6.0584,6.14,6.14,6.14,6.14,6.14,6.14,6.14,6.14,6.14,6.14,6.14,6.14,6.14,6.14,6.14,6.14,0.0,0.0,0.0,0.0,0.0,0.0,4.5922,4.5972,4.5701,4.4818,4.4708,4.4226,4.2941,4.326,4.3622,4.3936,4.4725,4.5807,4.7374,4.8375,4.9445,5.0747,5.0873,5.0891,5.0891,5.0891,5.0891,5.0891,5.0891,5.0891,5.0891,5.0891,5.0891,5.0891,5.0891,5.0891,5.0891,5.0891,5.0891,5.0891,5.0891,5.0981,5.1105,0.0,0.0,0.0,0.0,0.0,0.0,0.0,0.0,0.0,0.0,0.0,0.0,0.0,0.0,0.0,0.0,0.0,0.0,0.0,0.0,0.0,0.0,0.0,0.0,0.0,0.0,0.0,0.0,0.0,0.0,0.0,5.3813,5.4055,5.4217,5.4321,5.4424,5.4552,5.4505,5.4472,5.4552,5.4505,5.4505,5.4597,5.5321,5.5863,5.6026,5.6984,5.7542,5.7542,5.8432,5.898,5.9104,5.9919,6.0497,6.0832,6.0968,6.1167,6.14,6.14,6.14,6.14,6.14,6.14,6.14,6.14,6.14,6.14,6.14,6.14,6.14,6.14,6.14,6.14,0.0,0.0,0.0,0.0,0.0,0.0,4.5922,4.6023,4.5632,4.4434,4.4451,4.398,4.2333,4.2928,4.3652,4.4074,4.5034,4.6134,4.7407,4.8539,4.9681,5.0819,5.0891,5.0891,5.0891,5.0891,5.0891,5.0891,5.0891,5.0891,5.0891,5.0891,5.0891,5.0891,5.0891,5.0891,5.0891,5.0891,5.0891,5.0891,5.0891,5.0891,5.0945,5.1211,5.1297,5.1331,5.1601,5.1714,5.1714,5.194,0.0,0.0,0.0,0.0,0.0,0.0,0.0,0.0,0.0,0.0,0.0,0.0,0.0,0.0,0.0,0.0,0.0,0.0,0.0,0.0,0.0,0.0,0.0,0.0,5.3889,5.4198,5.4356,5.4409,5.4424,5.4505,5.4458,5.4424,5.4486,5.4825,5.5079,5.5202,5.6163,5.6825,5.7005,5.7889,5.8402,5.8402,5.9247,5.9773,5.9898,6.0631,6.1021,6.1094,6.1302,6.14,6.14,6.14,6.14,6.14,6.14,6.14,6.14,6.14,6.14,0.0,0.0,0.0,0.0,0.0,6.14,6.14,0.0,0.0,0.0,0.0,0.0,0.0,4.5922,4.6122,4.5597,4.393,4.4135,4.3714,4.1835,4.2682,4.3732,4.451,4.5586,4.6766,4.8253,4.9154,5.0045,5.0873,5.0891,5.0891,5.0891,5.0891,5.0891,5.0891,5.0891,5.0891,5.0891,5.0891,5.0891,5.0891,5.0891,5.0891,5.0891,5.0891,5.0891,5.0891,5.0891,5.0891,5.0891,5.0891,5.0891,5.0891,5.0891,5.0891,5.0981,5.1383,0.0,0.0,0.0,0.0,0.0,0.0,0.0,0.0,0.0,0.0,0.0,0.0,0.0,0.0,0.0,0.0,0.0,0.0,0.0,0.0,0.0,0.0,0.0,0.0,5.4072,5.4287,5.4287,5.4431,5.4503,5.4409,5.4484,5.454,5.454,5.5442,5.609,5.6228,5.7175,5.7816,5.802,5.8822,0.0,0.0,0.0,6.0564,6.0589,6.0884,6.1076,6.1094,6.1287,6.1386,6.14,6.14,6.14,6.14,6.14,6.14,6.14,6.14,6.14,6.14,6.14,6.14,6.14,6.14,6.14,6.14,0.0,0.0,0.0,0.0,0.0,0.0,4.6005,4.6172,4.5649,4.4085,4.4418,4.3963,4.1819,4.3261,4.4278,4.3949,4.6007,4.8008,4.9605,4.9913,5.0289,5.0873,5.0891,5.0891,5.0891,5.0891,5.0891,5.0891,5.0891,5.0891,5.0891,5.0891,5.0891,5.0891,5.0891,5.0891,5.0891,5.0891,5.0891,5.0891,5.0891,5.0891,5.0891,5.0891,5.0891,5.0891,5.0891,5.0891,5.0945,5.1034,5.1297,5.1619,5.1701,5.2036,0.0,0.0,0.0,0.0,0.0,0.0,0.0,0.0,0.0,0.0,0.0,0.0,0.0,0.0,0.0,0.0,0.0,0.0,0.0,5.3193,5.3385,5.3604,5.3604,5.4633,5.5141,5.4484,5.4972,5.5385,5.5385,5.6289,5.6946,5.7137,5.8068,5.8721,5.888,5.9682,6.0141,6.0141,6.0349,6.0494,6.0589,6.0661,6.0822,6.1094,0.0,0.0,6.14,6.14,6.14,6.14,6.14,6.14,6.14,6.14,6.14,6.14,6.14,6.14,6.14,6.14,6.14,6.14,0.0,0.0,0.0,0.0,0.0,0.0,4.6073,4.6172,4.5768,4.4623,4.4947,4.4601,4.2831,4.4105,4.4984,4.4805,4.6732,4.8709,5.038,5.0102,5.0159,5.0891,5.0891,5.0891,5.0891,5.0891,5.0891,5.0891,5.0891,5.0891,5.0891,5.0891,5.0891,5.0891,5.0891,5.0891,5.0891,5.0891,5.0891,5.0891,5.0891,5.0891,5.0891,5.0891,5.0891,5.0891,5.0891,5.0891,5.0891,5.0891,5.107,5.1245,5.1401,5.1719,5.2137,0.0,0.0,0.0,0.0,0.0,0.0,0.0,0.0,0.0,0.0,0.0,0.0,0.0,0.0,5.3277,5.3151,0.0,5.3404,5.324,5.3917,5.4503,5.4503,5.5508,5.5948,5.5103,5.5742,5.6249,5.6249,5.7205,5.7875,5.799,5.9033,5.9683,5.9759,6.016,6.0389,6.0389,6.0389,6.0425,6.0494,6.0657,6.082,6.0983,6.1167,6.1302,6.14,6.14,6.14,6.14,6.14,6.14,6.14,6.14,6.14,6.14,6.14,6.14,6.14,6.14,6.14,6.14,0.0,0.0,0.0,0.0,0.0,0.0,0.0,4.6172,4.5955,4.5214,4.5407,4.5108,4.3872,4.4865,4.5922,4.6541,4.763,4.9033,5.0764,5.0045,4.9988,5.0873,5.0891,5.0891,5.0891,5.0891,5.0891,5.0891,5.0891,5.0891,5.0891,5.0891,5.0891,5.0891,5.0891,5.0891,5.0891,5.0891,5.0891,5.0891,5.0891,5.0891,5.0891,5.0891,5.0891,5.0891,5.0891,5.0945,5.0998,5.0945,5.0998,5.1088,5.1246,5.1487,5.1822,5.2343,5.2769,0.0,0.0,0.0,0.0,0.0,0.0,0.0,0.0,5.324,5.3217,5.3222,5.3157,5.3164,5.3113,5.3521,5.3841,5.3787,5.4856,5.5694,5.5748,5.6551,5.6868,5.6192,5.6718,5.7131,5.7131,5.8174,5.8843,5.8843,5.9797,6.0389,6.0389,6.0389,6.0389,6.0389,6.0389,6.0389,6.0389,6.0671,6.0836,6.0882,6.1169,6.1337,6.14,6.14,6.14,6.14,6.1414,6.1428,6.1421,6.1428,6.1414,6.1414,6.14,6.14,6.14,6.14,6.14,6.14,0.0,0.0,0.0,0.0,0.0,0.0,0.0,0.0,4.5955,4.5214,4.5407,4.5161,4.4028,4.5446,4.7234,4.9034,4.8596,4.8978,5.0764,4.9965,4.989,5.0891,5.0891,5.0891,5.0891,5.0891,5.0891,5.0891,5.0891,5.0891,5.0891,5.0891,5.0891,5.0891,5.0891,5.0891,5.0891,5.0891,5.0891,5.0891,5.0891,5.0891,5.0891,5.0891,5.0891,5.0891,5.0891,5.1034,5.1246,5.0998,5.1193,5.1589,5.135,5.1487,5.1853,5.2678,5.2962,5.3189,5.4017,5.4072,5.3719,5.3175,5.324,5.3263,0.0,5.2824,5.2955,5.2645,5.2572,5.279,5.3469,5.3689,5.4027,5.5019,5.5552,5.5958,5.6274,5.7286,5.7938,5.7845,5.792,5.7976,5.7976,5.9061,5.9753,5.9753,6.0159,6.0389,6.0389,6.0389,6.0389,6.0389,6.0389,6.0389,6.0389,6.0444,6.0616,6.0901,6.0942,6.1097,6.14,6.14,6.14,6.14,6.1467,6.1487,6.149,6.1495,6.1491,6.1479,6.1428,6.14,6.14,6.14,6.14,6.14,0.0,0.0,0.0,0.0,0.0,0.0,0.0,0.0,0.0,4.5786,4.5837,4.5735,4.5197,4.6611,4.8031,4.9112,4.9248,4.9521,5.0022,4.9656,4.9715,5.0436,5.0436,5.0564,5.0891,5.0891,5.0891,5.0891,5.0891,5.0891,5.0891,5.0891,5.0891,5.0891,5.0891,5.0891,5.0891,5.0891,5.0891,5.0891,5.0891,5.0891,5.0891,5.0891,5.0891,5.0945,5.1088,5.1193,0.0,5.135,5.1487,5.169,5.174,5.184,5.2066,5.2795,5.3011,5.3096,5.3502,5.3502,5.3258,5.2824,5.2806,5.2806,5.2572,5.2981,5.3372,5.3251,5.3566,5.4001,5.4345,5.472,5.5126,5.5613,5.6537,5.7228,5.7379,5.8203,5.8802,5.8802,5.8911,5.8947,5.8947,5.9545,5.9918,5.9994,6.0256,6.0389,6.0389,6.0389,6.0389,6.0389,6.0389,6.0389,6.0389,6.0487,6.0603,6.0727,6.0924,6.1095,6.1217,6.1394,6.146,6.1456,6.1489,6.151,6.151,6.151,6.15,6.1489,6.1468,6.1452,6.1454,6.1414,6.14,6.14,0.0,0.0,0.0,0.0,0.0,0.0,0.0,0.0,0.0,0.0,4.6122,4.633,4.665,4.77,4.862,4.9384,4.9756,4.9815,4.958,4.9342,4.9402,4.9873,5.0045,5.0289,5.0692,5.0819,5.0891,5.0891,5.0891,5.0891,5.0891,5.0891,5.0891,5.0891,5.0891,5.0891,5.0891,5.0891,5.0891,5.0891,5.0891,5.0891,5.0891,5.0891,5.0945,5.1034,5.1246,5.135,5.1436,5.164,5.179,5.1938,5.2054,5.2228,5.2462,5.2962,5.334,5.3548,5.3482,5.3396,5.3222,5.2898,5.2824,5.2878,5.3114,5.3603,5.4037,5.4037,5.449,5.4961,5.5178,5.5706,5.6203,5.6509,5.7558,5.8316,5.8445,5.8933,5.929,5.929,5.9491,5.9597,5.9685,5.9853,5.9994,6.0099,6.0285,6.0389,6.0389,6.0389,6.0389,6.0389,6.0389,6.0389,6.0389,6.0494,6.0559,6.0589,6.0843,6.1002,6.1111,6.1389,6.1509,6.1528,6.1528,6.1537,6.1545,6.1537,6.1528,6.1528,6.1519,6.151,6.1487,6.146,6.1408,6.14,0.0,0.0,0.0,0.0,0.0,0.0,0.0,0.0,0.0,0.0,0.0,0.0,0.0,4.8486,4.91,5.0678,4.9965,4.958,5.0045,4.9239,4.8934,4.9402,4.9873,5.0119,5.0102,5.062,5.0891,5.0891,5.0891,5.0891,5.0891,5.0891,5.0891,5.0891,5.0891,5.0891,5.0891,5.0891,5.0891,5.0891,5.0891,5.0891,5.0891,5.0891,5.1034,5.1298,5.1298,5.1487,5.169,5.169,5.2054,5.2434,5.2198,5.249,5.3023,5.3304,5.4179,5.4984,5.4726,5.4375,5.4026,5.3733,5.3657,5.3874,5.4653,5.4852,5.487,5.487,5.4888,5.5124,5.583,5.6296,5.6923,5.8072,5.8545,5.887,5.9215,5.9271,5.929,5.929,5.9491,5.9685,5.9853,6.0026,6.0118,6.0099,6.0285,6.0389,6.0389,6.0389,6.0389,6.0389,6.0389,6.0389,6.0389,6.0389,6.0487,6.0589,6.0613,6.0779,6.1111,6.1389,6.1549,6.1595,6.1595,6.1634,6.1696,6.1628,6.1595,6.1588,6.1528,6.151,6.151,6.151,6.1456,6.14,0.0,0.0,0.0,0.0,0.0,0.0,0.0,0.0,0.0,0.0,0.0,0.0,0.0,0.0,0.0,0.0,4.901,4.8995,4.9178,4.8593,4.8467,4.8951,4.9118,4.9462,5.0119,5.0307,5.0564,5.0891,5.0891,5.0891,5.0891,5.0891,5.0891,5.0891,5.0891,5.0891,5.0891,5.0891,5.0891,5.0891,5.0891,5.0891,5.0891,5.0891,5.1052,5.1333,0.0,5.174,5.1987,5.2198,5.2508,5.2824,5.2735,5.3346,5.4262,5.4861,5.5479,5.5802,5.5227,5.4983,5.4821,5.4567,5.4508,5.4581,5.4852,5.5287,5.5631,5.5631,5.6243,5.689,5.7145,5.751,5.7943,5.8545,5.8706,5.8926,5.9253,5.929,5.929,5.929,5.9597,5.982,5.9885,6.0026,6.0148,6.0285,6.0361,6.0389,6.0389,6.0389,6.0389,6.0389,6.0389,6.0389,6.0389,6.0389,6.0425,6.046,6.0559,6.0804,6.125,6.1324,6.1471,6.1666,6.1666,6.1671,6.1701,6.1671,6.1666,6.1666,6.1634,6.1615,6.1573,6.1573,6.1519,6.1479,0.0,0.0,0.0,0.0,0.0,0.0,0.0,0.0,0.0,0.0,0.0,0.0,0.0,0.0,0.0,0.0,0.0,4.8889,4.8702,4.842,4.8292,4.8403,4.8765,4.9222,4.9815,5.0176,5.0564,5.0891,5.0891,5.0891,5.0891,5.0891,5.0891,5.0891,5.0891,5.0891,5.0891,5.0891,5.0891,5.0891,5.0891,5.0891,5.0891,5.0998,5.1141,0.0,5.1589,5.1889,5.215,5.2387,5.2663,5.2878,5.317,5.4012,5.5104,5.6042,5.633,5.6293,5.587,5.5642,5.552,5.5335,5.5287,5.5377,5.5667,5.6084,5.6428,5.6428,5.7188,5.7792,5.7792,5.8051,5.8431,5.8747,5.8788,5.8926,5.9253,5.9364,5.9419,5.9419,5.9734,5.9963,5.9963,6.0118,6.0256,6.0389,6.0389,6.0389,6.0389,6.0389,6.0389,6.0389,6.0389,6.0389,6.0389,6.0389,6.0389,6.0389,6.0553,6.0824,6.1116,6.1272,6.1441,6.1628,6.1671,6.1701,6.1701,6.1701,6.1701,6.1701,6.1701,6.1671,6.1634,6.1634,6.1621,6.158,0.0,0.0,0.0,0.0,0.0,0.0,0.0,0.0,0.0,0.0,0.0,0.0,0.0,0.0,0.0,0.0,0.0,0.0,4.8827,4.8702,4.8467,4.8115,4.8889,4.9402,4.9402,5.038,5.0873,5.0891,5.0891,5.0891,5.0891,5.0891,5.0891,5.0891,5.0891,5.0891,5.0891,5.0891,5.0891,5.0891,5.0891,5.0891,5.0945,5.1193,5.1298,5.135,5.1589,5.184,5.215,5.2387,5.2516,5.2744,5.3541,5.4537,5.5605,5.6786,5.6893,5.6603,5.6639,5.6339,5.6047,5.6047,5.6047,5.6247,5.7025,5.7188,5.7206,5.7257,5.7553,5.7839,5.7839,5.8097,5.8431,5.8788,5.8828,5.8926,5.9253,5.9491,5.9616,5.9616,5.9899,6.0099,6.0099,6.0285,6.0389,6.0389,6.0389,6.0389,6.0389,6.0389,6.0389,6.0389,6.0389,6.0389,6.0389,6.0389,6.0389,6.0389,6.0603,6.0712,6.0806,6.1201,6.1429,6.1519,6.1634,6.1696,6.1701,6.1701,6.1701,6.1701,6.1701,6.1701,6.1701,6.1701,6.174,6.1754,0.0,0.0,0.0,0.0,0.0,0.0,0.0,0.0,0.0,0.0,0.0,0.0,0.0,0.0,0.0,0.0,0.0,0.0,4.9664,4.8765,4.842,4.8995,4.8934,4.9239,4.993,5.0176,5.0492,5.0891,5.0891,5.0891,5.0891,5.0891,5.0891,5.0891,5.0891,5.0891,5.0891,5.0891,5.0891,5.0891,5.0891,5.0891,5.0891,5.0998,5.1141,5.1298,5.1402,5.169,5.2102,5.2198,5.2889,5.3898,5.4987,5.5926,5.6779,5.7428,5.7574,5.7434,5.7128,5.698,5.688,5.688,5.688,5.6935,5.7152,5.7188,5.7307,5.7601,5.7914,5.8257,5.8498,5.8624,5.8788,5.9121,5.8947,5.8926,5.9253,5.9491,5.9616,5.9616,5.9899,6.0099,6.0099,6.0285,6.0389,6.0389,6.0389,6.0389,6.0389,6.0389,6.0389,6.0389,6.0389,6.0389,6.0389,6.0389,6.0389,6.0389,6.0506,6.0633,6.0804,6.0963,6.1196,6.149,6.1537,6.1615,6.1701,6.1701,6.1701,6.1701,6.1701,6.1701,6.1701,6.1701,6.211,6.2676,0.0,0.0,0.0,0.0,0.0,0.0,0.0,0.0,0.0,0.0,0.0,0.0,0.0,0.0,0.0,0.0,0.0,0.0,0.0,4.8765,4.8467,4.8765,4.8951,4.9222,4.9756,5.025,5.062,5.0891,5.0891,5.0891,5.0891,5.0891,5.0891,5.0891,5.0891,5.0891,5.0891,5.0891,5.0891,0.0,0.0,5.0891,5.0891,5.1034,5.1088,5.1141,5.1246,5.1589,5.1992,5.2594,5.3512,5.4565,5.5249,5.6228,5.7188,5.7455,5.7553,5.7504,5.7239,5.7188,5.7188,5.7188,5.7188,5.7257,5.7437,5.7437,5.7583,5.796,5.8301,5.8582,5.8747,5.8788,5.8947,5.9364,5.9159,5.9064,5.9508,5.9715,5.9834,5.9834,6.0057,6.0237,6.0237,6.0313,6.0389,6.0389,6.0389,6.0389,6.0389,6.0389,6.0389,6.0389,6.0389,6.0389,6.0389,6.0389,6.0389,6.0389,6.0499,6.0616,6.0708,6.0865,6.1103,6.1359,0.0,6.158,6.1701,6.1701,6.1701,6.1701,6.1701,6.1701,6.1759,6.213,6.2579,6.3106,0.0,0.0,0.0,0.0,0.0,0.0,0.0,0.0,0.0,0.0,4.4597,0.0,0.0,0.0,0.0,0.0,0.0,0.0,0.0,0.0,4.8576,4.8292,4.8995,4.9462,4.9598,5.0453,5.0891,5.0891,5.0891,5.0891,5.0891,5.0891,5.0891,5.0891,5.0891,5.0891,5.0891,5.0891,5.0891,5.0891,5.0891,5.0891,5.0945,0.0,5.1088,5.0945,5.1246,5.1487,5.1915,5.3231,5.4237,5.4925,5.5015,5.6047,5.7188,5.7188,5.7188,5.7188,5.7188,5.7188,5.7188,5.7188,5.7188,5.7307,5.7697,5.7792,5.7932,5.8301,5.8582,5.8828,5.8868,5.8868,5.9044,5.9526,5.9364,5.9345,5.982,6.0026,6.0099,6.0099,6.0285,6.0389,6.0389,6.0389,6.0389,6.0389,6.0389,6.0389,6.0389,6.0389,6.0389,6.0389,6.0389,6.0389,6.0389,6.0389,6.0389,6.0389,6.0525,6.0604,6.0604,6.086,6.1055,6.1192,6.1379,6.1545,6.1671,6.1696,6.1701,6.1701,6.1701,6.1779,6.1954,6.2716,6.3145,6.3555,0.0,0.0,0.0,0.0,0.0,0.0,0.0,0.0,0.0,0.0,4.3789,4.4162,0.0,0.0,0.0,0.0,0.0,0.0,0.0,0.0,0.0,4.9698,4.9521,4.9774,5.0637,5.0819,5.0891,5.0891,5.0891,5.0891,5.0891,5.0891,5.0891,5.0891,5.0891,5.0891,5.0891,5.0891,5.0891,5.0891,5.0891,5.0891,5.0891,5.0945,0.0,0.0,5.1436,5.164,5.1915,5.3231,5.4237,5.5015,5.5613,5.6446,5.7188,5.7188,5.7188,5.7188,5.7188,5.7188,5.7188,5.7188,5.7188,5.7307,5.7697,5.7792,5.796,5.8582,5.8747,5.8868,5.9159,5.9215,5.929,5.9562,5.9562,5.9597,5.9853,6.0026,6.0099,6.0099,6.0285,6.0389,6.0389,6.0389,6.0389,6.0389,6.0389,6.0389,6.0389,6.0389,6.0389,6.0389,6.0389,6.0389,6.0389,6.0389,6.0389,6.0389,6.0525,6.0604,6.0604,6.0762,6.0922,6.1037,6.1177,0.0,6.1537,6.164,6.1701,6.1701,6.1701,6.2149,6.2794,6.293,6.3906,6.5194,0.0,0.0,0.0,0.0,0.0,0.0,0.0,4.3628,4.3628,4.3628,4.3628,4.3789,4.4162,4.4429,4.4902,0.0,0.0,0.0,0.0,0.0,0.0,0.0,4.9402,4.9656,5.008,5.038,5.062,5.0891,0.0,5.0891,5.0891,5.0891,5.0891,5.0891,5.0891,5.0891,5.0891,5.0891,5.0891,5.0891,5.0891,5.0891,5.0891,5.0891,0.0,0.0,5.1487,5.169,5.1987,5.3718,5.4581,5.5033,5.5758,5.6536,5.7188,5.7188,5.7188,5.7188,5.7188,5.7188,5.7188,5.7188,5.7188,5.7338,5.7914,5.8051,5.8257,5.8926,5.9044,5.9121,5.9253,5.929,5.9383,5.9581,5.9685,5.9801,5.9963,6.0148,6.0256,6.0256,6.0361,6.0389,6.0389,6.0389,6.0389,6.0389,6.0389,6.0389,6.0389,6.0389,6.0389,6.0389,6.0389,6.0389,6.0389,6.0389,6.0389,6.0389,6.0525,6.0604,6.0604,6.0753,6.0877,6.1002,6.1072,6.1258,6.149,6.1573,6.1634,6.1759,6.2208,6.2637,6.3106,6.4023,6.4882,6.5663,0.0,0.0,0.0,0.0,0.0,0.0,0.0,4.3628,4.3628,4.3628,4.3628,4.3628,4.3628,4.4023,4.4471,0.0,0.0,0.0,0.0,0.0,0.0,0.0,0.0,0.0,4.9462,0.0,0.0,5.062,5.0819,0.0,0.0,0.0,0.0,0.0,5.0891,5.0891,5.0891,5.0891,5.0891,0.0,0.0,5.0891,5.0891,0.0,0.0,0.0,0.0,5.169,5.204,5.4151,5.4907,5.5051,5.6055,5.6781,5.7188,5.7188,5.7188,5.7188,5.7188,5.7188,5.7188,5.7188,5.7188,5.737,5.8123,5.8301,5.8474,5.9178,5.929,5.929,5.929,5.929,5.9383,5.9581,5.9786,5.995,6.0068,6.0285,6.0389,6.0389,6.0389,6.0389,6.0389,6.0389,6.0389,6.0389,6.0389,6.0389,6.0389,6.0389,6.0389,6.0389,6.0389,6.0389,6.0389,6.0389,6.0417,6.0417,6.0552,6.0604,6.0629,6.0753,6.0875,6.0964,6.1002,6.1171,6.1441,6.1481,6.158,6.1798,6.2657,6.3106,6.3477,6.5038,6.5702,6.5956,0.0,0.0,0.0,0.0,0.0,0.0,0.0,4.3628,4.3628,4.3628,4.3628,4.3628,4.3628,4.4023,4.4155,0.0,0.0,0.0,0.0,0.0,0.0,0.0,0.0,0.0,0.0,0.0,0.0,4.9722,5.0492,0.0,0.0,0.0,0.0,0.0,0.0,5.0891,5.0891,5.0891,0.0,0.0,0.0,0.0,0.0,0.0,0.0,0.0,0.0,5.169,5.204,5.4151,5.4907,5.5209,5.7065,5.7431,5.7188,5.7188,5.7188,5.7188,5.7188,5.7188,5.7188,5.7188,5.7188,5.737,5.8123,5.8301,5.8474,5.9178,5.929,5.929,5.929,5.929,5.9383,5.9581,5.9786,5.995,6.0068,6.0285,6.0389,6.0389,6.0389,6.0389,6.0389,6.0389,6.0389,6.0389,6.0389,6.0389,6.0389,6.0389,6.0389,6.0389,6.0389,6.0389,6.0389,6.0389,6.0417,6.0499,6.0578,6.0629,6.0685,6.0777,6.0823,6.0827,6.0963,6.1087,0.0,6.1412,6.158,6.1798,6.2657,6.3477,6.4297,6.5253,6.6053,6.6697,0.0,0.0,0.0,0.0,0.0,0.0,4.3628,4.3848,4.3906,4.3628,4.3848,4.3906,4.3628,4.3789,4.3789,4.3628,0.0,0.0,0.0,0.0,0.0,0.0,0.0,0.0,0.0,0.0,4.9855,4.9797,5.0509,0.0,0.0,0.0,0.0,0.0,0.0,5.0891,5.0891,5.0891,0.0,0.0,0.0,0.0,0.0,0.0,0.0,0.0,0.0,0.0,5.204,5.4151,5.4907,5.5227,5.7204,5.7697,5.7553,5.7553,5.7406,5.7188,5.7188,5.7188,5.7188,5.7188,5.7239,5.7516,5.8307,5.8503,5.8732,5.9508,5.9666,5.9666,5.9666,5.9666,5.9666,5.9786,5.9899,6.0057,6.0099,6.0285,6.0389,6.0389,6.0389,6.0389,6.0389,6.0389,6.0389,6.0389,6.0389,6.0389,6.0389,6.0389,6.0389,6.0389,6.0389,6.0389,6.0389,6.0389,6.0417,6.0444,6.0552,6.0604,6.0635,6.0753,6.08,6.08,6.0875,6.0944,0.0,6.1253,6.1734,6.2465,6.3408,6.4316,6.5175,6.6014,6.6522,6.6815,0.0,0.0,0.0,0.0,0.0,4.3628,4.3628,4.4023,4.4138,4.3671,4.4023,4.4138,4.3628,4.373,4.373,4.3628,4.4023,0.0,0.0,0.0,0.0,0.0,0.0,0.0,0.0,0.0,4.993,4.9815,5.0564,5.0692,0.0,0.0,5.0891,5.0891,0.0,0.0,0.0,0.0,0.0,0.0,0.0,0.0,0.0,0.0,0.0,0.0,0.0,0.0,0.0,0.0,0.0,5.5227,5.7204,5.7792,5.7792,5.7792,5.7649,5.7388,5.7239,5.7257,5.7307,5.7257,5.7468,5.7812,5.8484,5.8753,5.9065,5.9767,5.9885,5.9885,5.9885,5.9885,5.9885,5.9885,5.9994,6.0099,6.0099,6.0285,6.0389,6.0389,6.0389,6.0389,6.0389,6.0389,6.0389,6.0389,6.0389,6.0389,6.0389,6.0389,6.0389,6.0389,6.0389,6.0389,6.0389,6.0389,6.0417,6.0472,6.0552,6.0629,6.0655,6.0753,6.08,6.08,6.08,6.0877,0.0,6.1147,6.1841,6.2912,6.3904,6.4824,6.5702,6.6502,6.68,6.6844,0.0,0.0,0.0,0.0,0.0,0.0,4.3628,4.4023,4.4138,4.3671,4.4023,4.4138,4.3628,4.4023,4.4138,4.3628,4.4023,0.0,0.0,0.0,0.0,0.0,0.0,0.0,0.0,0.0,4.9588,4.9588,5.0492,5.0891,5.0891,5.0891,5.0891,5.0891,0.0,0.0,0.0,0.0,0.0,0.0,0.0,0.0,0.0,0.0,0.0,0.0,0.0,0.0,0.0,0.0,0.0,0.0,0.0,5.7792,5.7792,5.7792,5.7886,5.7904,5.7338,5.7388,5.7534,5.7437,5.7794,5.8277,5.8613,5.9008,5.9413,5.9834,5.9885,5.9885,5.9885,5.9885,5.9885,5.9885,5.9994,6.0099,6.0099,6.0285,6.0389,6.0389,6.0389,6.0389,6.0389,6.0389,6.0389,6.0389,6.0389,0.0,6.0389,6.0389,6.0389,6.0389,6.0389,6.0389,6.0389,6.0389,6.0472,6.0604,6.0604,6.068,6.08,6.08,6.08,6.08,6.08,6.0877,0.0,6.1147,6.1841,6.2912,6.3904,6.4824,6.5702,6.6502,6.6848,6.6901,0.0,0.0,0.0,0.0,0.0,0.0,0.0,4.4023,4.4138,4.3671,4.4023,4.4138,4.3628,4.373,4.373,4.3628,4.4023,0.0,0.0,0.0,0.0,0.0,0.0,0.0,0.0,4.9162,4.9469,4.9074,5.0265,5.0692,5.0363,5.0747,5.0891,5.0891,5.0891,5.0891,0.0,0.0,0.0,0.0,0.0,0.0,0.0,0.0,0.0,0.0,0.0,0.0,0.0,0.0,0.0,0.0,0.0,0.0,0.0,5.8051,5.8024,5.7792,5.7437,5.7594,5.7886,5.7914,5.8363,5.8835,5.9213,5.9465,5.9758,6.0148,6.0226,6.0226,6.0226,6.0226,6.0226,6.0226,6.0285,6.0313,6.0313,6.0417,6.0444,6.0417,6.0389,6.0389,6.0389,6.0389,6.0389,6.0389,6.0389,6.0389,6.0389,6.0389,6.0389,6.0389,6.0389,6.0389,6.0389,6.0444,6.0499,6.0525,6.061,6.0685,6.0734,6.0777,6.08,6.08,6.08,6.0827,6.0877,6.102,6.202,6.3514,6.3925,6.5042,6.6468,6.6754,6.6871,6.6907,0.0,0.0,0.0,0.0,0.0,0.0,0.0,4.4023,4.4138,4.3671,4.4023,4.4138,4.3628,4.3628,4.3628,4.3628,4.3848,0.0,0.0,0.0,0.0,0.0,0.0,0.0,4.7471,4.8644,4.9257,4.9139,5.0027,5.0449,5.0436,5.0747,5.0891,5.0891,5.0692,5.0692,0.0,0.0,0.0,0.0,0.0,0.0,5.0891,0.0,0.0,0.0,0.0,0.0,0.0,0.0,0.0,0.0,0.0,0.0,0.0,0.0,5.796,5.7792,5.7774,5.8015,5.8289,5.8381,5.8775,5.9287,5.962,5.9855,6.0099,6.0361,6.0389,6.0389,6.0389,6.0389,6.0389,6.0389,6.0389,6.0417,6.0444,6.0472,6.0499,6.0472,6.0444,6.0444,6.0444,6.0417,6.0389,6.0389,6.0389,6.0389,6.0389,6.0389,6.0389,6.0389,6.0389,6.0389,6.0389,6.0472,6.0525,6.0552,6.0655,6.071,6.0734,6.0777,6.08,6.08,6.08,6.08,0.0,6.0924,6.2114,6.3798,6.3954,6.5157,6.6839,6.6878,6.6901,6.6901,0.0,0.0,0.0,0.0,0.0,0.0,0.0,4.3964,4.4064,4.3687,4.3964,4.408,4.3671,4.3628,4.3628,4.3628,0.0,0.0,0.0,0.0,0.0,0.0,0.0,0.0,4.6058,4.7648,4.8837,4.9521,4.9627,5.0066,5.0803,5.0855,5.0891,5.0891,5.038,5.0436,0.0,0.0,0.0,0.0,0.0,0.0,0.0,0.0,0.0,0.0,0.0,0.0,0.0,0.0,0.0,0.0,0.0,0.0,0.0,0.0,0.0,0.0,0.0,5.8511,5.8661,5.8691,5.914,5.959,5.9758,6.0129,0.0,6.0389,6.0389,6.0389,6.0389,6.0389,6.0389,6.0389,6.0389,6.0417,6.0499,6.0499,6.0525,6.0604,6.0552,6.0499,6.0499,6.0444,6.0417,6.0417,6.0417,6.0417,6.0389,6.0389,6.0389,6.0389,6.0389,6.0389,6.0389,6.0472,6.0525,6.0604,6.068,6.0753,6.08,6.08,6.08,0.0,6.08,6.08,6.0804,6.0943,6.2097,6.3804,6.3932,6.5176,6.6878,6.6898,6.689,6.6894,0.0,0.0,0.0,0.0,0.0,0.0,0.0,0.0,0.0,0.0,4.3687,4.3848,4.4138,4.3789,4.373,0.0,0.0,0.0,0.0,0.0,0.0,0.0,0.0,0.0,4.5683,4.7003,4.7766,4.7924,4.91,4.9785,4.9978,5.0592,5.0891,5.0891,5.0764,5.0764,0.0,0.0,0.0,0.0,0.0,0.0,0.0,0.0,0.0,0.0,5.0998,5.1193,0.0,0.0,0.0,0.0,0.0,0.0,0.0,0.0,5.7792,5.7886,5.8231,0.0,5.8646,5.8673,5.9323,5.9956,0.0,6.0207,6.0389,6.0389,6.0389,6.0389,6.0389,6.0389,6.0389,6.0389,6.0389,6.0417,6.0499,6.0552,6.0604,6.068,6.0629,6.0578,6.0578,6.0552,6.0525,6.0472,6.0472,6.0444,6.0389,6.0389,6.0389,6.0389,6.0389,6.0389,6.0389,6.0472,6.0525,6.0604,6.068,6.0753,6.08,6.08,6.08,6.08,6.08,6.08,6.08,6.0831,6.1948,6.3666,6.3784,6.4997,6.6683,6.6839,6.689,6.6894,0.0,0.0,0.0,0.0,0.0,0.0,0.0,0.0,0.0,0.0,0.0,4.3687,4.3964,4.373,0.0,0.0,0.0,0.0,0.0,0.0,0.0,0.0,0.0,4.4818,4.5249,4.6152,4.6758,4.7107,4.8487,4.9363,4.9697,5.0504,5.0891,5.0891,5.0891,5.0747,0.0,0.0,0.0,0.0,5.0891,0.0,0.0,0.0,0.0,0.0,5.0891,5.1088,0.0,5.2342,5.3506,5.4669,0.0,0.0,0.0,0.0,5.7649,5.7583,5.796,5.8238,5.8479,5.8609,5.9065,5.9518,5.9823,6.0,6.0178,6.0361,6.0389,6.0342,6.0159,6.0178,6.0197,6.0129,6.0207,6.0342,6.0559,6.0655,6.0704,6.0734,6.0704,6.0655,6.0655,6.0629,6.0578,6.0552,6.0552,6.0525,6.0499,6.0472,6.0444,6.0444,6.0417,6.0389,6.0389,6.0499,6.0552,6.0604,6.0704,6.0757,6.08,6.08,6.08,6.08,6.08,6.08,6.08,6.08,6.1902,6.3613,6.3744,6.4938,6.6624,6.6797,6.6871,6.6894,0.0,0.0,0.0,0.0,0.0,0.0,0.0,0.0,0.0,0.0,0.0,0.0,0.0,0.0,0.0,0.0,0.0,0.0,0.0,0.0,0.0,0.0,4.431,4.4502,4.491,4.5302,4.5892,4.6689,4.791,4.8855,4.9591,5.0504,5.0891,5.0891,5.0891,5.0637,5.0233,5.0692,5.0891,5.0891,5.0891,0.0,0.0,0.0,0.0,0.0,0.0,0.0,0.0,5.2254,5.3422,5.4568,5.55,0.0,0.0,0.0,0.0,0.0,5.7601,5.7914,5.8213,5.8437,5.8609,5.8854,5.934,5.9587,5.9823,6.0237,6.0313,6.0207,5.9874,5.9912,5.9944,5.9842,6.0019,6.0323,6.066,6.0777,6.08,6.08,6.0753,6.0729,6.0729,6.066,6.0629,6.0629,6.0629,6.0604,6.0604,6.0552,6.0525,6.0525,6.0472,6.0417,6.0417,6.0525,6.0578,6.0604,6.0729,6.08,6.08,6.08,6.08,6.08,0.0,0.0,6.08,6.08,6.1822,6.34,6.3673,6.4827,6.6388,6.6668,6.6826,6.6894,0.0,0.0,0.0,0.0,0.0,0.0,0.0,0.0,0.0,0.0,0.0,0.0,0.0,0.0,0.0,0.0,0.0,0.0,0.0,0.0,0.0,4.431,4.431,4.4502,4.491,4.4964,4.5557,4.6689,4.7557,4.8375,4.9122,5.0342,5.0891,5.0891,5.0891,5.0819,5.0764,5.0891,5.0891,5.0891,5.0891,0.0,0.0,0.0,0.0,0.0,0.0,0.0,0.0,5.2836,5.3691,5.4346,5.6095,0.0,0.0,0.0,0.0,0.0,5.7307,5.7388,5.7583,5.7867,5.8332,5.8735,5.8814,5.9065,5.9397,5.9791,5.9906,5.9925,5.9944,5.9893,5.9861,5.9944,6.0294,6.0559,6.0685,6.0777,6.08,6.08,6.08,6.08,6.08,6.0777,6.0753,6.0685,6.0685,6.068,6.0604,6.0578,6.0578,6.0578,6.0578,6.0578,6.0578,6.0525,6.0552,6.0604,6.068,6.0753,6.08,6.08,6.08,6.08,0.0,6.08,6.08,6.08,6.1401,6.2413,6.3284,6.4322,6.5435,6.6304,6.6746,6.6891,0.0,0.0,0.0,0.0,0.0,0.0,0.0,0.0,0.0,0.0,0.0,0.0,0.0,0.0,0.0,0.0,0.0,0.0,0.0,0.0,4.3789,4.431,4.408,4.4121,4.4558,4.4558,4.5026,4.6015,4.7286,4.8156,4.8673,4.9903,5.0492,5.0492,5.0764,5.0891,5.0891,5.0891,5.0891,5.0891,0.0,0.0,0.0,0.0,0.0,0.0,0.0,0.0,0.0,0.0,5.3636,5.4312,5.6027,0.0,0.0,0.0,0.0,0.0,5.7188,5.7239,5.7338,5.7534,5.7877,5.8289,5.8508,5.8713,5.8969,5.9378,5.9467,5.9432,5.9363,5.9363,5.947,5.9828,6.0169,6.0487,6.071,6.0777,6.08,6.08,6.08,6.08,6.08,6.08,6.08,6.0753,6.0734,6.0753,6.0704,6.066,6.0635,6.0635,6.0629,6.0604,6.0604,6.0604,6.061,6.0635,6.071,6.0777,6.08,6.08,6.08,6.08,0.0,6.08,6.08,6.08,6.13,6.219,6.3225,6.4203,6.5226,6.631,6.6761,6.6852,0.0,0.0,0.0,0.0,0.0,0.0,0.0,0.0,0.0,0.0,0.0,0.0,0.0,0.0,0.0,0.0,0.0,0.0,0.0,4.3628,4.373,4.4138,4.3789,4.3789,4.431,4.4347,4.48,4.5673,4.721,4.823,4.8757,4.9556,4.9988,5.0102,5.0637,5.0891,5.0891,5.0891,5.0891,5.0891,0.0,0.0,0.0,0.0,0.0,0.0,0.0,0.0,0.0,0.0,0.0,0.0,0.0,0.0,0.0,5.7188,5.7188,5.7188,5.7188,5.7239,5.7289,5.7388,5.7534,5.7821,5.8157,5.8332,5.8545,5.8969,5.9046,5.9026,5.8828,5.8887,5.9121,5.9556,5.9855,6.0198,6.052,6.0641,6.0666,6.0666,6.0757,6.08,6.08,6.08,6.08,6.08,6.08,6.08,6.08,6.0734,6.071,6.071,6.066,6.0655,6.0655,6.0704,6.0729,6.0685,6.0777,6.08,6.08,6.08,6.08,6.08,6.08,6.08,6.08,6.08,6.1185,6.1882,6.2873,6.4017,6.5231,6.6374,6.6805,6.6817,0.0,0.0,0.0,0.0,0.0,0.0,0.0,0.0,0.0,0.0,0.0,0.0,0.0,0.0,0.0,0.0,0.0,0.0,0.0,4.3628,4.3628,4.3628,4.3628,4.3789,4.431,4.4556,4.5257,4.6439,4.7656,4.8873,4.9976,4.9605,4.9698,5.0102,5.0637,5.0891,5.0891,5.0891,5.0891,5.0891,5.0891,0.0,0.0,0.0,0.0,0.0,0.0,0.0,0.0,0.0,0.0,0.0,0.0,0.0,5.6899,5.7156,5.7188,5.7188,5.7188,5.7289,5.7406,5.7406,5.7388,5.7486,5.7774,5.7839,5.8006,5.8545,5.8628,5.8688,5.8788,5.8887,5.9005,5.8988,5.9397,5.9777,5.9855,6.0131,6.034,6.034,6.0616,6.08,6.08,6.08,6.08,6.08,6.08,6.08,6.08,6.08,6.08,6.08,6.08,6.08,6.08,6.08,6.0757,6.0685,6.0777,6.08,6.08,6.08,6.08,6.08,6.08,6.08,6.08,6.08,6.0839,6.0973,6.1863,6.338,6.5231,6.6374,6.6795,6.682,0.0,0.0,0.0,0.0,0.0,0.0,0.0,0.0,0.0,0.0,0.0,0.0,0.0,0.0,0.0,0.0,0.0,0.0,0.0,4.3628,4.3628,4.3628,4.4042,4.4351,4.4514,4.466,4.5391,4.6758,4.768,4.8663,4.9639,4.9161,4.9239,4.9698,4.989,5.0137,5.0363,5.008,5.0137,5.0436,5.0436,5.062,0.0,0.0,0.0,0.0,0.0,0.0,0.0,0.0,5.3397,5.3865,5.5535,5.642,5.6794,5.6899,5.7054,5.7188,5.7188,5.7307,5.7388,5.7388,5.7388,5.7486,5.7745,5.7792,5.7886,5.8186,5.8231,5.8275,5.8406,5.8577,5.8766,5.8968,5.9215,5.9486,5.9758,6.0072,6.0293,6.0293,6.0616,6.08,6.08,6.08,6.08,6.08,6.08,6.08,6.08,6.08,6.08,6.08,6.08,6.08,6.08,6.08,6.08,6.0757,6.08,6.08,6.08,6.08,6.08,6.08,6.08,6.08,6.08,6.08,6.08,6.0958,6.2444,6.3882,6.5217,6.6293,6.672,6.6815,0.0,0.0,0.0,0.0,0.0,0.0,0.0,0.0,0.0,0.0,0.0,0.0,0.0,0.0,0.0,0.0,0.0,0.0,4.3628,4.3628,4.3727,4.3943,4.4423,4.4903,4.5367,4.5384,4.5881,4.6891,4.7636,4.8403,4.9178,4.8827,4.8934,4.9402,4.958,4.9815,5.0102,4.9948,4.9948,5.0102,5.0289,5.0564,0.0,0.0,0.0,0.0,0.0,0.0,0.0,0.0,5.35,5.4073,5.5437,5.6182,5.6564,5.6742,5.6951,5.7087,5.7206,5.7257,5.7356,5.7406,5.7388,5.7486,5.7745,5.7745,5.7792,5.795,5.7997,5.8042,5.8197,5.8356,5.8553,5.8887,5.8968,5.9121,5.9416,5.9855,6.0131,6.0131,6.0546,6.08,6.08,6.08,6.08,6.08,6.08,6.08,6.08,6.08,6.08,6.08,6.08,6.08,6.08,6.08,6.08,6.08,6.08,6.08,6.08,6.08,6.08,6.08,6.08,6.08,6.08,6.08,6.08,6.0958,6.2568,6.3783,6.4749,6.5801,6.6419,6.6739,0.0,0.0,0.0,0.0,0.0,0.0,0.0,0.0,0.0,0.0,0.0,0.0,0.0,0.0,0.0,0.0,0.0,0.0,4.3628,4.3628,4.3943,4.4655,4.4688,4.5384,4.6874,4.6908,4.6908,4.6908,4.7636,4.8227,4.8702,4.8702,4.8934,4.9402,4.9873,5.0102,5.0119,5.0637,5.0564,5.0119,5.0692,5.0891,5.0891,0.0,0.0,0.0,0.0,0.0,0.0,0.0,5.3682,5.4494,5.5557,5.5918,5.6032,5.6635,5.6794,5.6847,5.7138,5.7188,5.7239,5.7356,5.7388,5.7486,5.7745,5.7697,5.7697,5.795,5.7997,5.8042,5.8197,5.8305,5.8418,5.8468,5.8614,5.8716,5.8716,5.9307,5.9791,5.9791,6.0395,6.08,6.08,6.08,6.08,6.08,6.08,6.08,6.08,6.08,6.08,6.08,6.08,6.08,6.08,6.08,6.08,6.08,6.08,6.08,6.08,6.08,6.08,6.08,6.08,6.08,6.08,6.08,6.08,6.09,6.1911,6.2839,6.3727,6.4881,6.5853,6.6613,0.0,0.0,0.0,0.0,0.0,0.0,0.0,0.0,0.0,0.0,0.0,0.0,0.0,0.0,0.0,0.0,0.0,0.0,4.3628,4.3628,4.3943,4.4655,4.5185,4.5914,4.6874,4.7404,4.7847,4.8149,4.8063,4.8227,4.8702,4.8356,4.8467,4.8889,4.8702,4.8827,4.9118,4.9316,4.9479,4.9639,5.0119,5.0564,5.0891,0.0,0.0,0.0,0.0,0.0,0.0,0.0,0.0,0.0,5.5361,5.5764,5.5918,5.6126,5.6474,5.6794,5.6899,5.7156,5.7356,5.7289,5.7388,5.7553,5.7649,5.7697,5.7792,5.795,5.7997,5.7997,5.8042,5.826,5.8393,5.8437,5.859,5.8716,5.8716,5.9307,5.9791,5.9791,6.0395,6.08,6.08,6.08,6.08,6.08,6.08,6.08,6.08,6.08,6.08,6.08,6.08,6.08,6.08,6.08,6.08,6.08,6.08,6.08,6.08,6.08,6.08,6.08,6.08,6.08,6.08,6.08,6.08,6.0877,6.1797,6.2371,6.2896,6.4547,6.5386,6.581,0.0,0.0,0.0,0.0,0.0,0.0,0.0,0.0,0.0,0.0,4.3628,4.3628,0.0,0.0,0.0,0.0,0.0,0.0,4.3628,4.3893,4.4373,4.5086,4.5831,4.6576,4.7322,4.7769,4.8115,4.842,4.8115,4.8115,4.842,4.8292,4.853,4.8951,4.8702,4.8702,4.8995,4.9178,4.9282,4.9462,4.993,5.0436,5.0891,0.0,0.0,0.0,0.0,0.0,0.0,0.0,0.0,0.0,5.5367,5.5607,5.5764,5.6049,5.6365,5.6707,5.6899,5.7156,5.7289,5.7307,5.7388,5.7553,5.7649,5.7792,5.7886,5.7997,5.7997,5.7997,5.8042,5.826,5.8393,5.8418,5.859,5.8716,5.8716,5.9307,5.9791,5.9791,6.0395,6.08,6.08,6.08,6.08,6.08,6.08,6.08,6.08,6.08,6.08,6.08,6.08,6.08,6.08,6.08,6.08,6.08,6.08,6.08,6.08,6.08,6.08,6.08,6.08,6.08,6.08,6.08,6.08,6.0839,6.1377,6.1835,6.2412,6.3973,6.4844,6.5375,0.0,0.0,0.0,0.0,0.0,0.0,0.0,0.0,0.0,0.0,4.3628,4.3628,0.0,0.0,0.0,0.0,0.0,0.0,0.0,4.4291,4.5019,4.5765,4.656,4.7305,4.7984,4.8001,4.8001,4.8001,4.8001,4.8001,4.8001,4.842,4.8889,4.9282,4.9282,4.9282,4.9282,4.9815,4.9756,4.9419,4.9948,5.0436,5.0764,5.0363,0.0,0.0,0.0,0.0,0.0,0.0,0.0,0.0,5.5507,5.5507,5.5625,5.6179,5.6346,5.6492,5.6984,5.7138,5.7257,5.7338,5.7388,5.7486,5.7745,5.7886,5.7997,5.7997,5.7997,5.8042,5.8152,5.8286,5.8375,5.8468,5.8614,5.8656,5.8656,5.9326,5.9791,5.9791,6.0395,6.08,6.08,6.08,6.08,6.08,6.08,6.08,6.08,6.08,6.08,6.08,6.08,6.08,6.08,6.08,6.08,6.08,6.08,6.08,6.08,6.08,6.08,6.08,6.08,6.08,6.08,6.08,6.08,6.08,6.08,6.1281,6.2117,6.3187,6.4186,6.5125,0.0,0.0,0.0,0.0,0.0,0.0,0.0,0.0,0.0,0.0,0.0,0.0,0.0,0.0,0.0,0.0,0.0,0.0,0.0,4.4291,4.5019,4.5765,4.7057,4.7835,4.8001,4.8001,4.8001,4.8001,4.8001,4.8001,4.8001,4.8115,4.8179,4.8292,4.8292,4.8292,4.8356,4.9178,4.9282,4.8934,5.0211,5.0564,5.0307,5.062,5.1132,0.0,0.0,0.0,0.0,0.0,0.0,0.0,5.5507,5.5507,5.5507,5.5683,5.6011,5.6455,5.6546,5.6899,5.7206,5.7257,5.7338,5.7486,5.7745,5.7839,5.7886,5.7997,5.7997,5.7997,5.8042,5.8152,5.8242,5.8268,5.8443,5.8553,5.8553,5.9271,5.9791,5.9791,6.0395,6.08,6.08,6.08,6.08,6.08,6.08,6.08,6.08,6.08,6.08,6.08,6.08,6.08,6.08,6.08,6.08,6.08,6.08,6.08,6.08,6.08,6.08,6.08,6.08,6.08,6.08,6.08,6.08,6.08,6.08,6.0916,6.1212,6.2278,6.3284,6.4232,0.0,0.0,0.0,0.0,0.0,0.0,0.0,0.0,0.0,0.0,0.0,0.0,0.0,0.0,0.0,0.0,0.0,0.0,0.0,0.0,4.5698,4.6808,4.7587,4.8001,4.8001,4.8001,4.8001,4.8001,4.8001,4.8001,4.8001,4.8467,4.853,4.8356,4.8593,4.8639,4.8702,4.8934,4.9161,4.9402,4.9965,5.0324,5.0492,5.0509,5.1147,5.2067,5.2435,0.0,0.0,0.0,0.0,0.0,0.0,0.0,5.5507,5.5666,5.5936,5.6199,5.6492,5.6794,5.7054,5.7156,5.7289,5.7455,5.7601,5.7697,5.7792,5.7904,5.795,5.7997,5.7997,5.8106,5.8197,5.8197,5.8312,5.8443,5.8511,5.9045,5.9556,5.9758,6.0265,6.0641,6.0781,6.08,6.08,6.08,6.08,6.08,6.08,6.08,6.08,6.08,6.08,6.08,6.08,6.08,6.08,6.08,6.08,6.08,6.08,6.08,6.08,6.08,6.08,6.08,6.08,6.08,6.08,6.08,6.08,6.08,6.092,6.1928,6.2683,6.3438,0.0,0.0,0.0,0.0,0.0,0.0,0.0,0.0,0.0,0.0,0.0,0.0,0.0,0.0,0.0,0.0,0.0,0.0,0.0,0.0,0.0,4.7934,4.8001,4.8001,4.8001,4.8001,4.8066,4.8115,4.8066,4.8066,4.8244,4.8872,4.8934,4.8593,4.8995,4.9178,4.9118,4.8951,4.9222,4.9873,4.9698,5.008,5.0764,5.0519,5.1154,5.2312,5.3102,5.3857,5.4612,5.5297,0.0,0.0,0.0,0.0,5.5566,5.5764,5.5861,5.6032,5.6528,5.6742,5.6847,5.7138,5.7289,5.7388,5.7388,5.7601,5.7745,5.7792,5.7904,5.7997,5.7997,5.8088,5.8152,5.8152,5.8305,5.8375,5.8425,5.8828,5.9271,5.9725,6.0072,6.0422,6.0777,6.08,6.08,6.08,6.08,6.08,6.08,6.08,6.08,6.08,6.08,6.08,6.08,6.08,6.08,6.08,6.08,6.08,6.08,6.08,6.08,6.08,6.08,6.08,6.08,6.08,6.08,6.08,6.08,6.08,6.09,6.1687,6.2253,6.2819,0.0,0.0,0.0,0.0,0.0,0.0,0.0,0.0,0.0,0.0,4.3628,4.3628,0.0,0.0,0.0,0.0,0.0,0.0,0.0,0.0,0.0,4.7968,4.8001,4.8001,4.8001,4.8001,4.8179,4.8593,4.8179,4.842,4.9178,4.853,4.8179,4.8131,4.8179,4.8179,4.8244,4.8995,4.9118,4.8995,5.0211,5.0509,5.0302,5.1354,5.2274,5.312,5.3892,5.4665,5.5367,5.5472,5.5507,0.0,0.0,0.0,5.5507,5.5566,5.5706,5.5918,5.6032,5.6402,5.6847,5.7138,5.7188,5.7257,5.7388,5.7455,5.7504,5.7745,5.7904,5.7997,5.7997,5.7997,5.8042,5.8042,5.8152,5.8242,5.8242,5.8725,5.9215,5.9568,6.0023,6.0422,6.0777,6.08,6.08,6.08,6.08,6.08,6.08,6.08,6.08,6.08,6.08,6.08,6.08,6.08,6.08,6.08,6.08,6.08,6.08,6.08,6.08,6.08,6.08,6.08,6.08,6.08,6.08,6.08,6.08,6.08,6.0843,6.107,6.1771,6.2626,0.0,0.0,0.0,0.0,0.0,0.0,0.0,0.0,0.0,0.0,0.0,4.3628,0.0,0.0,0.0,0.0,0.0,0.0,0.0,0.0,0.0,4.7984,4.8001,4.8001,4.8001,4.8001,4.8115,4.8292,4.8115,4.8356,4.8995,4.8292,4.8115,4.842,4.842,4.842,4.842,4.881,4.9178,4.9521,4.989,5.008,5.0189,5.1233,5.1941,5.2468,5.3512,5.4356,5.5035,5.5035,5.5252,5.5507,5.5507,0.0,0.0,0.0,5.5549,5.5764,5.6106,5.6474,5.6847,5.7138,5.7188,5.7206,5.7289,5.7356,5.7437,5.7553,5.7745,5.7904,5.7997,5.7997,5.7997,5.7997,5.8042,5.8088,5.8197,5.8425,5.8788,5.9252,5.9687,6.0082,6.0475,6.069,6.08,6.08,6.08,6.08,6.08,6.08,6.08,6.08,6.08,6.08,6.08,6.08,6.08,6.08,6.08,6.08,6.08,6.08,6.08,6.08,6.08,6.08,6.08,6.08,6.08,6.08,6.08,6.0823,6.0869,6.0955,6.1364,6.1949,0.0,0.0,0.0,0.0,0.0,0.0,0.0,0.0,0.0,0.0,0.0,0.0,0.0,0.0,0.0,0.0,0.0,0.0,0.0,0.0,0.0,4.8001,4.8001,4.8001,4.8001,4.8001,4.8066,4.8179,4.8066,4.8292,4.8889,4.8308,4.8227,4.8702,4.8593,4.8593,4.8702,4.8576,4.9118,4.9873,4.9462,4.9504,5.0034,5.1018,5.1502,5.1856,5.3156,5.4067,5.471,5.471,5.5053,5.5507,5.5507,5.5507,0.0,0.0,0.0,5.5625,5.6106,5.642,5.6689,5.6984,5.7105,5.7105,5.7188,5.7307,5.7338,0.0,5.7601,5.7792,5.7932,5.7997,5.7997,5.7997,5.7997,5.8042,5.8152,5.8197,5.8425,5.8928,5.9251,5.9635,6.0218,6.0475,6.0666,6.08,6.08,6.08,6.08,6.08,6.08,6.08,6.08,6.08,6.08,6.08,6.08,6.08,6.08,6.08,6.08,6.08,6.08,6.08,6.08,6.08,6.08,6.08,6.08,6.08,6.0823,6.0846,6.0911,6.0997,6.1134,6.1408,0.0,0.0,0.0,0.0,0.0,0.0,0.0,0.0,0.0,0.0,0.0,0.0,4.3628,4.3628,4.3893,4.4572,4.5301,4.6361,4.7852,4.7984,4.8001,4.8001,4.8001,0.0,4.8001,4.8001,4.8244,4.8639,4.8244,4.8467,4.9342,4.842,4.8227,4.8702,4.8227,4.8292,4.8702,4.837,4.8668,4.9402,4.9084,4.9144,4.9633,5.1121,5.1702,5.1862,5.3331,5.42,5.471,5.471,5.5053,5.5507,5.5507,5.5507,5.5507,0.0,0.0,0.0,5.5861,5.5918,5.607,5.6671,5.6794,5.6899,5.7138,5.7206,5.7257,5.7388,5.7486,5.7649,5.7792,5.7886,5.7997,5.7997,5.7997,5.7997,5.7997,5.8106,5.8319,5.8673,5.8833,5.9232,6.0025,6.0132,6.0311,6.0757,6.08,6.08,6.08,6.08,6.08,6.08,6.08,6.08,6.08,6.08,6.08,6.08,6.08,6.08,6.08,6.08,6.08,6.08,6.08,6.08,6.08,6.08,6.08,6.08,6.0869,6.0911,6.0914,6.0981,6.1116,6.133,0.0,0.0,0.0,0.0,0.0,0.0,0.0,0.0,0.0,0.0,0.0,0.0,0.0,4.4026,4.4406,4.4671,4.5798,4.6924,4.7934,4.8001,4.8001,4.8001,4.8001,4.8001,4.8001,4.8001,4.8066,4.8227,4.8066,4.8356,4.8934,4.8292,4.8227,4.8702,4.8244,4.8244,4.853,4.8322,4.8623,4.9239,4.8668,4.8765,4.9365,5.0438,5.0928,5.1208,5.252,5.3281,5.3715,5.4042,5.4568,5.5053,5.5371,5.5507,5.5507,5.5507,5.5507,5.5566,5.5804,5.5918,5.6032,5.6437,5.6689,5.6847,5.6899,5.7105,5.7188,5.7239,5.7388,5.7504,5.7534,5.7792,5.7997,5.7997,5.7997,5.7997,5.7997,5.8042,5.816,5.8344,5.8628,5.9008,5.9668,5.9924,6.0227,6.071,6.0753,6.0734,6.08,6.08,6.08,6.08,6.08,6.08,6.08,6.08,6.08,6.08,6.08,6.08,6.08,6.08,6.08,6.08,6.08,6.08,6.08,6.08,6.0823,6.0869,6.0891,6.0935,6.096,6.0982,6.1157,6.1369,0.0,0.0,0.0,0.0,0.0,0.0,0.0,0.0,4.3628,4.3628,0.0,0.0,0.0,0.0,4.4887,4.5384,4.656,4.7487,4.7968,4.8001,4.8001,4.8001,4.8001,4.8001,4.8001,4.7769,4.7752,4.8001,4.7752,4.793,4.8467,4.8115,4.8179,4.8483,4.7968,4.8033,4.8339,4.7787,4.8096,4.8827,4.8183,4.8314,4.906,5.0224,5.0575,5.0707,5.1938,5.254,5.2803,5.3281,5.3764,5.4362,5.5035,5.5371,5.5507,5.5507,5.5507,5.5566,5.5706,5.5764,5.5822,5.6162,5.6365,5.6564,5.6742,5.6951,5.7087,5.7188,5.7307,5.7388,5.7388,5.7649,5.7904,5.795,5.7997,5.7997,5.7997,5.7997,5.8042,5.8133,5.8326,5.8691,5.9178,5.9427,5.9792,6.0403,6.0475,0.0,6.0777,6.08,6.08,6.08,6.08,6.08,6.08,6.08,6.08,6.08,6.08,6.08,6.08,6.08,6.08,6.08,6.08,6.08,6.08,6.0823,6.0846,6.0891,6.0916,6.096,6.1002,6.1022,6.1176,6.1366,0.0,0.0,0.0,0.0,0.0,0.0,0.0,0.0,4.3568,4.3568,0.0,0.0,0.0,0.0,0.0,4.6808,4.7587,4.8001,4.8001,4.8001,4.8001,4.8001,4.8001,4.8001,4.8001,4.7305,4.7272,4.8001,4.7272,4.7305,4.8001,4.8001,4.8001,4.8001,4.7555,4.7655,4.8048,4.6828,4.705,4.8148,4.7599,4.7852,4.8695,5.0459,5.0736,5.0285,5.1773,5.2131,5.1993,5.2366,5.2838,5.3448,5.4425,5.5113,5.5507,5.5507,5.5507,5.5507,0.0,0.0,0.0,5.5804,5.5901,5.6088,5.6635,0.0,5.6899,5.7138,5.7289,5.7388,5.7388,5.7486,5.7649,5.7745,5.7886,5.7997,5.7997,5.7997,5.7997,5.7997,5.7997,5.8168,5.8673,5.8694,5.9065,5.9924,6.0074,6.0283,6.0685,6.0757,6.08,6.08,6.08,6.08,6.08,6.08,6.08,6.08,6.08,6.08,6.08,6.08,6.08,6.08,6.08,6.08,6.08,6.0869,6.0891,6.0914,6.0962,6.1002,6.1022,6.108,6.1176,6.129,0.0,0.0,0.0,0.0,0.0,4.2851,4.271,4.2772,4.2912,0.0,0.0,0.0,4.3646,4.5266,4.6659,4.7603,4.7885,4.8001,4.8001,4.8001,4.8001,4.8001,4.8001,4.8001,4.8001,4.7802,4.7802,4.8001,4.7802,4.7802,4.8001,4.8001,4.8001,4.8001,4.7302,4.715,4.7202,4.6566,4.705,4.8294,4.7652,4.8159,4.9344,5.0083,5.039,5.0482,5.1187,5.1565,5.1875,5.2329,5.3061,5.3895,5.4974,5.5371,5.5507,5.5507,5.5507,5.5507,5.5507,0.0,0.0,0.0,0.0,0.0,5.6437,0.0,5.6899,5.7138,5.7257,5.7257,5.7257,5.7338,5.7455,5.7486,5.7697,5.7857,5.7857,5.795,5.7997,5.7997,5.7997,5.8186,5.8586,5.8609,5.8989,0.0,5.9943,6.0189,6.0685,6.0757,6.08,6.08,6.08,6.08,6.08,6.08,6.08,6.08,6.08,6.08,6.08,6.08,6.08,6.08,6.08,6.08,6.08,6.0869,6.0916,6.0962,6.1002,6.1022,6.108,6.1099,6.1176,6.1311,0.0,0.0,0.0,4.219,4.2317,4.238,4.2126,4.2317,4.2506,0.0,0.0,0.0,4.3701,4.5161,4.6486,4.7439,4.7521,4.7521,4.7521,4.7638,4.777,4.777,4.7919,4.8001,4.8001,4.7703,4.7686,4.8001,4.7686,4.7621,4.777,4.7919,4.7869,4.7504,4.7098,4.6807,4.6598,4.655,4.7045,4.7945,4.7709,4.8376,4.9549,5.0273,5.0402,5.0292,5.0892,5.1343,5.1639,5.168,5.2561,5.3813,5.4568,5.5113,5.5507,5.5507,5.5507,5.5507,5.5507,5.5507,5.5507,5.5507,0.0,0.0,5.629,5.6492,5.6742,0.0,5.7188,5.7188,5.7188,5.7239,5.7307,5.7307,5.7486,5.7649,5.7697,5.7839,5.7904,5.7904,5.795,5.8115,5.8344,5.8521,5.8891,5.9553,5.9804,6.0131,6.0685,6.0753,6.0777,6.08,6.08,6.08,6.08,6.08,6.08,6.08,6.08,6.08,6.08,6.08,6.08,6.08,6.08,6.0823,6.0846,6.0891,6.0957,6.1001,6.1041,6.108,6.1099,6.1099,6.1157,6.1215,0.0,0.0,4.1722,4.1656,4.1852,4.1917,4.1656,4.1917,4.219,0.0,4.1604,4.1836,4.367,4.4601,4.5597,4.6673,4.6876,4.6876,4.6876,4.7218,4.7337,4.7337,4.7704,4.7869,4.7869,4.7225,4.7209,4.7869,4.7209,4.7062,4.7337,4.7704,4.7521,4.6876,4.6876,4.6652,4.6333,4.6634,4.7072,4.7524,4.787,4.8644,4.9617,5.0666,5.0586,4.9995,5.0739,5.1086,5.1187,5.0859,5.1776,5.3247,5.383,5.4568,5.5312,5.5448,5.5448,5.5448,5.5507,5.5507,5.5507,5.5507,5.5507,0.0,5.6235,5.6328,5.6492,0.0,5.7087,5.7087,5.7087,5.7156,5.7156,5.7156,5.7289,5.7437,5.7553,5.7697,5.7792,5.7792,5.7904,5.7997,5.7997,5.8326,5.871,5.9178,5.9673,6.016,6.066,6.0685,6.0729,6.08,6.08,6.08,6.08,6.08,6.08,6.08,6.08,6.08,6.08,6.08,6.08,6.08,6.08,6.0823,6.0891,6.0976,6.0997,6.1018,6.108,6.1099,6.1099,6.1099,6.1099,6.1099,0.0,4.1115,4.0982,4.0758,4.05,4.0432,4.0622,4.0894,4.0894,4.05,4.1666,4.2856,4.3834,4.5473,4.6437,4.6214,4.6582,4.6876,4.6876,4.6945,4.7014,4.7014,4.7082,4.7098,4.7098,4.6952,4.6952,4.7098,4.6952,4.6952,4.7014,4.7098,4.703,4.6892,4.6582,4.6356,4.6333,4.6634,4.7225,4.7826,4.843,4.9187,4.9883,5.0384,5.0292,4.9995,5.0432,5.0663,5.0783,5.1793,5.2137,5.2474,5.4008,5.4154,5.3926,5.5174,5.5174,5.4974,5.5371,5.5507,5.5507,5.5507,5.5507,0.0,5.5918,5.5975,5.6088,0.0,5.6546,5.6546,5.6546,5.6742,5.6899,5.6899,5.7105,5.7307,5.7388,5.7534,5.7697,5.7792,5.7839,5.7904,5.7997,5.807,5.8412,5.914,5.9918,6.0425,6.0525,6.0635,6.0729,6.071,6.0777,6.08,6.08,6.08,6.08,6.08,6.08,6.08,6.08,6.08,6.08,6.08,6.08,6.08,6.0823,6.0955,6.0999,6.1021,6.108,6.1099,6.1099,6.1099,6.1099,6.1099,4.0401,4.0193,3.9929,3.9748,3.9748,3.9748,3.9763,3.9945,4.0191,4.036,4.1882,4.3051,4.3417,4.4893,4.5857,4.5905,4.6207,4.6349,4.6349,4.6528,4.6582,4.6582,4.6807,4.6876,4.6876,4.6876,4.6876,4.6876,4.6876,4.6807,4.6582,4.6807,4.6684,4.6349,4.6301,4.6422,4.6589,4.7114,4.7751,4.8415,4.8746,4.9455,5.0214,5.0214,5.0214,5.0214,5.0214,5.0214,5.0432,5.172,5.2262,5.2527,5.3647,5.4008,5.4218,5.5174,5.5113,5.4852,5.5371,5.5507,5.5507,5.5507,5.5507,0.0,0.0,5.5918,5.5975,5.6328,5.6401,5.6401,5.6401,5.66,5.6794,5.6794,5.7054,5.7239,5.7289,5.7406,5.7553,5.7601,5.7697,5.7839,5.7886,5.8326,5.893,5.9725,6.0188,6.0472,6.0499,6.0559,6.061,6.0685,6.0734,6.0777,6.08,6.08,6.08,6.08,6.08,6.08,6.08,6.08,6.08,6.08,6.08,6.08,6.0823,6.0955,6.0999,6.1,6.1061,6.1099,6.1099,6.1099,6.1099,6.1099,3.9478,3.9205,3.8943,3.9104,3.9205,3.9247,3.909,3.9454,4.0001,4.0991,4.2182,4.291,4.2954,4.4202,4.5157,4.5557,4.5735,4.5807,4.5807,4.6048,4.623,4.623,4.6528,4.6684,4.6684,4.6684,4.6684,4.6684,4.6684,4.6528,4.623,4.6545,4.6349,4.5807,4.612,4.6414,4.685,4.7593,4.8288,4.8904,4.9031,4.9644,5.0448,5.0073,5.0152,5.0448,5.0073,4.9995,5.0276,5.1484,5.2191,5.2667,5.3365,5.3878,5.4425,5.5252,5.5053,5.471,5.5312,5.5507,5.5507,5.5507,5.5507,5.5566,0.0,0.0,0.0,5.6179,5.6235,5.6235,5.6235,0.0,0.0,5.6635,0.0,0.0,0.0,5.7239,0.0,5.7406,5.7601,5.7745,5.7792,5.8586,5.9397,6.0129,6.0237,6.0342,6.0472,6.0499,6.0552,6.068,6.0685,6.0734,6.08,6.08,6.08,6.08,6.08,6.08,6.08,6.08,6.08,6.08,6.08,6.08,6.0823,6.0955,6.0997,6.0997,6.108,6.1099,6.1099,6.1099,6.1099,6.1099,3.8412,3.8352,3.8501,3.9031,3.8723,3.8501,3.9017,3.9565,4.0427,4.1629,4.2453,4.3,4.2976,4.4586,4.5484,4.4977,4.5484,4.5807,4.5807,4.5807,4.588,4.588,4.588,4.5952,4.5952,4.5952,4.5952,4.5952,4.5952,4.588,4.588,4.588,4.588,4.5807,4.5807,4.6171,4.685,4.7593,4.8288,4.8936,4.9552,5.0073,5.0448,5.0073,5.0152,5.0448,5.0073,5.037,5.1027,5.172,5.1921,5.2262,5.4008,5.3747,5.3129,5.4974,5.4772,5.4235,5.5252,5.5507,5.5507,5.5507,5.5507,5.5507,5.5566,0.0,5.5566,5.5566,0.0,5.5625,5.5625,0.0,0.0,5.6014,0.0,0.0,5.6847,5.7036,5.7257,5.7406,5.7455,5.7553,5.7792,5.8307,5.8852,5.9306,5.9658,6.0019,6.0389,6.0472,6.0525,6.0604,6.068,6.0734,6.08,6.08,6.08,6.08,6.08,6.08,6.08,6.08,6.08,6.08,6.08,6.08,6.0823,6.0955,6.0997,6.0997,6.108,6.1099,6.1099,6.1099,6.1099,6.1118,3.8202,3.8202,3.8277,3.8501,3.8352,3.8408,3.9028,4.0011,4.0847,4.1404,4.2656,4.3391,4.3031,4.4723,4.5557,4.4902,4.5395,4.5807,4.5807,4.5484,4.5395,4.5807,4.5395,4.5395,4.5807,4.5807,4.5807,4.5807,4.5807,4.5807,4.5807,4.5807,4.5807,4.5807,4.5807,4.6171,4.685,4.7593,4.8425,4.9321,4.971,5.0292,5.0816,5.037,5.0525,5.0816,5.0663,5.0816,5.1102,5.1385,5.1993,5.2822,5.3264,5.3615,5.3943,5.4772,5.471,5.4506,5.5312,5.5096,5.4817,5.5371,5.5096,5.4817,5.5371,5.5507,5.5507,5.5507,0.0,0.0,0.0,0.0,0.0,0.0,5.6255,5.6653,0.0,0.0,5.7054,0.0,0.0,0.0,5.8086,5.8375,5.8793,5.9502,5.9725,5.9988,6.0389,6.0417,6.0472,6.0552,6.0604,6.066,6.0734,6.0777,6.08,6.08,6.08,6.08,6.08,6.08,6.08,6.08,6.08,6.08,6.0823,6.0955,6.0997,6.0997,6.108,6.1099,6.1099,6.1099,6.1157,6.1215,3.8202,3.8202,3.826,3.8449,3.8478,3.8754,3.9596,4.051,4.1163,4.1352,4.2857,4.3693,4.3076,4.4723,4.5557,4.4902,4.5395,4.5807,4.5807,4.5305,4.5305,4.5807,4.5305,4.5305,4.5807,4.5807,4.5807,4.5807,4.5807,4.5807,4.5807,4.5807,4.5807,4.5823,4.5997,4.6455,4.715,4.7861,4.8694,4.9668,4.9789,5.0292,5.0892,5.0739,5.0816,5.1118,5.1118,5.1194,5.1268,5.1475,5.2295,0.0,5.2855,5.3415,5.4252,5.4299,5.4299,5.4379,5.5113,5.4755,5.4471,5.5294,5.5018,5.4676,5.5371,5.5507,5.5507,5.5507,5.5507,0.0,0.0,0.0,5.5804,5.5804,0.0,5.6328,5.6528,5.6635,0.0,0.0,0.0,0.0,0.0,5.8139,5.8591,5.9518,0.0,5.9823,6.0389,6.0389,6.0417,6.0499,6.0552,6.0629,6.0685,6.0753,6.0777,6.08,6.08,6.08,6.08,6.08,6.08,6.08,6.08,6.08,6.08,6.0933,6.0995,6.1036,6.1099,6.1157,6.1176,6.1157,6.1234,6.1331,3.8202,3.8202,3.8405,3.9059,3.9175,3.9596,4.0844,4.1076,4.1323,4.1976,4.3155,4.3693,4.3076,4.4723,4.5557,4.4902,4.5395,4.5807,4.5807,4.5807,4.5807,4.5807,4.5807,4.5807,4.5807,4.5807,4.5807,4.5807,4.5807,4.5807,4.5807,4.5807,4.5807,4.5839,4.6487,4.7182,4.7909,4.8573,4.9252,4.9884,4.9916,5.0152,5.0586,5.0968,5.1118,5.1118,5.1118,0.0,0.0,5.2329,5.2733,0.0,0.0,0.0,5.3179,5.3331,5.3281,5.3382,5.4443,5.471,5.4834,5.5371,5.5448,5.5448,5.5507,5.5507,5.5507,5.5507,5.5507,5.5507,5.5507,5.5507,5.5507,5.5507,5.5764,0.0,0.0,5.6217,5.66,5.7156,5.7289,0.0,0.0,5.7534,5.8023,0.0,5.9008,5.943,6.0342,6.0389,6.0417,6.0499,6.0499,6.0578,6.0685,6.0685,6.0753,6.08,6.08,6.08,6.08,6.08,6.08,6.08,6.08,6.08,6.08,6.0869,6.0991,6.109,6.1174,6.1273,6.1369,6.1311,6.1331,6.1408,3.8202,3.8565,3.8928,3.916,3.9523,4.0089,4.096,4.1843,4.2423,4.2659,4.3756,4.4297,4.3693,4.4933,4.5557,4.4902,4.5395,4.5807,4.5807,4.5395,4.5321,4.5807,4.5395,4.5321,4.5807,4.5807,4.5557,4.5142,4.5557,4.5557,4.5142,4.5573,4.5807,4.5839,4.6503,4.6945,4.7245,4.8399,4.917,4.9639,5.0101,5.037,5.0509,0.0,5.1118,5.1118,5.1118,5.1359,0.0,5.1964,5.2503,5.3043,5.28,5.3128,5.3566,5.3298,5.3365,0.0,0.0,0.0,5.3943,5.4772,0.0,0.0,5.5371,5.5507,5.5507,5.5507,5.5507,5.5349,5.4805,5.4717,5.4559,5.405,5.4077,5.4349,0.0,5.5897,5.6546,5.6899,5.7138,5.7289,0.0,0.0,0.0,0.0,5.895,0.0,5.9988,6.0256,6.0417,6.0444,6.0472,6.0552,6.0629,6.068,6.0734,6.08,6.08,6.08,6.08,6.08,6.08,6.08,6.08,6.08,6.08,6.0933,6.0995,6.1055,6.1195,6.1317,6.1389,6.1369,6.1438,6.1539,3.8507,3.9088,3.9523,3.9523,4.0234,4.096,4.1381,4.2342,4.2981,4.2981,4.4051,4.4586,4.4004,4.5024,4.5557,4.4902,4.5395,4.5807,4.5807,4.5395,4.5321,4.5807,4.5395,4.5395,4.5807,4.5807,4.5573,4.5157,4.5573,4.5557,4.5157,4.5573,4.5807,4.5855,4.6771,4.7056,4.6913,4.8557,4.9265,4.9321,5.0006,5.0292,5.0292,0.0,5.0739,5.0892,0.0,5.145,5.1614,5.1924,5.2412,5.28,5.2357,5.2747,5.3264,5.2784,5.2991,5.3399,5.3583,5.3566,0.0,5.4506,5.4631,0.0,5.5371,0.0,5.5507,5.5431,5.5203,5.4998,5.4694,5.4203,5.384,5.3612,5.3348,5.3461,0.0,5.5145,5.59,5.6205,5.6719,5.7156,5.7289,0.0,0.0,0.0,0.0,0.0,0.0,6.0159,6.0389,6.0389,6.0444,6.0499,6.0552,6.0629,6.0704,6.0757,6.08,6.08,6.08,6.08,6.08,6.08,6.08,6.0823,6.0846,6.0933,6.0995,6.1076,6.1215,6.1339,6.1467,6.1467,6.1537,6.1634,3.9073,3.9712,4.0162,4.0191,4.125,4.2092,4.2092,4.2622,4.3061,4.3061,4.4128,4.4601,4.4082,4.5098,4.5557,4.4902,4.5395,4.5807,4.5807,4.5807,4.5807,4.5807,4.5807,4.5807,4.5807,4.5807,4.5735,4.5735,4.5735,4.5735,4.5735,4.5735,4.5807,4.5871,4.7277,4.7482,4.6945,4.9031,4.9536,4.8999,4.9647,4.9916,4.9916,4.9916,5.0152,5.0602,5.1466,5.145,5.1194,5.2069,5.2373,5.2302,5.1924,5.2086,5.2373,5.1997,5.2158,5.2499,5.2991,5.3499,5.4042,5.4506,5.5113,0.0,0.0,0.0,5.5448,5.5259,5.4723,5.4449,5.5014,5.4063,5.3348,5.4033,5.3559,5.312,5.312,5.407,5.4825,5.5116,5.608,5.6845,5.7188,5.7206,0.0,0.0,0.0,5.9047,0.0,6.0129,6.0389,6.0389,6.0389,6.0417,6.0499,6.0578,6.0629,6.0685,6.0777,6.08,6.08,6.08,6.08,6.08,6.08,6.0846,6.0911,6.0891,6.1015,6.1194,6.1194,6.137,6.1617,6.1617,6.1656,6.1699,3.9073,4.0089,4.1004,4.1497,4.186,4.2092,4.2092,4.301,4.3693,4.3693,4.4783,4.5484,4.5336,4.5573,4.5735,4.5573,4.5719,4.5807,4.5807,4.5807,4.5807,4.5807,4.5807,4.5807,4.5807,4.5807,4.5336,4.4404,4.5336,4.5336,4.4389,4.5352,4.5807,4.5871,4.7277,4.7482,4.6945,4.9031,4.9821,4.9679,4.9852,4.9916,4.9916,0.0,5.0152,5.0525,5.0755,5.0984,5.1194,5.1762,5.2158,5.2373,5.2302,5.2553,5.2922,5.2784,5.2853,5.2922,5.3043,5.3499,5.3912,5.4042,5.479,5.5507,0.0,0.0,0.0,0.0,0.0,0.0,0.0,5.2962,5.219,5.1821,5.2067,5.2312,5.2312,5.3036,5.379,5.4242,5.5097,5.6025,5.7083,5.7289,5.7437,0.0,0.0,0.0,5.9159,0.0,0.0,6.0389,6.0389,6.0417,6.0499,6.0578,6.0629,6.0685,6.0777,6.08,6.08,6.08,6.08,6.08,6.08,6.0846,6.0891,6.0955,6.0999,6.1079,6.1273,6.148,6.1681,6.1681,6.1687,6.1699,3.9407,4.0641,4.1657,4.2034,4.2325,4.2474,4.2474,4.3536,4.4297,4.4297,4.5173,4.5807,4.5807,4.5807,4.5807,4.5807,4.5807,4.5807,4.5807,4.5807,4.5807,4.5807,4.5807,4.5807,4.5807,4.5807,4.5426,4.4708,4.5173,4.5008,4.4297,4.5008,4.5395,4.5442,4.6764,4.7182,4.6913,4.8715,4.9647,4.9916,4.9916,4.9916,0.0,4.9916,5.0152,5.0525,5.0663,5.1059,5.145,5.1924,5.223,5.2373,5.2373,5.257,5.28,5.3043,5.3111,5.3111,5.3111,5.3649,5.4171,5.3977,5.471,5.5507,5.5507,5.5244,5.4981,0.0,5.4045,5.3221,0.0,0.0,5.1382,5.0961,5.1242,5.1523,5.1523,5.2283,5.3032,5.3458,5.4293,5.5197,5.6106,5.684,5.7356,0.0,0.0,0.0,0.0,0.0,0.0,6.0389,6.0389,6.0417,6.0444,6.0525,6.0578,6.061,6.071,6.0753,6.0777,6.08,6.08,6.08,6.08,6.0846,6.0911,6.0976,6.1018,6.1118,6.137,6.156,6.1658,6.1692,6.1699,6.1699,3.9842,4.1178,4.2092,4.2092,4.2688,4.314,4.314,4.4051,4.4812,4.4812,4.5395,4.5807,4.5807,4.5807,4.5807,4.5807,4.5807,4.5807,4.5807,4.5807,4.5807,4.5807,4.5807,4.5807,4.5807,4.5807,4.5735,4.5573,4.5067,4.4737,4.4586,4.4737,4.4812,4.4843,4.6175,4.685,4.7024,4.8241,4.9157,4.9789,4.9789,4.9837,4.9995,4.9995,5.0308,5.0755,5.1059,5.145,5.1851,5.223,5.2373,5.2373,5.2373,5.2445,5.2553,5.3128,5.323,5.3298,5.3415,5.4025,5.4631,5.4218,5.4747,5.5349,5.5408,5.4793,5.4173,5.4017,5.2919,5.2113,0.0,0.0,5.0891,5.0945,5.0945,5.0945,5.0891,5.1705,5.2395,5.2725,5.3591,0.0,0.0,0.0,0.0,0.0,0.0,0.0,0.0,0.0,6.0129,6.0389,6.0389,6.0389,6.0389,0.0,6.0525,6.0525,6.0655,6.071,6.0729,6.0757,6.08,6.08,6.0823,6.0846,6.0933,6.0995,6.1135,6.1272,6.1505,6.1601,6.1632,6.1681,6.1699,6.1699,3.9842,4.1178,4.2092,4.2092,4.301,4.3771,4.3771,4.4358,4.4812,4.4812,4.5395,4.5807,4.5807,4.5807,4.5807,4.5807,4.5807,4.5807,4.5807,4.5807,4.5807,4.5807,4.5807,4.5807,4.5807,4.5807,4.5262,4.4236,4.4586,4.4282,4.3379,4.4358,4.4812,4.4843,4.6175,4.7135,4.7719,4.7972,0.0,4.9078,4.9078,4.9644,5.037,5.037,5.0924,5.154,5.1614,5.1704,5.1851,5.223,5.2373,5.2373,5.2373,5.2694,5.3111,5.3943,5.42,5.431,5.4974,5.4913,5.473,5.5172,5.4834,5.4512,5.4868,5.4323,5.3647,5.3383,5.2646,5.2011,5.2078,0.0,0.0,5.1193,5.1246,5.1141,5.0945,5.1247,5.1597,5.1904,5.2651,5.345,5.4173,0.0,5.6192,0.0,0.0,0.0,0.0,0.0,0.0,0.0,6.0389,0.0,0.0,0.0,6.0578,6.0578,6.0729,6.0777,6.0777,6.08,6.08,6.08,6.0846,6.0933,6.0976,6.1095,6.1311,6.1543,6.1582,6.1621,6.169,6.1701,6.1699,6.1699,3.9915,4.1127,4.2144,4.2482,4.3521,4.4373,0.0,4.4918,4.5321,4.5321,4.5573,4.5807,4.5807,4.5807,4.5807,4.5807,4.5807,4.5807,4.5807,4.5807,4.5807,4.5807,4.5807,4.5807,4.5807,4.5807,4.5336,4.4373,4.4373,4.3912,4.2981,4.36,4.4051,4.4404,4.61,4.6992,4.7356,0.0,0.0,4.8383,4.8383,4.8726,4.9213,4.9546,5.0057,5.0649,5.1021,5.1392,5.1851,5.223,5.2373,5.2373,5.2373,5.2624,5.306,5.4072,5.4345,5.4385,5.4858,5.4712,5.4388,5.4203,5.3928,5.3739,5.3943,5.3344,5.2725,5.2632,5.1979,5.1435,5.1435,5.1047,0.0,0.0,0.0,5.1052,5.0945,5.1141,5.135,5.1487,5.1978,5.2494,5.2987,5.4132,5.5032,5.5611,5.6768,0.0,0.0,0.0,0.0,0.0,0.0,0.0,0.0,0.0,0.0,6.0499,6.0629,6.0704,6.0704,6.0777,6.08,6.08,6.0823,6.0888,6.0957,6.1171,6.138,6.1599,6.1651,6.167,6.1699,6.1694,6.1699,6.1699,4.0032,4.1115,4.2157,4.2827,4.3853,4.4657,4.4796,4.5395,4.5807,4.5807,4.5807,4.5807,4.5807,4.5807,4.5807,4.5807,4.5807,4.5807,4.5807,4.5807,4.5807,4.5807,4.5807,4.5807,4.5807,4.5807,4.5484,4.4812,4.422,4.3615,0.0,4.314,4.3615,4.4343,0.0,0.0,0.0,0.0,4.7672,4.7672,4.7672,4.7826,4.8108,4.8615,4.9034,4.9475,5.0096,5.0772,5.1392,5.1768,5.2125,5.2357,5.2191,5.2213,5.2549,5.358,5.3863,5.3867,5.4235,5.4226,5.395,5.3243,5.3053,5.3021,5.3095,5.2496,5.1823,5.1823,5.1349,5.0945,5.0981,5.0801,0.0,0.0,0.0,0.0,5.0998,5.1193,5.1333,5.1298,5.1589,5.1889,5.2066,0.0,0.0,0.0,0.0,0.0,5.7382,0.0,0.0,0.0,0.0,6.0361,6.0361,0.0,6.0417,6.0417,6.0552,6.0604,6.0629,6.0729,6.08,6.08,6.0823,6.0869,6.0997,6.1268,6.1472,6.1628,6.1674,6.1692,6.1705,6.1692,6.1698,6.1698,4.0025,4.095,4.2077,4.2743,4.3484,4.413,4.4719,4.5395,4.5807,4.5807,4.5807,4.5807,4.5807,4.5807,4.5807,4.5807,4.5807,4.5807,4.5807,4.5807,4.5807,4.5807,4.5807,4.5807,4.5807,4.5807,4.5484,4.4812,4.422,4.3615,0.0,4.3536,4.448,0.0,0.0,0.0,0.0,4.6613,4.6898,4.6898,4.6898,4.7516,4.8477,4.8541,4.8779,4.9215,4.9551,4.9725,4.9883,5.0265,5.1297,5.2258,5.1595,5.138,5.156,5.2158,5.2321,5.2528,5.3707,5.3797,5.3635,5.3887,5.3194,5.2484,5.2854,5.2128,5.1352,5.1352,5.1141,5.0981,5.1193,5.1034,5.1034,0.0,0.0,0.0,0.0,5.1487,5.1589,5.135,5.174,5.2048,5.2083,5.269,0.0,0.0,5.4944,0.0,0.0,0.0,0.0,5.9899,0.0,6.0148,6.0148,6.037,6.0499,6.0499,6.0552,6.0629,6.0685,6.071,6.0734,6.08,6.0869,6.1036,6.1273,6.1503,6.162,6.1694,6.1698,6.1692,6.1701,6.1705,6.1697,6.1692,0.0,0.0,0.0,0.0,0.0,0.0,0.0,4.5362,4.5807,4.5807,4.5807,4.5807,4.5807,4.5807,4.5735,4.5662,4.5589,4.5589,4.5589,4.5589,4.5662,4.5807,4.5395,4.5395,4.5807,4.5395,4.5067,4.4812,4.422,4.3615,0.0,0.0,0.0,0.0,0.0,4.606,4.5823,4.6092,4.6202,4.6202,4.6202,4.645,4.6897,4.7294,4.7748,4.816,4.8651,4.9157,4.9599,4.9756,5.036,5.1032,5.0734,5.0687,5.0843,5.152,5.1702,5.188,5.2432,5.2327,5.2127,5.229,5.1865,5.1529,5.2052,5.1872,5.1538,5.1538,5.135,5.1246,5.1487,5.0999,5.0855,5.1589,0.0,0.0,0.0,5.1487,5.1487,5.1538,5.1589,5.1722,5.2078,5.2463,0.0,0.0,0.0,0.0,0.0,0.0,0.0,5.8681,0.0,5.9604,6.0099,6.0313,6.0444,6.0444,6.0499,6.0578,6.0655,6.0685,6.0777,6.0888,6.0968,6.1138,6.1332,6.152,6.1632,6.1699,6.1699,6.1695,6.1697,6.1705,6.1705,6.1694,4.131,0.0,4.237,0.0,4.3506,4.4243,4.4583,4.5072,4.541,4.563,4.5589,4.5662,4.5735,4.5662,4.5589,4.5442,4.5442,4.5442,4.5515,4.5515,4.5589,4.5735,4.5321,0.0,4.5735,4.5321,4.5067,4.5067,4.445,0.0,0.0,0.0,0.0,0.0,4.5573,4.5807,4.5807,4.5807,4.5807,4.5807,4.5807,4.5807,4.5855,4.6459,4.6852,4.7149,4.7862,4.8453,4.8944,4.9099,4.9337,4.9607,4.9823,4.9924,5.0109,5.0557,5.073,5.0816,5.1113,5.1146,5.1098,5.1087,5.1123,5.1297,5.174,5.174,5.169,5.169,5.1538,5.1505,5.164,5.1211,5.0999,5.169,0.0,0.0,0.0,5.164,5.1589,5.1705,5.1672,5.174,5.1969,5.2389,0.0,0.0,0.0,0.0,0.0,0.0,0.0,0.0,0.0,0.0,5.9737,5.9922,6.0168,6.0417,6.0444,6.0525,6.0629,6.0704,6.08,6.0911,6.1032,6.1173,6.1272,6.1473,6.1588,6.1679,6.1679,6.1674,6.1701,6.1705,6.1701,6.1701,4.1343,4.1704,4.222,4.2635,4.271,4.3084,4.4212,4.4432,4.4626,4.5126,4.522,4.5294,4.5515,4.5294,4.522,4.522,4.522,4.5294,4.5515,4.5515,4.5515,0.0,0.0,4.5735,4.5515,4.5662,4.5807,4.5807,0.0,0.0,4.4812,0.0,4.5142,4.5807,4.5807,4.5807,4.5807,4.5807,4.5807,4.5807,4.5807,4.5807,4.5807,4.6175,4.6301,4.6442,4.715,4.7437,4.7504,4.7886,4.8034,4.815,4.8895,4.9127,4.9094,4.9068,4.9035,4.9141,4.9767,5.053,5.1123,5.0857,5.1452,5.2102,5.2084,5.1889,5.169,5.169,5.169,5.169,5.169,5.169,5.179,5.2036,0.0,0.0,0.0,5.2102,5.2018,5.1799,5.2209,5.2322,5.1848,5.2545,0.0,0.0,0.0,0.0,0.0,0.0,0.0,5.7277,5.7517,0.0,5.8919,5.9045,5.9576,6.0499,6.0417,6.0525,6.0685,6.0777,6.0846,6.0911,6.1038,6.1134,6.12,6.1342,6.1486,6.1592,6.1592,6.1642,6.1701,6.1701,6.1701,6.1701,4.2585,4.2459,4.2413,4.2283,4.2481,4.2837,4.3195,4.3906,4.4438,4.4658,4.4818,4.5039,4.5114,4.5129,4.5129,0.0,4.4964,4.5039,0.0,4.5204,4.5188,4.5515,4.5204,4.5114,4.5515,4.5247,4.5305,4.5807,0.0,0.0,0.0,4.4812,4.5157,4.5807,4.5807,4.5807,4.5807,4.5807,4.5807,4.5807,4.6048,4.6104,4.6175,4.6598,4.686,4.705,4.7337,4.7555,4.7853,4.7935,4.8001,4.8034,4.8397,4.8463,4.8479,4.8423,4.8627,4.8894,4.9124,4.9756,5.0442,5.0786,5.1432,5.2144,5.249,5.249,5.2444,5.2444,5.203,5.1786,5.2333,5.1687,5.1434,5.2426,5.2191,0.0,5.249,0.0,5.2333,5.2454,5.2472,5.2426,5.2454,5.2698,0.0,0.0,0.0,0.0,0.0,0.0,0.0,0.0,5.6443,0.0,5.8005,5.8739,5.927,5.9618,6.0185,6.0552,6.0685,6.0777,6.0846,6.0976,6.1078,6.1157,6.1281,6.1461,6.1556,6.16,6.1653,6.1686,6.1701,6.1701,6.1701,6.1701,4.2974,4.271,4.2459,4.198,4.21,4.2363,4.2579,4.3198,4.378,4.421,4.4444,4.4654,4.4843,4.5039,0.0,4.4874,4.4799,4.4889,4.522,4.5039,4.5024,4.5278,4.498,4.498,4.5278,4.5173,0.0,4.5662,4.5321,4.5157,4.5157,4.5157,4.5395,4.5807,4.5807,4.5864,4.5992,4.5864,4.5936,4.6223,4.612,4.6175,4.6356,4.6582,4.6876,4.7218,4.7337,4.7638,4.8001,4.8001,4.8001,4.8001,4.8163,4.8227,4.8356,4.8436,4.858,4.8832,4.894,4.9622,5.048,5.0876,5.1683,5.2408,5.2717,5.2654,5.2518,5.2518,5.225,5.2155,5.2454,5.1964,5.1817,5.2654,5.2518,5.2408,5.2761,0.0,5.2608,5.285,0.0,0.0,0.0,5.2806,5.2875,0.0,0.0,0.0,0.0,0.0,0.0,5.4994,5.5651,0.0,5.7215,5.7832,5.8379,5.8809,5.9703,6.0328,6.071,6.08,6.0911,6.0997,6.1039,6.1118,6.1252,6.1406,6.1506,6.153,6.1621,6.1678,6.1701,6.1701,6.1696,6.1691,4.2772,4.2648,4.2396,0.0,4.1654,0.0,4.2302,4.2375,4.2793,4.3831,4.3962,4.4184,4.4734,4.4796,4.4827,4.4874,0.0,0.0,0.0,4.4964,4.4874,4.4874,4.5055,4.5055,4.4874,4.5278,4.5515,4.5515,4.5662,4.5807,4.5807,4.5807,4.5807,4.5807,4.5807,4.5992,4.623,4.592,4.6223,4.6754,4.608,4.6048,4.6285,4.6356,4.6582,4.6945,4.7286,4.7638,4.8001,4.8001,4.8001,4.8066,4.8179,4.8356,4.8547,4.8769,4.8832,4.8894,4.9107,5.0011,5.0929,5.1087,5.1946,5.2717,5.2761,5.2361,5.1964,5.2012,5.2408,5.2563,5.2108,5.2472,5.2761,5.2806,5.2824,5.2824,5.2824,5.2824,5.285,0.0,0.0,0.0,5.2999,5.2893,5.2868,0.0,0.0,0.0,0.0,0.0,5.4962,5.4776,5.514,5.5721,5.6511,5.6568,5.7105,5.8111,5.9038,5.9892,6.0633,6.0827,6.0933,6.0997,6.1001,6.1041,6.1117,6.1264,6.1344,6.1413,6.1553,6.1656,6.1696,6.1696,6.171,6.1699,0.0,0.0,4.2555,4.2365,4.1916,4.1636,4.1759,4.203,4.2278,4.2537,4.2782,4.3225,4.3815,4.3877,4.4167,4.4827,4.4739,4.4739,4.4964,4.4799,4.4723,4.4874,4.4964,4.4964,4.4874,4.5278,4.5589,4.5735,4.5589,4.5662,4.5807,4.5807,4.5807,4.5807,4.5807,4.588,4.5936,4.5807,4.588,4.608,4.6191,4.623,4.6356,4.6668,4.7014,4.727,4.7337,4.7638,4.8001,4.8001,4.8049,4.8179,4.8356,4.8564,4.8769,4.8786,4.894,4.9107,4.9168,4.9855,5.0607,5.0624,5.1278,5.2012,5.2408,5.206,5.1817,5.2203,5.206,5.1964,5.225,5.2408,5.2608,5.306,5.3121,5.3121,5.3121,5.3121,5.3121,0.0,5.3103,5.3121,5.3164,5.3103,5.306,0.0,0.0,0.0,0.0,5.3961,5.4482,5.443,5.4765,5.5189,5.5689,5.6282,5.7079,5.8036,5.8966,5.9518,5.9725,6.0558,6.0933,6.0997,6.1001,6.108,6.1191,6.1312,6.1424,6.149,6.162,6.1686,6.1705,6.1705,6.1673,6.1621,4.3568,4.3129,4.2743,4.2429,4.2045,4.1785,4.1588,4.1771,4.1998,4.2344,4.2528,4.2801,4.3324,4.3665,4.3932,4.4304,4.4478,4.4663,4.4874,4.4723,4.4663,4.4723,4.4723,4.4723,4.4723,4.5039,4.5352,4.5662,4.5515,4.5589,4.5807,4.5807,4.5807,4.5807,4.5807,4.5864,4.5992,4.588,4.6008,4.6278,4.612,4.6246,4.6582,4.6582,4.6929,4.7404,4.7404,4.7638,4.8001,4.8049,4.8115,4.8227,4.8564,4.8707,4.8832,4.8956,4.9063,4.9229,4.929,4.993,5.057,5.0893,5.1278,5.1669,5.1964,5.1817,5.1601,5.1669,5.1817,5.1964,5.2012,5.2472,5.2868,5.3164,5.323,5.3272,5.3272,5.3314,5.3355,5.3355,5.3355,5.3355,5.3355,5.3355,5.3314,5.3235,5.3444,0.0,5.3235,5.368,5.4035,5.4315,5.4623,5.499,5.5403,5.5855,5.6562,5.7498,5.8035,5.8696,5.9465,6.006,6.059,6.0997,6.1021,6.1115,6.1259,6.1354,6.147,6.1564,6.1668,6.1691,6.1699,6.1699,6.1667,6.16,4.3509,4.3312,4.299,4.2365,4.2238,4.2045,4.172,4.1654,4.1825,4.239,4.2453,4.2501,4.2825,4.3416,4.3661,4.3491,4.4033,4.454,4.4874,4.4723,4.4572,4.4572,4.4572,4.4572,4.4572,4.4799,4.5114,4.5442,4.5515,4.5589,4.5735,4.5807,4.5807,4.5807,4.5864,4.6048,4.6301,4.6064,4.6349,4.6823,4.6207,4.6349,4.6876,4.6512,4.6775,4.7404,4.7404,4.7704,4.8066,4.8179,4.8292,4.8356,4.8707,4.8832,4.8894,4.9168,4.9229,4.929,4.9471,5.0005,5.0587,5.1244,5.1398,5.1398,5.15,5.1416,5.1262,5.0857,5.1601,5.2155,5.1701,5.2454,5.3164,5.3248,5.3254,5.3217,5.3217,0.0,5.3481,5.34,5.3459,5.3499,5.3499,5.3499,5.3499,5.3499,5.3499,5.3499,5.3499,5.3499,5.3775,5.4296,5.4623,5.499,5.5409,5.5476,5.5892,5.6691,5.687,5.7742,5.9127,5.9528,6.011,6.0845,6.1022,6.1181,6.1324,6.1381,6.1486,6.1601,6.1662,6.1691,6.1673,6.1673,6.1654,6.1603,4.3822,4.3568,4.3251,4.299,4.2726,4.2412,4.2045,4.1947,4.1733,4.1393,4.1174,4.1302,4.1805,4.1903,4.2212,4.2709,4.3356,4.4046,4.4617,4.4663,4.4572,4.4572,4.4572,4.4572,4.4572,4.4799,4.5039,4.522,4.5442,4.5515,4.5515,4.5735,4.5807,4.5807,4.612,4.623,4.6301,4.6598,4.6823,4.6892,4.6754,4.6823,4.6876,4.6807,4.7066,4.7404,4.7555,4.7902,4.8163,4.842,4.8564,4.8769,4.8877,4.9063,4.9168,4.9367,4.953,4.9649,4.9649,4.9942,5.0285,5.0547,5.0492,5.0547,5.0999,5.064,5.0359,5.0712,5.1314,5.175,5.1679,5.2214,5.2875,5.3378,5.3109,5.2893,5.2893,0.0,5.3359,5.2937,5.3235,5.3499,5.3499,5.3499,5.3499,5.3499,5.3499,5.3499,5.3499,5.3499,5.3814,5.4439,5.4503,5.4857,5.5476,5.548,5.5562,5.5738,5.6537,5.7082,5.7456,5.8988,5.9803,6.0036,6.079,6.1178,6.1309,6.1361,6.1471,6.1601,6.1678,6.1666,6.1621,6.1621,6.1612,6.1597,4.4056,4.3822,4.3509,4.2912,4.271,4.2396,4.1916,4.1801,4.167,4.1406,4.1272,4.1247,4.1454,4.169,4.1976,4.2144,4.2736,4.3171,4.333,4.4021,4.4435,4.4435,4.4435,4.4511,4.4572,4.4723,4.4889,4.522,4.5294,4.5442,4.5662,4.5735,4.5864,4.6048,4.623,4.6442,4.6668,4.6807,4.6876,4.6876,4.6876,4.7014,4.715,4.715,4.7421,4.782,4.7968,4.8163,4.842,4.8564,4.8769,4.8956,4.9063,4.9229,4.9411,4.953,4.9708,4.9825,4.9942,5.0114,5.0285,5.0397,5.0547,5.0749,5.0694,5.0657,5.0657,5.0602,5.0999,5.1398,5.1414,5.2137,5.2787,5.3066,5.3109,0.0,0.0,5.3462,5.3542,5.3484,5.3699,5.3794,5.3774,5.3793,5.3736,5.3658,5.3658,5.3658,5.3658,5.3658,5.3962,5.4616,5.4914,5.5205,5.5551,5.5551,5.5573,5.5596,5.6063,5.653,5.7074,5.7968,5.8877,5.9824,6.0312,6.0819,6.1372,6.1476,6.158,6.1668,6.169,6.1666,6.1595,6.1595,6.1612,6.1607,4.4155,4.4056,4.3763,4.3035,4.2834,4.2601,4.1964,4.1835,4.1785,4.1588,4.1522,4.1456,4.1256,4.1606,4.1712,4.1573,4.2027,4.2299,4.2123,4.324,4.3884,4.4037,4.4266,4.4435,4.4572,4.4663,4.4814,4.5129,4.522,4.5442,4.5735,4.5807,4.5992,4.6285,4.6372,4.6652,4.7014,4.7098,4.7167,4.7167,4.7167,4.7286,4.7555,4.7538,4.782,4.8227,4.8308,4.8436,4.8627,4.8832,4.894,4.9063,4.9229,4.9411,4.9607,4.9725,4.9884,5.0057,5.0228,5.0341,5.0453,5.0526,5.082,5.0946,5.0547,5.0766,5.091,5.0509,5.0803,5.121,5.1262,5.1964,5.259,5.2743,0.0,0.0,0.0,5.3524,5.3584,5.3907,5.3963,5.3981,5.4019,5.4019,5.3963,5.3888,5.387,5.387,5.387,5.3851,5.4125,5.4776,5.5295,5.5573,5.5618,5.5618,5.564,5.5703,5.5724,5.6111,5.6828,5.7081,5.795,5.9263,5.9779,6.0429,6.1172,6.1475,6.1638,6.1701,6.1701,6.1666,6.1595,6.1595,6.1612,6.1607,4.431,4.4155,4.4056,4.3822,4.3628,4.3295,4.2648,4.2555,4.2238,4.1456,4.1323,4.1272,4.1102,4.0997,4.0876,4.0876,4.1388,4.1678,4.1663,4.218,4.2707,4.3334,4.4173,4.4572,4.4572,4.4799,4.4874,4.4949,4.5278,4.5515,4.5515,4.5735,4.5992,4.6301,4.6668,4.7014,4.7421,4.7787,4.7935,4.7935,4.7935,4.7935,4.8001,4.8098,4.8163,4.8227,4.8644,4.8786,4.8832,4.9046,4.9168,4.9229,4.959,4.9649,4.9708,4.9935,5.0149,5.0397,5.0547,5.0585,5.0602,5.0819,5.0729,5.064,5.0585,5.0492,5.0453,5.0415,5.0803,5.1262,5.1347,5.1633,5.2072,5.2607,0.0,0.0,5.2907,5.3036,5.3222,5.3447,5.3545,5.3757,5.4055,5.4091,5.4091,5.4091,5.4091,5.4091,5.4091,5.4019,5.4233,5.4776,5.5369,5.5703,5.5684,5.5684,5.5703,5.5703,5.5766,5.5865,5.602,5.683,5.7331,5.7656,5.9288,6.0136,6.0432,6.1264,6.1638,6.1701,6.1701,6.1666,6.1595,6.1595,6.1612,6.1607,4.4212,4.4155,4.3981,4.3492,4.3372,4.3096,4.2648,4.2412,4.2174,4.1851,4.1588,4.1456,4.1406,4.1153,4.0966,4.0966,4.0924,4.087,4.0815,4.103,4.1659,4.2615,4.298,4.3267,4.3356,4.343,4.3778,4.4491,4.4653,4.5148,4.5961,4.6032,4.6442,4.6997,4.7134,4.7421,4.777,4.7935,4.8001,4.8001,4.8001,4.8066,4.8115,4.8163,4.8356,4.8564,4.8786,4.8832,4.8956,4.9107,4.929,4.9411,4.9649,4.9784,4.9918,5.0206,5.0302,5.0471,5.0692,5.0801,5.0801,5.0891,5.0819,5.0801,5.0801,5.0764,5.071,5.071,5.0855,5.1052,5.1297,5.1669,5.2042,5.2463,0.0,5.2787,5.3115,5.3072,5.3115,5.3367,5.3623,5.3833,5.3907,5.411,5.42,5.4091,5.4091,5.4091,5.4091,5.4284,5.4546,5.4905,5.5345,5.5618,5.5703,5.5745,5.5766,5.5766,5.5826,5.5905,5.5962,5.629,5.6771,5.7383,5.8165,5.9143,6.0212,6.0664,6.119,6.1701,6.1701,6.1666,6.1595,6.1595,6.1612,6.1607,4.4286,4.4155,4.3964,4.3476,4.3355,4.3174,4.2789,4.2539,4.2365,4.2285,4.198,4.1785,4.1785,4.1406,4.1153,4.1153,4.0882,4.0608,4.047,4.0455,4.0962,4.1912,4.2245,4.2441,4.2529,4.2586,4.302,4.3847,4.3991,4.4583,4.5435,4.5645,4.606,4.6533,4.6667,4.6947,4.7305,4.7305,4.7438,4.7653,4.7734,4.7915,4.8227,4.8373,4.8564,4.8786,4.8832,4.8956,4.9063,4.9229,4.9411,4.9607,4.9725,4.9918,5.0109,5.0359,5.0397,5.0509,5.0819,5.0891,5.0891,5.0891,5.0891,5.0891,5.0891,5.0891,5.0891,5.0891,5.0998,5.1088,5.1246,5.1705,5.2078,5.2286,5.2536,5.2806,5.3151,5.2999,5.3005,5.3487,5.3662,5.3795,5.3981,5.42,5.4271,5.4198,5.4198,5.4181,5.4146,5.4386,5.4673,5.4998,5.525,5.5508,5.5745,5.5806,5.5826,5.5787,5.5885,5.5962,5.5999,5.5998,5.6344,5.6977,5.741,5.8415,5.9783,6.0229,6.092,6.1701,6.1701,6.1666,6.1595,6.1595,6.1612,6.1607,4.4587,4.4344,4.4097,4.4097,4.3805,4.3492,4.3157,4.3113,4.2974,4.2648,4.2285,4.2109,4.2109,4.1654,4.1307,4.1307,4.1153,4.1034,4.0799,4.0593,4.0762,4.124,4.2145,4.2514,4.2264,4.2597,4.2885,4.3098,4.3658,4.3727,4.3466,4.4289,4.4623,4.4524,4.5082,4.5483,4.5798,4.5798,4.6212,4.6891,4.7098,4.7595,4.8211,4.8627,4.8753,4.8815,4.894,4.9046,4.9212,4.9411,4.9573,4.9691,4.9918,5.0074,5.0228,5.0324,5.0474,5.064,5.0855,5.0873,5.0873,5.0891,5.0891,5.0891,5.0873,5.0873,5.0873,5.0873,5.107,5.1263,5.1281,5.1722,5.2066,5.2066,5.2322,5.2599,5.2937,5.269,5.2831,5.3758,5.3604,5.3643,5.4303,5.439,5.439,5.439,5.4409,5.4375,5.4308,5.4375,5.4584,5.4998,5.508,5.5356,5.5885,5.5905,5.5885,5.5787,5.5924,5.5999,5.5999,5.6014,5.607,5.6259,5.7196,5.8119,5.9053,6.0008,6.09,6.1701,6.1701,6.1666,6.1595,6.1595,6.1592,6.1607,4.4536,4.4367,4.4212,4.3998,4.3881,4.3704,4.3492,4.3235,4.3035,4.2974,4.2648,4.2459,4.2459,4.198,4.1686,4.1686,4.1221,4.0799,4.0593,4.0524,4.0562,4.0637,4.0977,4.1085,4.1069,4.1264,4.1635,4.2186,4.2466,4.3169,4.4189,4.4474,4.487,4.5403,4.5593,4.5781,4.5951,4.5951,4.6162,4.6457,4.6536,4.6759,4.7049,4.7127,4.7248,4.7385,4.7564,4.7607,4.7665,4.7991,4.8106,4.822,4.8446,4.8557,4.865,4.8851,4.8941,4.9047,4.917,4.9258,4.9539,5.0627,5.0891,5.0733,5.0171,5.0048,4.9943,4.9554,4.9533,4.9735,5.0127,5.0318,5.0458,5.066,5.0751,5.084,5.0973,5.1042,5.1177,5.1489,5.1937,5.2228,5.2281,5.317,5.3658,5.3579,5.4071,5.4409,5.4375,5.4584,5.4817,5.5115,5.5341,5.5605,5.5962,5.5981,5.5962,5.5943,5.5979,5.6014,5.6014,5.5995,5.607,5.6203,5.6544,5.7216,5.8153,5.911,6.0002,6.0842,6.1466,6.1691,6.1654,6.1621,6.16,6.1606,4.4536,4.4423,4.4253,4.3998,4.3956,4.3822,4.3628,4.3432,4.3295,4.3295,4.3035,4.2772,4.2772,4.2302,4.1947,4.1947,4.1355,4.0799,4.0662,4.0524,4.0455,4.0401,4.047,4.047,4.0401,4.0662,4.1,4.1403,4.1951,4.2627,4.3357,4.3897,4.436,4.469,4.4875,4.4998,4.518,4.518,4.5424,4.5888,4.5949,4.6159,4.6498,4.6634,4.6752,4.6903,4.706,4.7118,4.725,4.7437,4.7567,4.7606,4.7827,4.7919,4.801,4.826,4.8365,4.8417,4.8624,4.8692,4.8939,4.989,5.0013,4.982,4.9346,4.9223,4.9135,4.8932,4.8976,4.9172,4.96,4.9802,4.9893,5.0071,5.009,5.0134,5.0228,5.038,5.0611,5.0949,5.1394,5.1724,5.1771,5.2536,5.31,5.3282,5.3672,5.4052,5.4371,5.4552,5.4746,5.5026,5.5293,5.5564,5.5847,5.5942,5.5998,5.5999,5.5996,5.6012,5.6012,5.6012,5.6082,5.6194,5.627,5.6831,5.7749,5.8345,5.93,6.0451,6.0978,6.1398,6.1699,6.1621,6.16,6.1595,4.4626,4.444,4.4253,4.4155,4.3998,4.3839,4.3628,4.3628,4.3628,4.3628,4.3355,4.3174,4.3174,4.2555,4.2174,4.2109,4.1488,4.1034,4.0799,4.0593,4.0524,4.0524,4.0524,4.0455,4.0347,4.0662,4.0799,4.0799,4.1785,4.2061,4.1654,4.2867,4.3267,4.2961,4.3388,4.3704,4.3898,4.3898,4.4399,4.5177,4.5278,4.5723,4.6372,4.6683,4.6799,4.6799,4.6954,4.7158,4.7305,4.7305,4.7399,4.751,4.7674,4.7819,4.7945,4.805,4.8207,4.8361,4.8582,4.8682,4.8682,4.8682,4.8481,4.8328,4.8398,4.8415,4.85,4.87,4.8928,4.9198,4.9495,4.9721,4.9916,4.9872,4.9916,5.0028,5.0287,5.035,5.0651,5.1432,5.1532,5.1713,5.2144,5.2248,5.2588,5.3239,5.3188,5.3499,5.4274,5.4345,5.4509,5.4806,5.5107,5.5341,5.5607,5.5884,5.6014,5.5999,5.6014,5.6012,5.6026,5.6026,5.6097,5.6216,5.6274,5.6809,5.7617,5.7757,5.8773,6.0295,6.0373,6.0929,6.1699,6.1621,6.1607,6.1603,4.4776,4.4626,4.4457,4.4155,4.4114,4.3923,4.3628,4.3628,4.3628,4.3628,4.3568,4.3492,4.3492,4.2912,4.2476,4.2492,4.162,4.0966,4.0593,4.0524,4.0524,4.0524,4.0524,4.0524,4.0662,4.073,4.0799,4.0799,4.1055,4.1456,4.198,4.2302,4.2805,4.3449,4.3568,4.3747,4.4056,4.4056,4.4313,4.475,4.475,4.4851,4.5043,4.5213,4.5269,4.5324,4.5566,4.5674,4.5692,4.5817,4.587,4.5924,4.617,4.6274,4.6377,4.658,4.668,4.6713,4.678,4.678,4.678,4.678,4.673,4.6888,4.7485,4.7794,4.7864,4.7482,4.7571,4.7841,4.8078,4.8285,4.8327,4.8224,4.848,4.8742,4.8842,4.923,4.959,4.9878,5.0213,5.0456,5.0429,5.1016,5.1727,5.255,5.2597,5.2908,5.3721,5.3859,5.4259,5.4924,5.5317,5.5544,5.5607,5.5921,5.6065,5.5995,5.5995,5.6056,5.6155,5.6155,5.6232,5.6349,5.6367,5.6543,5.6894,5.7528,5.8421,5.9456,6.0139,6.0939,6.1696,6.1679,6.1641,6.1573,4.4737,4.4626,4.4514,4.427,4.4155,4.4039,4.3763,4.3628,4.3628,4.3628,4.3628,4.3628,4.3628,4.2974,4.2396,4.2045,4.1421,4.0966,4.0662,4.0524,4.0524,4.0524,4.0524,4.0677,4.095,4.0867,4.0799,4.0799,4.107,4.1522,4.2109,4.2365,4.2883,4.3628,4.3628,4.3805,4.4097,4.4097,4.427,4.4587,4.4587,4.4587,4.4626,4.4831,4.4886,4.494,4.5194,4.53,4.53,4.5371,4.5423,4.5528,4.5736,4.5821,4.5922,4.6122,4.6172,4.6221,4.6368,4.6398,4.6398,4.6398,4.6398,4.6473,4.6748,4.7033,4.7199,4.7023,4.7143,4.7363,4.7657,4.7929,4.8072,4.7911,4.8269,4.855,4.8658,4.8986,4.9309,4.9608,4.9914,5.0108,5.0089,5.0411,5.0965,5.1801,5.1821,5.2153,5.2987,5.3404,5.3851,5.4398,5.5107,5.5525,5.5652,5.5973,5.6133,5.6098,5.6097,5.6123,5.6189,5.6222,5.6305,5.6405,5.6395,5.6482,5.6626,5.7055,5.7719,5.8577,5.9436,6.0315,6.1134,6.1549,6.166,6.1556,4.4626,4.4587,4.4514,4.431,4.4138,4.4039,4.3881,4.3704,4.3628,4.3628,4.3628,4.3628,4.3628,4.2974,4.2269,4.139,4.1153,4.1034,4.0799,4.0593,4.0524,4.0524,4.0524,4.0677,4.1117,4.095,4.0867,4.0867,4.1323,4.1654,4.2045,4.2571,4.3084,4.3509,4.3568,4.3805,4.4097,4.4097,4.427,4.4587,4.4587,4.4587,4.4626,4.4886,4.4978,4.5049,4.5318,4.5423,4.5423,4.5423,4.5476,4.5563,4.5718,4.5871,4.5972,4.6172,4.6172,4.627,4.6447,4.6542,4.6542,4.6542,4.6542,4.6495,4.6319,4.6464,4.6731,4.6934,4.7258,4.756,4.7723,4.8192,4.8421,4.8212,4.8586,4.8903,4.9057,4.9233,4.948,4.9906,5.0082,5.0182,5.0278,5.0207,5.0418,5.1085,5.1038,5.1337,5.221,5.2778,5.33,5.3836,5.47,5.5349,5.5692,5.6024,5.6214,5.6194,5.6205,5.6222,5.6222,5.6301,5.6352,5.6424,5.6426,5.6499,5.6606,5.6606,5.7074,5.7875,5.8597,5.9495,6.051,6.1367,6.1627,6.149,4.4626,4.4587,4.4514,4.4155,4.4097,4.3981,4.3687,4.3628,4.3628,4.3628,4.3628,4.3628,4.3628,4.3007,4.2238,4.139,4.1153,4.1034,4.0799,4.0593,4.0524,4.0524,4.0524,4.0677,4.1117,4.1034,4.1086,4.1256,4.1153,4.1355,4.1654,4.2254,4.265,4.3023,4.3449,4.3805,4.4097,4.4097,4.427,4.4587,4.4587,4.4587,4.4626,4.4886,4.4978,4.5049,4.5318,4.5423,4.5423,4.5423,4.5423,4.5476,4.5718,4.5821,4.5871,4.6122,4.6172,4.6221,4.6221,4.627,4.627,4.627,4.627,4.6319,4.6495,4.6731,4.6952,4.698,4.765,4.8194,4.8075,4.8513,4.8834,4.8569,4.889,4.9206,4.9333,4.9627,4.9914,5.0212,5.0255,5.0278,5.0302,5.0278,5.0317,5.0431,5.0427,5.0789,5.1667,5.1724,5.2461,5.4006,5.4432,5.4959,5.5692,5.6036,5.6185,5.6199,5.626,5.629,5.6291,5.6354,5.6422,5.6484,5.6551,5.6571,5.6606,5.6606,5.7074,5.7816,5.7933,5.8968,6.0505,6.1322,6.15,6.1331,4.4643,4.4587,4.4514,4.427,4.4155,4.4039,4.3822,4.3687,4.3628,4.3628,4.3628,4.3628,4.3628,4.299,4.2349,4.1785,4.1406,4.1153,4.0966,4.0814,4.0593,4.0524,4.0524,4.0677,4.1117,4.1117,4.1236,4.1456,4.1272,4.1472,4.2045,4.2318,4.2696,4.3328,4.3509,4.3805,4.4097,4.4097,4.427,4.4587,4.4587,4.4626,4.472,4.494,4.5032,4.514,4.5318,4.5423,4.5423,4.5423,4.5528,4.5615,4.577,4.5922,4.6023,4.6172,4.6172,4.6172,4.6172,4.6172,4.6172,4.6172,4.6172,4.627,4.6542,4.6926,4.7284,4.7432,4.7856,4.8251,4.8345,4.8781,4.9038,4.8853,4.927,4.9596,4.9558,4.9805,5.0063,5.0278,5.0302,5.0302,5.0302,5.0302,5.0302,5.0302,5.0302,5.0474,5.0856,5.1209,5.204,5.3491,5.4087,5.4863,5.5859,5.6136,5.6265,5.6246,5.6283,5.631,5.6299,5.6411,5.646,5.6504,5.6566,5.6606,5.6606,5.6606,5.6801,5.7172,5.7621,5.8805,6.0336,6.114,6.1316,6.1116]},{"header":{"parameterUnit":"m.s-1","parameterCategory":1,"la1":30.6,"la2":28.766,"lo1":-90.7593,"lo2":-88.6598,"dy":0.0162,"dx":0.0183,"nx":116,"ny":114,"refTime":"2023-04-21T12:00:00:Z","depth":0,"parameterNumber":3,"parameterNumberName":"V-component_of_WINDS"},"data":[0.0,0.0,0.0,0.0,0.0,0.0,0.0,0.0,0.0,0.0,0.0,0.0,0.0,0.0,0.0,0.0,0.0,0.0,0.0,0.0,0.0,0.0,0.0,0.0,0.0,0.0,0.0,0.0,0.0,0.0,0.0,0.0,0.0,0.0,0.0,0.0,0.0,0.0,0.0,0.0,0.0,0.0,0.0,0.0,0.0,0.0,0.0,0.0,0.0,0.0,0.0,0.0,0.0,0.0,0.0,0.0,0.0,0.0,0.0,0.0,0.0,0.0,0.0,0.0,0.0,0.0,0.0,0.0,0.0,0.0,0.0,0.0,0.0,0.0,0.0,0.0,0.0,0.0,0.0,0.0,0.0,0.0,0.0,0.0,0.0,0.0,0.0,0.0,0.0,0.0,0.0,0.0,0.0,0.0,0.0,0.0,0.0,0.0,0.0,0.0,0.0,0.0,0.0,0.0,0.0,0.0,0.0,0.0,0.0,0.0,0.0,0.0,0.0,0.0,0.0,0.0,0.0,0.0,0.0,0.0,0.0,0.0,0.0,0.0,0.0,0.0,0.0,0.0,0.0,0.0,0.0,0.0,0.0,0.0,0.0,0.0,0.0,0.0,0.0,0.0,0.0,0.0,0.0,0.0,0.0,0.0,0.0,0.0,0.0,0.0,0.0,0.0,0.0,0.0,0.0,0.0,0.0,0.0,0.0,0.0,0.0,0.0,0.0,0.0,0.0,0.0,0.0,0.0,0.0,0.0,0.0,0.0,0.0,0.0,0.0,0.0,0.0,0.0,0.0,0.0,0.0,0.0,0.0,0.0,0.0,0.0,0.0,0.0,0.0,0.0,0.0,0.0,0.0,0.0,0.0,0.0,0.0,0.0,0.0,0.0,0.0,0.0,0.0,0.0,0.0,0.0,0.0,0.0,0.0,0.0,0.0,0.0,0.0,0.0,0.0,0.0,0.0,0.0,0.0,0.0,0.0,0.0,0.0,0.0,0.0,0.0,0.0,0.0,0.0,0.0,0.0,0.0,0.0,0.0,0.0,0.0,0.0,0.0,0.0,0.0,0.0,0.0,0.0,0.0,0.0,0.0,0.0,0.0,0.0,0.0,0.0,0.0,0.0,0.0,0.0,0.0,0.0,0.0,0.0,0.0,0.0,0.0,0.0,0.0,0.0,0.0,0.0,0.0,0.0,0.0,0.0,0.0,0.0,0.0,0.0,0.0,0.0,0.0,0.0,0.0,0.0,0.0,0.0,0.0,0.0,0.0,0.0,0.0,0.0,0.0,0.0,0.0,0.0,0.0,0.0,0.0,0.0,0.0,0.0,0.0,0.0,0.0,0.0,0.0,0.0,0.0,0.0,0.0,0.0,0.0,0.0,0.0,0.0,0.0,0.0,0.0,0.0,0.0,0.0,0.0,0.0,0.0,0.0,0.0,0.0,0.0,0.0,0.0,0.0,0.0,0.0,0.0,0.0,0.0,0.0,0.0,0.0,0.0,0.0,0.0,0.0,0.0,0.0,0.0,0.0,0.0,0.0,0.0,0.0,0.0,0.0,0.0,0.0,0.0,0.0,0.0,0.0,0.0,0.0,0.0,0.0,0.0,0.0,0.0,0.0,0.0,0.0,0.0,0.0,0.0,0.0,0.0,0.0,0.0,0.0,0.0,0.0,0.0,0.0,0.0,0.0,0.0,0.0,0.0,0.0,0.0,0.0,0.0,0.0,0.0,0.0,0.0,0.0,0.0,0.0,0.0,0.0,0.0,0.0,0.0,0.0,0.0,0.0,0.0,0.0,0.0,0.0,0.0,0.0,0.0,0.0,0.0,0.0,0.0,0.0,0.0,0.0,0.0,0.0,0.0,0.0,0.0,0.0,0.0,0.0,0.0,0.0,0.0,0.0,0.0,0.0,0.0,0.0,0.0,0.0,0.0,0.0,0.0,0.0,0.0,0.0,0.0,0.0,0.0,0.0,0.0,0.0,0.0,0.0,0.0,0.0,0.0,0.0,0.0,0.0,0.0,0.0,0.0,0.0,0.0,0.0,0.0,0.0,0.0,0.0,0.0,0.0,0.0,0.0,0.0,0.0,0.0,0.0,0.0,0.0,0.0,0.0,0.0,0.0,0.0,0.0,0.0,0.0,0.0,0.0,0.0,0.0,0.0,0.0,0.0,0.0,0.0,0.0,0.0,0.0,0.0,0.0,0.0,0.0,0.0,0.0,0.0,0.0,0.0,0.0,0.0,0.0,0.0,0.0,0.0,0.0,0.0,0.0,0.0,0.0,0.0,0.0,0.0,0.0,0.0,0.0,0.0,0.0,0.0,0.0,0.0,0.0,0.0,0.0,0.0,0.0,0.0,0.0,0.0,0.0,0.0,0.0,0.0,0.0,0.0,0.0,0.0,0.0,0.0,0.0,0.0,0.0,0.0,0.0,0.0,0.0,0.0,0.0,0.0,0.0,0.0,0.0,0.0,0.0,0.0,0.0,0.0,0.0,0.0,0.0,0.0,0.0,0.0,0.0,0.0,0.0,0.0,0.0,0.0,0.0,0.0,0.0,0.0,0.0,0.0,0.0,0.0,0.0,0.0,0.0,0.0,0.0,0.0,0.0,0.0,0.0,0.0,0.0,0.0,0.0,0.0,0.0,0.0,0.0,0.0,0.0,0.0,0.0,0.0,0.0,0.0,0.0,0.0,0.0,0.0,0.0,0.0,0.0,0.0,0.0,0.0,0.0,0.0,0.0,0.0,0.0,0.0,0.0,0.0,0.0,0.0,0.0,0.0,0.0,0.0,0.0,0.0,0.0,0.0,0.0,0.0,0.0,0.0,0.0,0.0,0.0,0.0,0.0,0.0,0.0,0.0,0.0,0.0,0.0,0.0,0.0,0.0,0.0,0.0,0.0,0.0,0.0,0.0,0.0,0.0,0.0,0.0,0.0,0.0,0.0,0.0,0.0,0.0,0.0,0.0,0.0,0.0,0.0,0.0,0.0,0.0,0.0,0.0,0.0,0.0,0.0,0.0,0.0,0.0,0.0,0.0,0.0,0.0,0.0,0.0,0.0,0.0,0.0,0.0,0.0,0.0,0.0,0.0,0.0,0.0,0.0,0.0,0.0,0.0,0.0,0.0,0.0,0.0,0.0,0.0,0.0,0.0,0.0,0.0,0.0,0.0,0.0,0.0,0.0,0.0,0.0,0.0,0.0,0.0,0.0,0.0,0.0,0.0,0.0,0.0,0.0,0.0,0.0,0.0,0.0,0.0,0.0,0.0,0.0,0.0,0.0,0.0,0.0,0.0,0.0,0.0,0.0,0.0,0.0,0.0,0.0,0.0,0.0,0.0,0.0,0.0,0.0,0.0,0.0,0.0,0.0,0.0,0.0,0.0,0.0,0.0,0.0,0.0,0.0,0.0,0.0,0.0,0.0,0.0,0.0,0.0,0.0,0.0,0.0,0.0,0.0,0.0,0.0,0.0,0.0,0.0,0.0,0.0,0.0,0.0,0.0,0.0,0.0,0.0,0.0,0.0,0.0,0.0,0.0,0.0,0.0,0.0,0.0,0.0,0.0,0.0,0.0,0.0,0.0,0.0,0.0,0.0,0.0,0.0,0.0,0.0,0.0,0.0,0.0,0.0,0.0,0.0,0.0,0.0,0.0,0.0,0.0,0.0,0.0,0.0,0.0,0.0,0.0,0.0,0.0,0.0,0.0,0.0,0.0,0.0,0.0,0.0,0.0,0.0,0.0,0.0,0.0,0.0,0.0,0.0,0.0,0.0,0.0,0.0,0.0,0.0,0.0,0.0,0.0,0.0,0.0,0.0,0.0,0.0,0.0,0.0,0.0,0.0,0.0,0.0,0.0,0.0,0.0,0.0,0.0,0.0,0.0,0.0,0.0,0.0,0.0,0.0,0.0,0.0,0.0,0.0,0.0,0.0,0.0,0.0,0.0,0.0,0.0,0.0,0.0,0.0,0.0,0.0,0.0,0.0,0.0,0.0,0.0,0.0,0.0,0.0,0.0,0.0,0.0,0.0,0.0,0.0,0.0,0.0,0.0,0.0,0.0,0.0,0.0,0.0,0.0,0.0,0.0,0.0,0.0,0.0,0.0,0.0,0.0,0.0,0.0,0.0,0.0,0.0,0.0,0.0,0.0,0.0,0.0,0.0,0.0,0.0,0.0,0.0,0.0,0.0,0.0,0.0,0.0,0.0,0.0,0.0,0.0,0.0,0.0,0.0,0.0,0.0,0.0,0.0,0.0,0.0,0.0,0.0,0.0,0.0,0.0,0.0,0.0,0.0,0.0,0.0,0.0,0.0,0.0,0.0,0.0,0.0,0.0,0.0,0.0,0.0,0.0,0.0,0.0,0.0,0.0,0.0,0.0,0.0,0.0,0.0,0.0,0.0,0.0,0.0,0.0,0.0,0.0,0.0,0.0,0.0,0.0,0.0,0.0,0.0,0.0,0.0,0.0,0.0,0.0,0.0,0.0,0.0,0.0,0.0,0.0,0.0,0.0,0.0,0.0,0.0,0.0,0.0,0.0,0.0,0.0,0.0,0.0,0.0,0.0,0.0,0.0,0.0,0.0,0.0,0.0,0.0,0.0,0.0,0.0,0.0,0.0,0.0,0.0,0.0,0.0,0.0,0.0,0.0,0.0,0.0,0.0,0.0,0.0,0.0,0.0,0.0,0.0,0.0,0.0,0.0,0.0,0.0,0.0,0.0,0.0,0.0,0.0,0.0,0.0,0.0,0.0,0.0,0.0,0.0,0.0,0.0,0.0,0.0,0.0,0.0,0.0,0.0,0.0,0.0,0.0,0.0,0.0,0.0,0.0,0.0,0.0,0.0,0.0,0.0,0.0,0.0,0.0,0.0,0.0,0.0,0.0,0.0,0.0,0.0,0.0,0.0,0.0,0.0,0.0,0.0,0.0,0.0,0.0,0.0,0.0,0.0,0.0,0.0,0.0,0.0,0.0,0.0,0.0,0.0,0.0,0.0,0.0,0.0,0.0,0.0,0.0,0.0,0.0,0.0,0.0,0.0,0.0,0.0,0.0,0.0,0.0,0.0,0.0,0.0,0.0,0.0,0.0,0.0,0.0,0.0,0.0,0.0,0.0,0.0,0.0,0.0,0.0,0.0,0.0,0.0,0.0,0.0,0.0,0.0,0.0,0.0,0.0,0.0,0.0,0.0,0.0,0.0,0.0,0.0,0.0,0.0,0.0,0.0,0.0,0.0,0.0,0.0,0.0,0.0,0.0,0.0,0.0,0.0,0.0,0.0,0.0,0.0,0.0,0.0,0.0,0.0,0.0,0.0,0.0,0.0,0.0,0.0,0.0,0.0,0.0,0.0,0.0,0.0,0.0,0.0,0.0,0.0,0.0,0.0,0.0,0.0,0.0,0.0,0.0,0.0,0.0,0.0,0.0,0.0,0.0,0.0,0.0,0.0,0.0,0.0,0.0,0.0,0.0,0.0,0.0,0.0,0.0,0.0,0.0,0.0,0.0,0.0,0.0,0.0,0.0,0.0,0.0,0.0,0.0,0.0,0.0,0.0,0.0,0.0,0.0,0.0,0.0,0.0,0.0,0.0,0.0,0.0,0.0,0.0,0.0,0.0,0.0,0.0,0.0,0.0,0.0,0.0,0.0,0.0,0.0,0.0,0.0,0.0,0.0,0.0,0.0,0.0,0.0,0.0,0.0,0.0,0.0,0.0,0.0,0.0,0.0,0.0,0.0,0.0,0.0,0.0,0.0,0.0,0.0,0.0,0.0,0.0,0.0,0.0,0.0,0.0,0.0,0.0,0.0,0.0,0.0,0.0,0.0,0.0,0.0,0.0,0.0,0.0,0.0,0.0,0.0,0.0,0.0,0.0,0.0,0.0,0.0,0.0,0.0,0.0,0.0,0.0,0.0,0.0,0.0,0.0,0.0,0.0,0.0,0.0,0.0,0.0,0.0,0.0,0.0,0.0,0.0,0.0,0.0,0.0,0.0,0.0,0.0,0.0,0.0,0.0,0.0,0.0,0.0,0.0,0.0,0.0,0.0,0.0,0.0,0.0,0.0,0.0,0.0,0.0,0.0,0.0,0.0,0.0,0.0,0.0,0.0,0.0,0.7106,0.7243,0.0,0.0,0.0,0.0,0.0,0.0,0.0,0.0,0.0,0.0,0.0,0.0,0.0,0.0,0.0,0.0,0.0,0.0,0.0,0.0,0.0,0.0,0.0,0.0,0.0,0.0,0.0,0.0,0.0,0.0,0.0,0.0,0.0,0.0,0.0,0.0,0.0,2.3939,2.4324,2.4513,2.4513,2.4316,2.3879,2.331,0.0,0.0,0.0,0.0,0.0,0.0,0.0,0.0,0.0,0.0,0.0,0.0,0.0,0.0,0.0,0.0,0.0,0.0,0.0,0.0,0.0,0.0,0.0,0.0,0.0,0.0,0.0,0.0,0.0,0.0,0.0,0.0,0.0,0.0,0.0,0.0,0.0,0.0,0.0,0.0,0.0,0.0,0.0,0.0,0.0,0.0,0.0,0.0,0.0,0.0,0.0,0.0,0.0,0.0,0.0,0.0,0.0,0.0,0.0,0.0,0.0,0.0,0.0,0.0,0.0,0.0,0.0,0.0,0.0,0.0,0.6898,0.7021,0.0,0.0,0.0,0.0,0.0,0.0,0.0,0.0,0.0,0.0,0.0,0.0,0.0,0.0,0.0,0.0,0.0,0.0,0.0,0.0,0.0,0.0,0.0,2.3046,2.3046,2.3046,2.2745,2.2644,0.0,0.0,0.0,0.0,0.0,0.0,2.3306,2.3913,2.4264,2.4333,2.4658,2.4821,2.4821,2.4821,2.4248,2.3311,2.3132,0.0,0.0,0.0,0.0,0.0,0.0,0.0,0.0,0.0,0.0,0.0,0.0,0.0,0.0,0.0,0.0,0.0,0.0,0.0,0.0,0.0,0.0,0.0,0.0,0.0,0.0,0.0,0.0,0.0,0.0,0.0,0.0,0.0,0.0,0.0,0.0,0.0,0.0,0.0,0.0,0.0,0.0,0.0,0.0,0.0,0.0,0.0,0.0,0.0,0.0,0.0,0.0,0.0,0.0,0.0,0.0,0.0,0.0,0.0,0.0,0.0,0.0,0.0,0.6778,0.6778,0.6778,0.6778,0.653,0.6283,0.6653,0.653,0.6403,0.7018,0.0,0.0,0.0,0.0,0.0,0.0,0.0,0.0,0.0,0.0,0.0,0.0,0.0,0.0,0.0,0.0,0.0,0.0,0.0,0.0,0.0,2.3147,2.3046,2.3046,2.2745,2.2644,2.2644,0.0,0.0,0.0,0.0,0.0,2.4076,2.4187,2.4401,2.4744,2.4795,2.4821,2.4821,2.4821,2.471,2.459,2.4539,2.4403,2.4147,0.0,0.0,0.0,0.0,0.0,0.0,0.0,0.0,0.0,0.0,0.0,0.0,0.0,0.0,0.0,0.0,0.0,0.0,0.0,0.0,0.0,0.0,0.0,0.0,0.0,0.0,0.0,0.0,0.0,0.0,0.0,0.0,0.0,0.0,0.0,0.0,0.0,0.0,0.0,0.0,0.0,1.3421,1.3163,0.0,0.0,0.0,0.0,0.0,0.0,0.0,0.0,0.0,0.0,0.0,0.0,0.0,0.9667,0.9549,0.8352,0.775,0.775,0.6528,0.6041,0.6041,0.6041,0.6039,0.5916,0.6039,0.0,0.6039,0.6403,0.0,0.0,0.0,0.0,0.0,0.0,0.0,0.0,0.0,0.0,0.0,0.0,0.0,0.0,0.0,0.0,0.0,0.0,0.0,0.0,0.0,2.3637,2.3338,2.4016,2.3529,2.3134,2.2852,2.3417,0.0,0.0,0.0,2.4059,2.423,2.4444,2.465,2.4821,2.4821,2.4821,2.4821,2.4821,2.4821,2.4821,2.4821,2.4821,2.4812,2.4072,0.0,0.0,0.0,0.0,0.0,0.0,0.0,0.0,0.0,0.0,0.0,0.0,0.0,0.0,0.0,0.0,0.0,0.0,0.0,0.0,0.0,0.0,0.0,0.0,0.0,0.0,0.0,0.0,0.0,0.0,0.0,0.0,0.0,0.0,0.0,0.0,0.0,0.0,0.0,1.4679,1.4189,1.4065,1.315,1.2289,0.0,0.0,0.0,0.0,0.0,0.0,0.0,0.0,0.0,1.0425,1.0539,1.0418,1.0061,0.8477,0.7622,0.7622,0.6403,0.5916,0.5919,0.5972,0.5994,0.5996,0.6045,0.6065,0.6061,0.6385,0.6487,0.6742,0.0,0.0,0.0,0.0,0.6976,0.676,0.0,0.0,0.0,0.0,0.0,0.0,0.0,0.0,0.0,0.0,0.0,0.0,2.5011,2.4026,2.3827,2.4894,2.4505,2.4007,2.3495,2.4204,2.4444,2.4015,2.4179,2.4384,2.4384,2.4667,2.4821,2.4821,2.4821,2.4821,2.4821,2.4821,2.4821,2.4821,2.4821,2.4821,2.4821,2.4821,2.3978,2.2712,0.0,0.0,0.0,0.0,0.0,0.0,0.0,0.0,0.0,0.0,0.0,0.0,0.0,0.0,0.0,0.0,0.0,0.0,0.0,0.0,0.0,0.0,0.0,0.0,0.0,0.0,0.0,0.0,0.0,0.0,0.0,0.0,0.0,0.0,0.0,0.0,0.0,1.5203,1.4999,1.5063,1.4164,1.3556,0.0,0.0,0.0,0.0,0.0,0.0,1.0304,1.1394,1.1756,1.1035,1.1023,1.0778,1.0304,0.8349,0.7388,0.7416,0.6441,0.5963,0.5986,0.6055,0.6086,0.609,0.6153,0.618,0.6176,0.6364,0.646,0.6595,0.6924,0.7082,0.7082,0.6828,0.6715,0.6606,0.0,0.0,0.0,0.0,0.0,0.0,0.0,0.0,0.0,0.0,0.0,2.3945,2.443,2.443,2.4627,2.5197,2.5462,2.5299,2.4619,2.5122,2.5246,2.4654,2.47,2.4795,2.4795,2.4812,2.4821,2.4821,2.4821,2.4821,2.4821,2.4821,2.4821,2.4821,2.4821,2.4821,2.4821,2.4821,2.4119,2.295,2.295,0.0,0.0,0.0,0.0,0.0,0.0,0.0,0.0,0.0,0.0,0.0,0.0,0.0,0.0,0.0,0.0,0.0,0.0,0.0,0.0,0.0,0.0,0.0,0.0,0.0,0.0,0.0,0.0,0.0,0.0,0.0,0.0,0.0,0.0,0.0,0.0,0.0,0.0,1.5537,1.4971,0.0,0.0,0.0,0.0,1.1736,1.2217,1.2346,1.1756,1.2359,1.2363,1.1776,1.0793,1.0304,1.0304,0.8349,0.7429,0.7536,0.6419,0.6088,0.6168,0.6172,0.6174,0.6174,0.6178,0.618,0.618,0.6176,0.6432,0.6693,0.6697,0.6699,0.6699,0.6699,0.6498,0.631,0.0,0.0,0.0,0.0,0.0,0.0,0.0,0.0,2.3746,2.3646,2.3845,2.4609,2.6051,2.5664,2.5966,2.7593,2.7477,2.7321,2.7182,2.6893,2.6555,2.6181,2.5278,2.4821,2.4821,2.4821,2.4821,2.4821,2.4821,2.4821,2.4821,2.4821,2.4821,2.4821,2.4821,2.4821,2.4821,2.4821,2.459,2.4128,2.4128,2.3135,0.0,0.0,0.0,0.0,0.0,0.0,0.0,0.0,0.0,0.0,0.0,0.0,0.0,0.0,0.0,0.0,0.0,0.0,0.0,0.0,0.0,0.0,0.0,0.0,0.0,0.0,0.0,0.0,0.0,0.0,0.0,0.0,0.0,0.0,0.0,0.0,0.0,1.4981,1.511,0.0,1.4386,1.4023,1.3784,1.354,1.3066,1.2595,1.2359,1.2247,1.2014,1.1776,1.1512,1.144,1.144,0.9555,0.8623,0.854,0.6896,0.6151,0.6182,0.6241,0.6268,0.6272,0.6331,0.6355,0.6355,0.6355,0.6454,0.6406,0.6598,0.6621,0.6621,0.6621,0.651,0.6404,0.0,0.0,0.0,0.0,0.0,0.0,0.0,0.0,2.3836,2.4233,2.4421,2.5187,2.7094,2.6809,2.7088,2.8508,2.8796,2.8619,2.7841,2.7715,2.7284,2.6381,2.5348,2.4821,2.4821,2.4821,2.4821,2.4821,2.4821,2.4821,2.4821,2.4821,2.4821,2.4821,2.4821,2.4821,2.4821,2.4821,2.4821,2.4821,2.4821,2.4128,2.2838,0.0,0.0,0.0,0.0,0.0,0.0,0.0,0.0,0.0,0.0,0.0,0.0,0.0,0.0,0.0,0.0,0.0,0.0,0.0,0.0,0.0,0.0,0.0,0.0,0.0,0.0,0.0,0.0,0.0,0.0,0.0,0.0,0.0,0.0,1.5847,1.5477,1.4992,1.511,1.5235,1.4992,1.4748,1.4629,1.4629,1.3679,1.296,1.2719,1.2189,1.1861,1.1861,1.1286,1.1117,1.1117,0.92,0.8247,0.8159,0.687,0.6243,0.6276,0.6335,0.6364,0.6366,0.6427,0.6453,0.6453,0.6453,0.6419,0.637,0.6429,0.6453,0.6453,0.6453,0.6453,0.6453,0.0,0.0,0.0,0.0,0.0,0.0,0.0,2.3147,2.3538,2.5099,2.5294,2.5868,2.7494,2.7904,2.801,2.797,2.9342,2.9216,2.6673,2.7583,2.7257,2.5331,2.4923,2.4821,2.4821,2.4821,2.4821,2.4821,2.4821,2.4821,2.4821,2.4821,2.4821,2.4821,2.4821,2.4821,2.4821,2.4821,2.4821,2.4821,2.4821,2.4128,2.3095,0.0,0.0,0.0,0.0,0.0,0.0,0.0,0.0,0.0,0.0,0.0,0.0,0.0,0.0,0.0,0.0,0.0,0.0,0.0,0.0,0.0,0.0,0.0,0.0,0.0,0.0,0.0,0.0,0.0,0.0,0.0,0.0,0.0,1.7367,1.6425,1.5596,1.5601,1.4992,1.4873,1.5477,1.4992,1.4629,1.4629,1.4047,1.3453,1.2728,1.2306,1.2036,1.2036,1.0195,0.9255,0.9255,0.734,0.6362,0.6321,0.6321,0.6368,0.6453,0.6453,0.6453,0.6453,0.6453,0.6453,0.6453,0.6453,0.6453,0.6453,0.6453,0.6453,0.6453,0.6453,0.6453,0.6453,0.0,0.0,0.0,0.0,0.0,0.0,2.3147,2.3046,2.3538,2.5099,2.5294,2.6051,2.8154,2.8769,2.9562,3.0622,3.1027,3.0898,2.9891,2.878,2.7267,2.5026,2.4812,2.4821,2.4821,2.4821,2.4821,2.4821,2.4821,2.4821,2.4821,2.4821,2.4821,2.4821,2.4821,2.4821,2.4821,2.4821,2.4821,2.4821,2.4821,2.459,2.4239,0.0,0.0,0.0,0.0,0.0,0.0,0.0,0.0,0.0,0.0,0.0,0.0,0.0,0.0,0.0,0.0,0.0,0.0,0.0,0.0,0.0,0.0,0.0,0.0,0.0,0.0,0.0,0.0,0.0,0.0,0.0,1.7355,1.6655,1.6188,1.5833,1.5477,1.4873,1.5116,1.5235,1.4873,1.5116,1.5116,1.4629,1.4178,1.354,1.2935,1.2503,1.2231,1.2231,1.1888,1.1331,1.0555,0.9222,0.8233,0.7469,0.6812,0.6429,0.6453,0.6453,0.6453,0.6453,0.6453,0.6453,0.6453,0.6453,0.6453,0.6453,0.6453,0.6453,0.6453,0.6453,0.6453,0.6453,0.0,0.0,0.0,0.0,0.0,0.0,2.3147,2.2946,2.3628,2.5654,2.5664,2.6426,2.9095,2.9642,3.0141,3.1004,3.1096,3.0972,3.0493,2.8734,2.6834,2.4923,2.4821,2.4821,2.4821,2.4821,2.4821,2.4821,2.4821,2.4821,2.4821,2.4821,2.4821,2.4821,2.4821,2.4821,2.4821,2.4821,2.4821,2.4821,2.4821,2.4821,2.471,2.4016,2.3784,2.3664,2.2974,2.262,2.262,2.2047,0.0,0.0,0.0,0.0,0.0,0.0,0.0,0.0,0.0,0.0,0.0,0.0,0.0,0.0,0.0,0.0,0.0,0.0,0.0,0.0,0.0,0.0,0.0,0.0,1.712,1.6183,1.5715,1.5601,1.5477,1.5116,1.5359,1.5477,1.511,1.5204,1.5016,1.4405,1.3873,1.338,1.2768,1.2569,1.2414,1.2414,1.2189,1.1754,1.1101,0.9603,0.8576,0.8043,0.6985,0.6453,0.6453,0.6453,0.6453,0.6453,0.6453,0.6453,0.6453,0.6453,0.6453,0.0,0.0,0.0,0.0,0.0,0.6453,0.6453,0.0,0.0,0.0,0.0,0.0,0.0,2.3147,2.2745,2.361,2.6396,2.6127,2.6788,2.984,3.0165,3.0197,3.0306,3.0316,3.0081,2.9137,2.7669,2.6191,2.4812,2.4821,2.4821,2.4821,2.4821,2.4821,2.4821,2.4821,2.4821,2.4821,2.4821,2.4821,2.4821,2.4821,2.4821,2.4821,2.4821,2.4821,2.4821,2.4821,2.4821,2.4821,2.4821,2.4821,2.4821,2.4821,2.4821,2.459,2.3552,0.0,0.0,0.0,0.0,0.0,0.0,0.0,0.0,0.0,0.0,0.0,0.0,0.0,0.0,0.0,0.0,0.0,0.0,0.0,0.0,0.0,0.0,0.0,0.0,1.6532,1.5952,1.5952,1.5736,1.5628,1.5601,1.5623,1.5639,1.5639,1.5245,1.4637,1.4019,1.3595,1.3082,1.2333,1.2503,0.0,0.0,0.0,1.1362,1.123,0.9371,0.8176,0.8043,0.7118,0.6587,0.6453,0.6453,0.6453,0.6453,0.6453,0.6453,0.6453,0.6453,0.6453,0.6453,0.6453,0.6453,0.6453,0.6453,0.6453,0.6453,0.0,0.0,0.0,0.0,0.0,0.0,2.2937,2.2644,2.3511,2.6098,2.5644,2.6416,2.9829,3.0292,3.0574,3.1349,3.0741,2.9276,2.6933,2.64,2.5762,2.4812,2.4821,2.4821,2.4821,2.4821,2.4821,2.4821,2.4821,2.4821,2.4821,2.4821,2.4821,2.4821,2.4821,2.4821,2.4821,2.4821,2.4821,2.4821,2.4821,2.4821,2.4821,2.4821,2.4821,2.4821,2.4821,2.4821,2.471,2.4479,2.3784,2.2982,2.2749,2.182,0.0,0.0,0.0,0.0,0.0,0.0,0.0,0.0,0.0,0.0,0.0,0.0,0.0,0.0,0.0,0.0,0.0,0.0,0.0,1.9229,1.8512,1.7806,1.7806,1.6703,1.5811,1.5623,1.5763,1.5881,1.5881,1.5478,1.4993,1.4246,1.3807,1.3153,1.2515,1.2686,1.2783,1.2783,1.2553,1.2033,1.123,1.0833,0.9769,0.8043,0.0,0.0,0.6453,0.6453,0.6453,0.6453,0.6453,0.6453,0.6453,0.6453,0.6453,0.6453,0.6453,0.6453,0.6453,0.6453,0.6453,0.6453,0.0,0.0,0.0,0.0,0.0,0.0,2.2846,2.2644,2.332,2.5246,2.4786,2.5363,2.8215,2.9192,2.9774,2.9938,2.9772,2.8406,2.567,2.6082,2.5972,2.4821,2.4821,2.4821,2.4821,2.4821,2.4821,2.4821,2.4821,2.4821,2.4821,2.4821,2.4821,2.4821,2.4821,2.4821,2.4821,2.4821,2.4821,2.4821,2.4821,2.4821,2.4821,2.4821,2.4821,2.4821,2.4821,2.4821,2.4821,2.4821,2.4359,2.3896,2.356,2.2757,2.1729,0.0,0.0,0.0,0.0,0.0,0.0,0.0,0.0,0.0,0.0,0.0,0.0,0.0,0.0,1.8997,1.9345,0.0,1.8519,1.8984,1.804,1.7185,1.7185,1.6574,1.6043,1.5801,1.5984,1.6129,1.6129,1.5462,1.4833,1.4459,1.3629,1.2959,1.2702,1.2787,1.2836,1.2836,1.2836,1.2568,1.2033,1.0969,0.9905,0.8842,0.7781,0.6985,0.6453,0.6453,0.6453,0.6453,0.6453,0.6453,0.6453,0.6453,0.6453,0.6453,0.6453,0.6453,0.6453,0.6453,0.6453,0.6453,0.0,0.0,0.0,0.0,0.0,0.0,0.0,2.2644,2.3038,2.4295,2.4016,2.4492,2.6491,2.7899,2.8418,2.7965,2.8619,2.7883,2.5034,2.6191,2.63,2.4812,2.4821,2.4821,2.4821,2.4821,2.4821,2.4821,2.4821,2.4821,2.4821,2.4821,2.4821,2.4821,2.4821,2.4821,2.4821,2.4821,2.4821,2.4821,2.4821,2.4821,2.4821,2.4821,2.4821,2.4821,2.4821,2.471,2.4599,2.471,2.4599,2.4368,2.4033,2.3464,2.2667,2.1281,2.0256,0.0,0.0,0.0,0.0,0.0,0.0,0.0,0.0,1.8984,1.9107,1.8978,1.9216,1.9482,2.0123,1.8953,1.8146,1.8783,1.7559,1.6497,1.6381,1.6349,1.6307,1.6113,1.6264,1.6382,1.6382,1.5316,1.4671,1.4671,1.3531,1.2836,1.2836,1.2836,1.2836,1.2836,1.2836,1.2836,1.2836,1.1108,1.0044,0.9643,0.7917,0.6853,0.6453,0.6453,0.6453,0.6453,0.6319,0.6185,0.6049,0.6185,0.6319,0.6319,0.6453,0.6453,0.6453,0.6453,0.6453,0.6453,0.0,0.0,0.0,0.0,0.0,0.0,0.0,0.0,2.3038,2.4295,2.4016,2.4393,2.6194,2.6904,2.7133,2.704,2.8483,2.8135,2.5034,2.6427,2.6527,2.4821,2.4821,2.4821,2.4821,2.4821,2.4821,2.4821,2.4821,2.4821,2.4821,2.4821,2.4821,2.4821,2.4821,2.4821,2.4821,2.4821,2.4821,2.4821,2.4821,2.4821,2.4821,2.4821,2.4821,2.4821,2.4821,2.4479,2.4033,2.4599,2.4144,2.3239,2.3809,2.3464,2.2546,2.0221,1.9408,1.8835,1.6644,1.6532,1.7584,1.9223,1.8984,1.8861,0.0,2.0277,1.9931,2.0737,2.0974,2.1061,2.1467,2.1284,2.101,2.0434,1.9536,1.8588,1.7608,1.6969,1.6614,1.6587,1.6608,1.6624,1.6624,1.555,1.4898,1.4898,1.3613,1.2836,1.2836,1.2836,1.2836,1.2836,1.2836,1.2836,1.2836,1.2572,1.1508,0.9646,0.938,0.8315,0.6453,0.6453,0.6453,0.6453,0.5783,0.5109,0.457,0.5245,0.5515,0.5649,0.6185,0.6453,0.6453,0.6453,0.6453,0.6453,0.0,0.0,0.0,0.0,0.0,0.0,0.0,0.0,0.0,2.3329,2.3229,2.3429,2.4285,2.4914,2.5943,2.7504,2.758,2.7168,2.6318,2.6961,2.6853,2.556,2.556,2.5348,2.4821,2.4821,2.4821,2.4821,2.4821,2.4821,2.4821,2.4821,2.4821,2.4821,2.4821,2.4821,2.4821,2.4821,2.4821,2.4821,2.4821,2.4821,2.4821,2.4821,2.4821,2.471,2.4368,2.4144,0.0,2.3809,2.3464,2.3014,2.2901,2.2675,2.2101,2.0134,1.9557,1.9325,1.8292,1.8292,1.8991,2.0277,2.027,2.027,2.0974,2.1003,2.1024,2.138,2.1642,2.1818,2.1957,2.1005,2.0201,1.983,1.8643,1.7633,1.7133,1.6965,1.6861,1.6861,1.6476,1.6347,1.6347,1.5399,1.48,1.4403,1.3358,1.2836,1.2836,1.2836,1.2836,1.2836,1.2836,1.2836,1.2836,1.2169,1.1369,1.0571,0.9241,0.8179,0.7381,0.6317,0.5647,0.5242,0.4839,0.4571,0.4301,0.4571,0.4705,0.4839,0.5108,0.5512,0.5917,0.6319,0.6453,0.6453,0.0,0.0,0.0,0.0,0.0,0.0,0.0,0.0,0.0,0.0,2.2745,2.2722,2.3132,2.3652,2.4907,2.7093,2.6735,2.6626,2.706,2.7492,2.7384,2.6518,2.6191,2.5762,2.5136,2.4923,2.4821,2.4821,2.4821,2.4821,2.4821,2.4821,2.4821,2.4821,2.4821,2.4821,2.4821,2.4821,2.4821,2.4821,2.4821,2.4821,2.4821,2.4821,2.471,2.4479,2.4033,2.3809,2.3576,2.3127,2.2788,2.2449,2.223,2.1767,2.1196,1.9802,1.9283,1.9226,1.9466,1.9699,2.0164,2.1104,2.1342,2.1364,2.1459,2.1657,2.1832,2.1832,2.2015,2.2206,2.2293,2.0828,1.9627,1.9458,1.8148,1.7136,1.6759,1.6899,1.7001,1.7001,1.6359,1.5969,1.5714,1.5062,1.4403,1.3875,1.3227,1.2836,1.2836,1.2836,1.2836,1.2836,1.2836,1.2836,1.2836,1.2033,1.1497,1.123,0.9637,0.8573,0.791,0.6182,0.4841,0.4033,0.4033,0.3899,0.3764,0.3899,0.4033,0.4033,0.4167,0.4571,0.5109,0.5647,0.6183,0.6453,0.0,0.0,0.0,0.0,0.0,0.0,0.0,0.0,0.0,0.0,0.0,0.0,0.0,2.3648,2.4081,2.4855,2.6427,2.706,2.6191,2.7716,2.8252,2.7384,2.6518,2.6091,2.6082,2.5238,2.4821,2.4821,2.4821,2.4821,2.4821,2.4821,2.4821,2.4821,2.4821,2.4821,2.4821,2.4821,2.4821,2.4821,2.4821,2.4821,2.4821,2.4821,2.4479,2.3921,2.3921,2.3464,2.3014,2.3014,2.223,2.1318,2.1888,2.1074,1.9693,1.8745,1.7997,1.7733,1.8577,1.9523,2.0469,2.1437,2.1679,2.1767,2.2081,2.2162,2.2169,2.2169,2.2176,2.2271,2.2557,2.1751,2.0859,2.0138,1.9164,1.8139,1.712,1.6996,1.7001,1.7001,1.6359,1.5714,1.5062,1.4272,1.3879,1.3875,1.3227,1.2836,1.2836,1.2836,1.2836,1.2836,1.2836,1.2836,1.2836,1.2836,1.2169,1.123,1.1097,1.0035,0.791,0.6182,0.4574,0.3228,0.3228,0.2826,0.2289,0.296,0.3228,0.3362,0.4033,0.4301,0.4301,0.4301,0.5242,0.6453,0.0,0.0,0.0,0.0,0.0,0.0,0.0,0.0,0.0,0.0,0.0,0.0,0.0,0.0,0.0,0.0,2.7447,2.8145,2.7824,2.891,2.9122,2.8262,2.7931,2.7276,2.6091,2.5771,2.5348,2.4821,2.4821,2.4821,2.4821,2.4821,2.4821,2.4821,2.4821,2.4821,2.4821,2.4821,2.4821,2.4821,2.4821,2.4821,2.4821,2.4821,2.4487,2.3801,0.0,2.2901,2.2335,2.1888,2.1081,2.0277,2.0507,1.9945,1.9082,1.9024,1.8294,1.7997,1.9693,2.0421,2.0907,2.177,2.2023,2.2052,2.2162,2.2337,2.2476,2.2476,2.2155,2.1838,2.1936,2.1074,2.0093,1.9164,1.8792,1.8156,1.713,1.7001,1.7001,1.7001,1.5969,1.5192,1.4931,1.4272,1.3748,1.3227,1.2968,1.2836,1.2836,1.2836,1.2836,1.2836,1.2836,1.2836,1.2836,1.2836,1.2568,1.2301,1.1497,0.963,0.6573,0.604,0.4568,0.2558,0.2558,0.2423,0.2155,0.2423,0.2558,0.2558,0.2826,0.3229,0.3631,0.3631,0.4167,0.4973,0.0,0.0,0.0,0.0,0.0,0.0,0.0,0.0,0.0,0.0,0.0,0.0,0.0,0.0,0.0,0.0,0.0,2.8368,2.8688,2.9237,2.9448,2.9227,2.8581,2.7707,2.6626,2.5981,2.5348,2.4821,2.4821,2.4821,2.4821,2.4821,2.4821,2.4821,2.4821,2.4821,2.4821,2.4821,2.4821,2.4821,2.4821,2.4821,2.4821,2.4599,2.4256,0.0,2.3239,2.2562,2.2002,2.1432,2.0744,2.0298,2.041,2.006,1.9513,1.9434,1.9259,1.9246,2.0611,2.122,2.159,2.2217,2.2337,2.2374,2.2491,2.2659,2.2798,2.2798,2.2096,2.1607,2.1607,2.0843,1.9693,1.8664,1.8536,1.8156,1.713,1.6742,1.6618,1.6618,1.5448,1.4534,1.4534,1.3879,1.3358,1.2836,1.2836,1.2836,1.2836,1.2836,1.2836,1.2836,1.2836,1.2836,1.2836,1.2836,1.2836,1.2836,1.1633,0.9634,0.7234,0.617,0.4701,0.296,0.2423,0.2155,0.2155,0.2155,0.2155,0.2155,0.2155,0.2423,0.2826,0.2826,0.3095,0.3497,0.0,0.0,0.0,0.0,0.0,0.0,0.0,0.0,0.0,0.0,0.0,0.0,0.0,0.0,0.0,0.0,0.0,0.0,2.8475,2.8688,2.9122,2.9774,2.8368,2.7384,2.7384,2.567,2.4812,2.4821,2.4821,2.4821,2.4821,2.4821,2.4821,2.4821,2.4821,2.4821,2.4821,2.4821,2.4821,2.4821,2.4821,2.4821,2.471,2.4144,2.3921,2.3809,2.3239,2.2675,2.2002,2.1432,2.1218,2.1176,2.1496,2.1208,2.0652,1.997,2.0427,2.1163,2.1177,2.1909,2.2645,2.2645,2.2645,2.2725,2.304,2.3106,2.3113,2.2988,2.2237,2.1481,2.1481,2.0716,1.9693,1.8536,1.8407,1.8156,1.713,1.6359,1.5974,1.5974,1.4796,1.3875,1.3875,1.3227,1.2836,1.2836,1.2836,1.2836,1.2836,1.2836,1.2836,1.2836,1.2836,1.2836,1.2836,1.2836,1.2836,1.2836,1.1369,1.0432,0.9495,0.6838,0.5104,0.4167,0.2826,0.2289,0.2155,0.2155,0.2155,0.2155,0.2155,0.2155,0.2155,0.2155,0.2156,0.2291,0.0,0.0,0.0,0.0,0.0,0.0,0.0,0.0,0.0,0.0,0.0,0.0,0.0,0.0,0.0,0.0,0.0,0.0,2.6825,2.8581,2.9237,2.8145,2.8252,2.7716,2.6409,2.5981,2.545,2.4821,2.4821,2.4821,2.4821,2.4821,2.4821,2.4821,2.4821,2.4821,2.4821,2.4821,2.4821,2.4821,2.4821,2.4821,2.4821,2.4599,2.4256,2.3921,2.3697,2.3014,2.2116,2.1888,2.1234,2.042,2.0013,1.9942,2.0107,2.0902,2.124,2.1617,2.2359,2.2733,2.2981,2.2981,2.2981,2.3003,2.3091,2.3106,2.2863,2.2111,2.1222,2.0202,1.9431,1.9048,1.8536,1.7512,1.8022,1.8156,1.713,1.6359,1.5974,1.5974,1.4796,1.3875,1.3875,1.3227,1.2836,1.2836,1.2836,1.2836,1.2836,1.2836,1.2836,1.2836,1.2836,1.2836,1.2836,1.2836,1.2836,1.2836,1.2173,1.1101,0.963,0.8568,0.6702,0.43,0.3899,0.3229,0.2155,0.2155,0.2155,0.2155,0.2155,0.2155,0.2155,0.2155,0.2169,0.2189,0.0,0.0,0.0,0.0,0.0,0.0,0.0,0.0,0.0,0.0,0.0,0.0,0.0,0.0,0.0,0.0,0.0,0.0,0.0,2.8581,2.9122,2.8581,2.8262,2.7707,2.6735,2.5881,2.5238,2.4821,2.4821,2.4821,2.4821,2.4821,2.4821,2.4821,2.4821,2.4821,2.4821,2.4821,2.4821,0.0,0.0,2.4821,2.4821,2.4479,2.4368,2.4256,2.4033,2.3239,2.2472,2.2055,2.162,2.1082,2.0657,2.0883,2.1382,2.2055,2.2237,2.2362,2.2981,2.3106,2.3106,2.3106,2.3106,2.2988,2.248,2.248,2.2104,2.1096,2.0075,1.9176,1.8664,1.8536,1.8022,1.6742,1.7383,1.7636,1.6224,1.5443,1.5057,1.5057,1.4141,1.3354,1.3354,1.3095,1.2836,1.2836,1.2836,1.2836,1.2836,1.2836,1.2836,1.2836,1.2836,1.2836,1.2836,1.2836,1.2836,1.2836,1.2309,1.1508,1.0568,0.9368,0.7503,0.5233,0.0,0.3497,0.2155,0.2155,0.2155,0.2155,0.2155,0.2155,0.2157,0.217,0.2185,0.2204,0.0,0.0,0.0,0.0,0.0,0.0,0.0,0.0,0.0,0.0,2.5489,0.0,0.0,0.0,0.0,0.0,0.0,0.0,0.0,0.0,2.89,2.9448,2.8145,2.7276,2.707,2.5569,2.4821,2.4821,2.4821,2.4821,2.4821,2.4821,2.4821,2.4821,2.4821,2.4821,2.4821,2.4821,2.4821,2.4821,2.4821,2.4821,2.471,0.0,2.4368,2.471,2.4033,2.3464,2.2843,2.2049,2.1913,2.2191,2.2228,2.2645,2.3106,2.3106,2.3106,2.3106,2.3106,2.3106,2.3106,2.3106,2.3106,2.2863,2.1859,2.1607,2.1229,2.0075,1.9176,1.8407,1.8279,1.8279,1.777,1.6229,1.6742,1.6737,1.5192,1.4272,1.3875,1.3875,1.3227,1.2836,1.2836,1.2836,1.2836,1.2836,1.2836,1.2836,1.2836,1.2836,1.2836,1.2836,1.2836,1.2836,1.2836,1.2836,1.2836,1.2836,1.2177,1.178,1.178,0.9775,0.8038,0.6566,0.5235,0.3764,0.2423,0.2289,0.2155,0.2155,0.2155,0.2157,0.2163,0.219,0.2205,0.2219,0.0,0.0,0.0,0.0,0.0,0.0,0.0,0.0,0.0,0.0,2.6965,2.6274,0.0,0.0,0.0,0.0,0.0,0.0,0.0,0.0,0.0,2.6844,2.7168,2.6744,2.5247,2.4923,2.4821,2.4821,2.4821,2.4821,2.4821,2.4821,2.4821,2.4821,2.4821,2.4821,2.4821,2.4821,2.4821,2.4821,2.4821,2.4821,2.4821,2.471,0.0,0.0,2.3576,2.3127,2.2843,2.2049,2.1913,2.2228,2.2469,2.2806,2.3106,2.3106,2.3106,2.3106,2.3106,2.3106,2.3106,2.3106,2.3106,2.2863,2.1859,2.1607,2.1096,1.9176,1.8664,1.8279,1.7383,1.726,1.7001,1.6099,1.6099,1.5969,1.5062,1.4272,1.3875,1.3875,1.3227,1.2836,1.2836,1.2836,1.2836,1.2836,1.2836,1.2836,1.2836,1.2836,1.2836,1.2836,1.2836,1.2836,1.2836,1.2836,1.2836,1.2836,1.2177,1.178,1.178,1.0714,0.9513,0.8171,0.67,0.0,0.3899,0.2691,0.2155,0.2155,0.2155,0.217,0.2193,0.2198,0.2232,0.2277,0.0,0.0,0.0,0.0,0.0,0.0,0.0,2.7262,2.7262,2.7262,2.7262,2.6965,2.6274,2.5781,2.5664,0.0,0.0,0.0,0.0,0.0,0.0,0.0,2.7384,2.6961,2.6209,2.567,2.5238,2.4821,0.0,2.4821,2.4821,2.4821,2.4821,2.4821,2.4821,2.4821,2.4821,2.4821,2.4821,2.4821,2.4821,2.4821,2.4821,2.4821,0.0,0.0,2.3464,2.3014,2.2875,2.2251,2.2052,2.2235,2.2528,2.2842,2.3106,2.3106,2.3106,2.3106,2.3106,2.3106,2.3106,2.3106,2.3106,2.2731,2.1222,2.0843,2.0202,1.8156,1.777,1.7512,1.713,1.7001,1.6748,1.6104,1.5714,1.5187,1.4534,1.3748,1.3358,1.3358,1.2968,1.2836,1.2836,1.2836,1.2836,1.2836,1.2836,1.2836,1.2836,1.2836,1.2836,1.2836,1.2836,1.2836,1.2836,1.2836,1.2836,1.2836,1.2177,1.178,1.178,1.0986,0.9915,0.8573,0.7905,0.6303,0.43,0.3631,0.2826,0.2157,0.2172,0.2187,0.2204,0.2236,0.2266,0.2293,0.0,0.0,0.0,0.0,0.0,0.0,0.0,2.7262,2.7262,2.7262,2.7262,2.7262,2.7262,2.6582,2.6326,0.0,0.0,0.0,0.0,0.0,0.0,0.0,0.0,0.0,2.7276,0.0,0.0,2.5238,2.4923,0.0,0.0,0.0,0.0,0.0,2.4821,2.4821,2.4821,2.4821,2.4821,0.0,0.0,2.4821,2.4821,0.0,0.0,0.0,0.0,2.3014,2.2898,2.243,2.2184,2.2242,2.2364,2.2653,2.3106,2.3106,2.3106,2.3106,2.3106,2.3106,2.3106,2.3106,2.3106,2.2598,2.0583,2.0075,1.9565,1.7389,1.7001,1.7001,1.7001,1.7001,1.6748,1.6104,1.5323,1.467,1.4006,1.3227,1.2836,1.2836,1.2836,1.2836,1.2836,1.2836,1.2836,1.2836,1.2836,1.2836,1.2836,1.2836,1.2836,1.2836,1.2836,1.2836,1.2836,1.2836,1.2704,1.2704,1.2045,1.178,1.1648,1.0986,1.005,0.8975,0.8709,0.7105,0.4701,0.4434,0.3497,0.2158,0.2188,0.2204,0.2217,0.2271,0.2294,0.2303,0.0,0.0,0.0,0.0,0.0,0.0,0.0,2.7262,2.7262,2.7262,2.7262,2.7262,2.7262,2.6582,2.64,0.0,0.0,0.0,0.0,0.0,0.0,0.0,0.0,0.0,0.0,0.0,0.0,2.6717,2.545,0.0,0.0,0.0,0.0,0.0,0.0,2.4821,2.4821,2.4821,0.0,0.0,0.0,0.0,0.0,0.0,0.0,0.0,0.0,2.3014,2.2898,2.243,2.2184,2.2166,2.1763,2.2334,2.3106,2.3106,2.3106,2.3106,2.3106,2.3106,2.3106,2.3106,2.3106,2.2598,2.0583,2.0075,1.9565,1.7389,1.7001,1.7001,1.7001,1.7001,1.6748,1.6104,1.5323,1.467,1.4006,1.3227,1.2836,1.2836,1.2836,1.2836,1.2836,1.2836,1.2836,1.2836,1.2836,1.2836,1.2836,1.2836,1.2836,1.2836,1.2836,1.2836,1.2836,1.2836,1.2704,1.2309,1.1912,1.1648,1.1247,1.0853,1.0588,1.0452,0.9111,0.7636,0.0,0.4833,0.3497,0.2158,0.2188,0.2217,0.2245,0.2279,0.2307,0.2329,0.0,0.0,0.0,0.0,0.0,0.0,2.7262,2.687,2.6774,2.7262,2.687,2.6774,2.7262,2.6965,2.6965,2.7262,0.0,0.0,0.0,0.0,0.0,0.0,0.0,0.0,0.0,0.0,2.6509,2.6617,2.5459,0.0,0.0,0.0,0.0,0.0,0.0,2.4821,2.4821,2.4821,0.0,0.0,0.0,0.0,0.0,0.0,0.0,0.0,0.0,0.0,2.2898,2.243,2.2184,2.2173,2.1673,2.1859,2.2237,2.2237,2.2613,2.3106,2.3106,2.3106,2.3106,2.3106,2.2981,2.2223,1.9935,1.9291,1.8518,1.6224,1.5709,1.5709,1.5709,1.5709,1.5709,1.5323,1.4796,1.4141,1.3875,1.3227,1.2836,1.2836,1.2836,1.2836,1.2836,1.2836,1.2836,1.2836,1.2836,1.2836,1.2836,1.2836,1.2836,1.2836,1.2836,1.2836,1.2836,1.2836,1.2704,1.2572,1.2045,1.178,1.1512,1.0986,1.0721,1.0721,1.005,0.9108,0.0,0.6168,0.4723,0.341,0.2491,0.2246,0.2276,0.2305,0.2323,0.2333,0.0,0.0,0.0,0.0,0.0,2.7262,2.7262,2.6582,2.639,2.7156,2.6582,2.639,2.7262,2.7061,2.7061,2.7262,2.6582,0.0,0.0,0.0,0.0,0.0,0.0,0.0,0.0,0.0,2.6409,2.6626,2.5348,2.5136,0.0,0.0,2.4821,2.4821,0.0,0.0,0.0,0.0,0.0,0.0,0.0,0.0,0.0,0.0,0.0,0.0,0.0,0.0,0.0,0.0,0.0,2.2173,2.1673,2.1607,2.1607,2.1607,2.1985,2.2606,2.2981,2.2988,2.2863,2.2988,2.2348,2.1328,1.9285,1.8384,1.7356,1.5318,1.4931,1.4931,1.4931,1.4931,1.4931,1.4931,1.4403,1.3875,1.3875,1.3227,1.2836,1.2836,1.2836,1.2836,1.2836,1.2836,1.2836,1.2836,1.2836,1.2836,1.2836,1.2836,1.2836,1.2836,1.2836,1.2836,1.2836,1.2836,1.2704,1.2441,1.2045,1.1648,1.1516,1.0986,1.0721,1.0721,1.0721,0.9915,0.0,0.6967,0.5546,0.4123,0.279,0.2264,0.2294,0.2322,0.2187,0.2042,0.0,0.0,0.0,0.0,0.0,0.0,2.7262,2.6582,2.639,2.7156,2.6582,2.639,2.7262,2.6582,2.639,2.7262,2.6582,0.0,0.0,0.0,0.0,0.0,0.0,0.0,0.0,0.0,2.6924,2.6924,2.545,2.4821,2.4821,2.4821,2.4821,2.4821,0.0,0.0,0.0,0.0,0.0,0.0,0.0,0.0,0.0,0.0,0.0,0.0,0.0,0.0,0.0,0.0,0.0,0.0,0.0,2.1607,2.1607,2.1607,2.1355,2.1362,2.2731,2.2606,2.223,2.248,2.1321,1.9782,1.8762,1.7479,1.6198,1.5057,1.4931,1.4931,1.4931,1.4931,1.4931,1.4931,1.4403,1.3875,1.3875,1.3227,1.2836,1.2836,1.2836,1.2836,1.2836,1.2836,1.2836,1.2836,1.2836,0.0,1.2836,1.2836,1.2836,1.2836,1.2836,1.2836,1.2836,1.2836,1.2441,1.178,1.178,1.1383,1.0721,1.0721,1.0721,1.0721,1.0721,0.9915,0.0,0.6967,0.5546,0.4123,0.279,0.2264,0.2294,0.2322,0.1896,0.1314,0.0,0.0,0.0,0.0,0.0,0.0,0.0,2.6582,2.639,2.7156,2.6582,2.639,2.7262,2.7061,2.7061,2.7262,2.6582,0.0,0.0,0.0,0.0,0.0,0.0,0.0,0.0,2.5049,2.5478,2.6231,2.5336,2.5136,2.5661,2.5026,2.4821,2.4821,2.4821,2.4821,0.0,0.0,0.0,0.0,0.0,0.0,0.0,0.0,0.0,0.0,0.0,0.0,0.0,0.0,0.0,0.0,0.0,0.0,0.0,2.0843,2.0976,2.1607,2.248,2.1964,2.1069,2.0936,1.9528,1.7988,1.67,1.5934,1.5038,1.3748,1.349,1.349,1.349,1.349,1.349,1.349,1.3227,1.3095,1.3095,1.2704,1.2572,1.2704,1.2836,1.2836,1.2836,1.2836,1.2836,1.2836,1.2836,1.2836,1.2836,1.2836,1.2836,1.2836,1.2836,1.2836,1.2836,1.2572,1.2309,1.2177,1.1644,1.1247,1.0982,1.0853,1.0721,1.0721,1.0721,1.0452,0.9915,0.844,0.7066,0.5696,0.419,0.3124,0.2176,0.1748,0.1751,0.1898,0.0,0.0,0.0,0.0,0.0,0.0,0.0,2.6582,2.639,2.7156,2.6582,2.639,2.7262,2.7262,2.7262,2.7262,2.687,0.0,0.0,0.0,0.0,0.0,0.0,0.0,2.458,2.4253,2.4425,2.5308,2.4806,2.4879,2.556,2.5026,2.4821,2.4821,2.5136,2.5136,0.0,0.0,0.0,0.0,0.0,0.0,2.4821,0.0,0.0,0.0,0.0,0.0,0.0,0.0,0.0,0.0,0.0,0.0,0.0,0.0,2.1096,2.1607,2.1601,2.0829,1.9928,1.9534,1.825,1.6581,1.5419,1.4646,1.3875,1.2968,1.2836,1.2836,1.2836,1.2836,1.2836,1.2836,1.2836,1.2704,1.2572,1.2441,1.2309,1.2441,1.2572,1.2572,1.2572,1.2704,1.2836,1.2836,1.2836,1.2836,1.2836,1.2836,1.2836,1.2836,1.2836,1.2836,1.2836,1.2441,1.2177,1.2045,1.1516,1.1115,1.0982,1.0853,1.0721,1.0721,1.0721,1.0721,0.0,0.9241,0.7764,0.6424,0.4893,0.3557,0.2188,0.1459,0.1314,0.1314,0.0,0.0,0.0,0.0,0.0,0.0,0.0,2.6678,2.6476,2.7167,2.6678,2.6486,2.7156,2.7262,2.7262,2.7262,0.0,0.0,0.0,0.0,0.0,0.0,0.0,0.0,2.5399,2.4278,2.3819,2.4153,2.4205,2.4419,2.4778,2.4804,2.4821,2.4821,2.567,2.556,0.0,0.0,0.0,0.0,0.0,0.0,0.0,0.0,0.0,0.0,0.0,0.0,0.0,0.0,0.0,0.0,0.0,0.0,0.0,0.0,0.0,0.0,0.0,1.9577,1.906,1.8646,1.7098,1.5689,1.5038,1.3744,0.0,1.2836,1.2836,1.2836,1.2836,1.2836,1.2836,1.2836,1.2836,1.2704,1.2309,1.2309,1.2177,1.178,1.2045,1.2309,1.2309,1.2572,1.2704,1.2704,1.2704,1.2704,1.2836,1.2836,1.2836,1.2836,1.2836,1.2836,1.2836,1.2441,1.2177,1.178,1.1383,1.0986,1.0721,1.0721,1.0721,0.0,1.0721,1.0721,1.0585,0.9244,0.79,0.6565,0.5172,0.3558,0.2189,0.146,0.073,0.0,0.0,0.0,0.0,0.0,0.0,0.0,0.0,0.0,0.0,0.0,2.7167,2.687,2.639,2.6965,2.7061,0.0,0.0,0.0,0.0,0.0,0.0,0.0,0.0,0.0,2.4162,2.3563,2.3297,2.3374,2.3948,2.4282,2.4376,2.4675,2.4821,2.4821,2.5034,2.5034,0.0,0.0,0.0,0.0,0.0,0.0,0.0,0.0,0.0,0.0,2.4599,2.4144,0.0,0.0,0.0,0.0,0.0,0.0,0.0,0.0,2.1607,2.1355,2.0335,0.0,1.8914,1.864,1.6452,1.4394,0.0,1.3486,1.2836,1.2836,1.2836,1.2836,1.2836,1.2836,1.2836,1.2836,1.2836,1.2704,1.2309,1.2045,1.178,1.1383,1.1648,1.1912,1.1912,1.2045,1.2177,1.2441,1.2441,1.2572,1.2836,1.2836,1.2836,1.2836,1.2836,1.2836,1.2836,1.2441,1.2177,1.178,1.1383,1.0986,1.0721,1.0721,1.0721,1.0721,1.0721,1.0721,1.0721,1.0316,0.9396,0.8099,0.6563,0.4545,0.2183,0.1458,0.073,0.0,0.0,0.0,0.0,0.0,0.0,0.0,0.0,0.0,0.0,0.0,0.0,2.7167,2.6678,2.7061,0.0,0.0,0.0,0.0,0.0,0.0,0.0,0.0,0.0,2.5099,2.4313,2.3643,2.344,2.3615,2.3911,2.4076,2.4239,2.4633,2.4821,2.4821,2.4821,2.5026,0.0,0.0,0.0,0.0,2.4821,0.0,0.0,0.0,0.0,0.0,2.4821,2.4368,0.0,2.3991,2.3543,2.3065,0.0,0.0,0.0,0.0,2.1985,2.2104,2.1096,2.0195,1.9425,1.8902,1.7356,1.5809,1.4777,1.4128,1.3617,1.2968,1.2836,1.2964,1.3613,1.3617,1.3621,1.3744,1.3486,1.2964,1.1909,1.1516,1.1251,1.0982,1.1251,1.1516,1.1516,1.1648,1.1912,1.2045,1.2045,1.2177,1.2309,1.2441,1.2572,1.2572,1.2704,1.2836,1.2836,1.2309,1.2045,1.178,1.1251,1.085,1.0721,1.0721,1.0721,1.0721,1.0721,1.0721,1.0721,1.0721,0.9943,0.8657,0.7122,0.4826,0.2181,0.1603,0.0729,0.0,0.0,0.0,0.0,0.0,0.0,0.0,0.0,0.0,0.0,0.0,0.0,0.0,0.0,0.0,0.0,0.0,0.0,0.0,0.0,0.0,0.0,0.0,2.61,2.5693,2.4894,2.4214,2.4017,2.4305,2.4018,2.4093,2.4455,2.4633,2.4821,2.4821,2.4821,2.5247,2.5872,2.5136,2.4821,2.4821,2.4821,0.0,0.0,0.0,0.0,0.0,0.0,0.0,0.0,2.4505,2.3925,2.3303,2.3558,0.0,0.0,0.0,0.0,0.0,2.2111,2.1222,2.0329,1.9553,1.8902,1.7993,1.6317,1.5549,1.4777,1.3354,1.3095,1.3486,1.4651,1.466,1.453,1.4782,1.4132,1.296,1.138,1.0853,1.0721,1.0721,1.0986,1.1118,1.1118,1.138,1.1648,1.1648,1.1648,1.178,1.178,1.2045,1.2177,1.2177,1.2441,1.2704,1.2704,1.2177,1.1912,1.178,1.1118,1.0721,1.0721,1.0721,1.0721,1.0721,0.0,0.0,1.0721,1.0721,1.0068,0.891,0.7395,0.5244,0.2753,0.2037,0.1166,0.0292,0.0,0.0,0.0,0.0,0.0,0.0,0.0,0.0,0.0,0.0,0.0,0.0,0.0,0.0,0.0,0.0,0.0,0.0,0.0,0.0,0.0,2.61,2.61,2.5693,2.4894,2.4796,2.4607,2.4305,2.4625,2.4915,2.5299,2.4963,2.4821,2.4821,2.4821,2.4923,2.5034,2.4821,2.4821,2.4821,2.4821,0.0,0.0,0.0,0.0,0.0,0.0,0.0,0.0,2.4919,2.4468,2.3913,2.3955,0.0,0.0,0.0,0.0,0.0,2.2863,2.2606,2.2104,2.1348,1.9801,1.8378,1.8122,1.7356,1.6333,1.4907,1.452,1.4525,1.453,1.4656,1.4786,1.453,1.3091,1.1909,1.1247,1.0853,1.0721,1.0721,1.0721,1.0721,1.0721,1.0853,1.0986,1.1247,1.1247,1.1383,1.178,1.1912,1.1912,1.1912,1.1912,1.1912,1.1912,1.2177,1.2045,1.178,1.1383,1.0986,1.0721,1.0721,1.0721,1.0721,0.0,1.0721,1.0721,1.0721,1.0689,1.0444,0.9035,0.7044,0.4719,0.2895,0.2039,0.1752,0.0,0.0,0.0,0.0,0.0,0.0,0.0,0.0,0.0,0.0,0.0,0.0,0.0,0.0,0.0,0.0,0.0,0.0,0.0,0.0,2.6965,2.61,2.6486,2.638,2.5596,2.5596,2.5604,2.5638,2.5142,2.5336,2.6153,2.5702,2.545,2.545,2.5034,2.4821,2.4821,2.4821,2.4821,2.4821,0.0,0.0,0.0,0.0,0.0,0.0,0.0,0.0,0.0,0.0,2.4869,2.4039,2.4507,0.0,0.0,0.0,0.0,0.0,2.3106,2.2981,2.2731,2.223,2.1209,1.9928,1.9152,1.8512,1.7748,1.6328,1.6073,1.6203,1.6602,1.6602,1.6213,1.4917,1.3477,1.2169,1.1115,1.0853,1.0721,1.0721,1.0721,1.0721,1.0721,1.0721,1.0721,1.0986,1.0982,1.0986,1.1251,1.138,1.1512,1.1512,1.1648,1.178,1.178,1.178,1.1644,1.1512,1.1115,1.0853,1.0721,1.0721,1.0721,1.0721,0.0,1.0721,1.0721,1.0721,1.0809,1.0826,0.9308,0.7741,0.585,0.3185,0.2186,0.1751,0.0,0.0,0.0,0.0,0.0,0.0,0.0,0.0,0.0,0.0,0.0,0.0,0.0,0.0,0.0,0.0,0.0,0.0,0.0,2.7262,2.7061,2.639,2.6965,2.6965,2.61,2.6383,2.6653,2.6903,2.59,2.5779,2.6611,2.6488,2.63,2.6082,2.5247,2.4821,2.4821,2.4821,2.4821,2.4821,0.0,0.0,0.0,0.0,0.0,0.0,0.0,0.0,0.0,0.0,0.0,0.0,0.0,0.0,0.0,2.3106,2.3106,2.3106,2.3106,2.2981,2.2856,2.2606,2.223,2.1475,2.0309,1.9801,1.9164,1.7748,1.749,1.7625,1.8407,1.8285,1.7512,1.5819,1.4646,1.3346,1.1901,1.1376,1.1244,1.1244,1.085,1.0721,1.0721,1.0721,1.0721,1.0721,1.0721,1.0721,1.0721,1.0982,1.1115,1.1115,1.138,1.1516,1.1516,1.1251,1.1118,1.1247,1.0853,1.0721,1.0721,1.0721,1.0721,1.0721,1.0721,1.0721,1.0721,1.0721,1.0789,1.0772,0.9677,0.8286,0.6425,0.3478,0.2041,0.1604,0.0,0.0,0.0,0.0,0.0,0.0,0.0,0.0,0.0,0.0,0.0,0.0,0.0,0.0,0.0,0.0,0.0,0.0,0.0,2.7262,2.7262,2.7262,2.7262,2.6965,2.61,2.7171,2.7598,2.7219,2.6825,2.6398,2.6155,2.6933,2.6844,2.6082,2.5247,2.4821,2.4821,2.4821,2.4821,2.4821,2.4821,0.0,0.0,0.0,0.0,0.0,0.0,0.0,0.0,0.0,0.0,0.0,0.0,0.0,2.386,2.3238,2.3106,2.3106,2.3106,2.2856,2.2613,2.2613,2.2606,2.2355,2.1601,2.1481,2.0969,1.9164,1.8908,1.8786,1.8536,1.8285,1.7899,1.7753,1.6333,1.5043,1.4646,1.3468,1.2688,1.2688,1.1508,1.0721,1.0721,1.0721,1.0721,1.0721,1.0721,1.0721,1.0721,1.0721,1.0721,1.0721,1.0721,1.0721,1.0721,1.0721,1.085,1.1247,1.0853,1.0721,1.0721,1.0721,1.0721,1.0721,1.0721,1.0721,1.0721,1.0721,1.0727,1.0751,1.0769,0.919,0.6425,0.3478,0.2333,0.2187,0.0,0.0,0.0,0.0,0.0,0.0,0.0,0.0,0.0,0.0,0.0,0.0,0.0,0.0,0.0,0.0,0.0,0.0,0.0,2.7262,2.7262,2.7262,2.7521,2.7579,2.7278,2.7636,2.8089,2.8513,2.8649,2.8096,2.6952,2.7814,2.7716,2.6844,2.6527,2.61,2.5661,2.6209,2.61,2.556,2.556,2.5238,0.0,0.0,0.0,0.0,0.0,0.0,0.0,0.0,2.5469,2.5118,2.5602,2.4972,2.4108,2.386,2.3487,2.3106,2.3106,2.2863,2.2606,2.2606,2.2606,2.2355,2.1734,2.1607,2.1355,2.0462,2.0335,2.0208,1.9826,1.9316,1.867,1.7888,1.698,1.6078,1.5038,1.3731,1.2816,1.2816,1.1508,1.0721,1.0721,1.0721,1.0721,1.0721,1.0721,1.0721,1.0721,1.0721,1.0721,1.0721,1.0721,1.0721,1.0721,1.0721,1.0721,1.085,1.0721,1.0721,1.0721,1.0721,1.0721,1.0721,1.0721,1.0721,1.0721,1.0721,1.0721,1.0611,0.989,0.841,0.6567,0.449,0.3205,0.2333,0.0,0.0,0.0,0.0,0.0,0.0,0.0,0.0,0.0,0.0,0.0,0.0,0.0,0.0,0.0,0.0,0.0,0.0,2.7262,2.7262,2.7324,2.7458,2.7759,2.8059,2.8349,2.8359,2.8669,2.9301,2.9766,2.9227,2.7824,2.8475,2.8252,2.7384,2.706,2.6626,2.6082,2.6418,2.6418,2.6082,2.5762,2.5348,0.0,0.0,0.0,0.0,0.0,0.0,0.0,0.0,2.5661,2.5502,2.5998,2.5456,2.4595,2.4232,2.3736,2.3355,2.3113,2.2988,2.2738,2.2613,2.2606,2.2355,2.1734,2.1734,2.1607,2.1235,2.1109,2.0982,2.0609,2.0094,1.945,1.8285,1.7888,1.7372,1.6338,1.4646,1.3468,1.3468,1.1769,1.0721,1.0721,1.0721,1.0721,1.0721,1.0721,1.0721,1.0721,1.0721,1.0721,1.0721,1.0721,1.0721,1.0721,1.0721,1.0721,1.0721,1.0721,1.0721,1.0721,1.0721,1.0721,1.0721,1.0721,1.0721,1.0721,1.0721,1.0721,1.0611,0.9211,0.8114,0.7091,0.5323,0.4062,0.3206,0.0,0.0,0.0,0.0,0.0,0.0,0.0,0.0,0.0,0.0,0.0,0.0,0.0,0.0,0.0,0.0,0.0,0.0,2.7262,2.7262,2.7458,2.7903,2.7924,2.8359,2.929,2.9311,2.9311,2.9311,2.9766,2.9554,2.8688,2.8688,2.8252,2.7384,2.6518,2.6082,2.6091,2.5247,2.5348,2.6091,2.5136,2.4821,2.4821,0.0,0.0,0.0,0.0,0.0,0.0,0.0,2.6182,2.6432,2.6202,2.6075,2.5831,2.4479,2.4108,2.3984,2.323,2.3106,2.2981,2.2738,2.2606,2.2355,2.1734,2.1859,2.1859,2.1235,2.1109,2.0982,2.0609,2.0361,1.9973,1.9705,1.9328,1.9078,1.9078,1.6726,1.4907,1.4907,1.2425,1.0721,1.0721,1.0721,1.0721,1.0721,1.0721,1.0721,1.0721,1.0721,1.0721,1.0721,1.0721,1.0721,1.0721,1.0721,1.0721,1.0721,1.0721,1.0721,1.0721,1.0721,1.0721,1.0721,1.0721,1.0721,1.0721,1.0721,1.0721,1.0601,0.9115,0.8692,0.839,0.5534,0.4894,0.495,0.0,0.0,0.0,0.0,0.0,0.0,0.0,0.0,0.0,0.0,0.0,0.0,0.0,0.0,0.0,0.0,0.0,0.0,2.7262,2.7262,2.7458,2.7903,2.8235,2.869,2.929,2.9622,2.9464,2.8931,2.9597,2.9554,2.8688,2.9343,2.9122,2.8368,2.8688,2.8475,2.7931,2.7618,2.7286,2.6952,2.6091,2.5348,2.4821,0.0,0.0,0.0,0.0,0.0,0.0,0.0,0.0,0.0,2.6703,2.6449,2.6075,2.5578,2.4849,2.4108,2.386,2.3238,2.2738,2.2856,2.2606,2.2237,2.1985,2.1859,2.1607,2.1235,2.1109,2.1109,2.0982,2.0488,2.0106,1.9979,1.9462,1.9078,1.9078,1.6726,1.4907,1.4907,1.2425,1.0721,1.0721,1.0721,1.0721,1.0721,1.0721,1.0721,1.0721,1.0721,1.0721,1.0721,1.0721,1.0721,1.0721,1.0721,1.0721,1.0721,1.0721,1.0721,1.0721,1.0721,1.0721,1.0721,1.0721,1.0721,1.0721,1.0721,1.0721,1.0734,1.0341,0.96,0.842,0.6784,0.4859,0.3017,0.0,0.0,0.0,0.0,0.0,0.0,0.0,0.0,0.0,0.0,2.7262,2.7262,0.0,0.0,0.0,0.0,0.0,0.0,2.7262,2.7427,2.7728,2.8173,2.8638,2.9104,2.957,2.9849,2.9774,2.9237,2.9774,2.9774,2.9237,2.9448,2.9016,2.8262,2.8688,2.8688,2.8145,2.7824,2.7599,2.7276,2.6409,2.556,2.4821,0.0,0.0,0.0,0.0,0.0,0.0,0.0,0.0,0.0,2.7004,2.6822,2.6449,2.5839,2.5095,2.4363,2.386,2.3238,2.2856,2.2863,2.2606,2.2237,2.1985,2.1607,2.1355,2.1109,2.1109,2.1109,2.0982,2.0488,2.0106,1.9973,1.9462,1.9078,1.9078,1.6726,1.4907,1.4907,1.2425,1.0721,1.0721,1.0721,1.0721,1.0721,1.0721,1.0721,1.0721,1.0721,1.0721,1.0721,1.0721,1.0721,1.0721,1.0721,1.0721,1.0721,1.0721,1.0721,1.0721,1.0721,1.0721,1.0721,1.0721,1.0721,1.0721,1.0721,1.0721,1.0727,1.0822,1.0348,0.9328,0.7855,0.5958,0.3855,0.0,0.0,0.0,0.0,0.0,0.0,0.0,0.0,0.0,0.0,2.7262,2.7262,0.0,0.0,0.0,0.0,0.0,0.0,0.0,2.7676,2.8131,2.8597,2.9094,2.9559,2.9984,2.9994,2.9994,2.9994,2.9994,2.9994,2.9994,2.9237,2.8368,2.7599,2.7599,2.7599,2.7599,2.6626,2.6735,2.7394,2.6418,2.556,2.5034,2.5661,0.0,0.0,0.0,0.0,0.0,0.0,0.0,0.0,2.7073,2.7073,2.683,2.5602,2.5234,2.4857,2.3604,2.323,2.2988,2.2731,2.2606,2.2355,2.1734,2.1355,2.1109,2.1109,2.1109,2.0982,2.0736,2.0354,2.01,1.9705,1.9328,1.92,1.92,1.6732,1.4907,1.4907,1.2425,1.0721,1.0721,1.0721,1.0721,1.0721,1.0721,1.0721,1.0721,1.0721,1.0721,1.0721,1.0721,1.0721,1.0721,1.0721,1.0721,1.0721,1.0721,1.0721,1.0721,1.0721,1.0721,1.0721,1.0721,1.0721,1.0721,1.0721,1.0721,1.0721,1.0721,1.0806,1.0674,0.888,0.7881,0.6701,0.0,0.0,0.0,0.0,0.0,0.0,0.0,0.0,0.0,0.0,0.0,0.0,0.0,0.0,0.0,0.0,0.0,0.0,0.0,2.7676,2.8131,2.8597,2.9404,2.9891,2.9994,2.9994,2.9994,2.9994,2.9994,2.9994,2.9994,2.9774,2.9669,2.9448,2.9448,2.9448,2.9343,2.7824,2.7599,2.8252,2.5999,2.5348,2.5771,2.5238,2.5216,0.0,0.0,0.0,0.0,0.0,0.0,0.0,2.7073,2.7073,2.7073,2.6709,2.597,2.4988,2.4734,2.386,2.3113,2.2988,2.2731,2.2355,2.1734,2.1481,2.1355,2.1109,2.1109,2.1109,2.0982,2.0736,2.0482,2.0348,1.9839,1.945,1.945,1.6856,1.4907,1.4907,1.2425,1.0721,1.0721,1.0721,1.0721,1.0721,1.0721,1.0721,1.0721,1.0721,1.0721,1.0721,1.0721,1.0721,1.0721,1.0721,1.0721,1.0721,1.0721,1.0721,1.0721,1.0721,1.0721,1.0721,1.0721,1.0721,1.0721,1.0721,1.0721,1.0721,1.0721,1.0741,1.0518,0.8753,0.8613,0.8599,0.0,0.0,0.0,0.0,0.0,0.0,0.0,0.0,0.0,0.0,0.0,0.0,0.0,0.0,0.0,0.0,0.0,0.0,0.0,0.0,2.8556,2.9249,2.9735,2.9994,2.9994,2.9994,2.9994,2.9994,2.9994,2.9994,2.9994,2.9122,2.9016,2.9343,2.891,2.8794,2.8688,2.8252,2.7814,2.7384,2.6427,2.578,2.545,2.5459,2.5362,2.5395,2.5574,0.0,0.0,0.0,0.0,0.0,0.0,0.0,2.7073,2.67,2.6083,2.5464,2.4857,2.4108,2.3487,2.3238,2.2856,2.2487,2.2111,2.1859,2.1607,2.1362,2.1235,2.1109,2.1109,2.0862,2.0609,2.0609,2.0221,1.9839,1.9577,1.763,1.5819,1.5038,1.2947,1.1376,1.0717,1.0721,1.0721,1.0721,1.0721,1.0721,1.0721,1.0721,1.0721,1.0721,1.0721,1.0721,1.0721,1.0721,1.0721,1.0721,1.0721,1.0721,1.0721,1.0721,1.0721,1.0721,1.0721,1.0721,1.0721,1.0721,1.0721,1.0721,1.0721,1.0721,1.0605,0.9393,0.9368,0.9198,0.0,0.0,0.0,0.0,0.0,0.0,0.0,0.0,0.0,0.0,0.0,0.0,0.0,0.0,0.0,0.0,0.0,0.0,0.0,0.0,0.0,2.9953,2.9994,2.9994,2.9994,2.9994,2.9889,2.9774,2.9889,2.9889,2.9564,2.8359,2.8252,2.891,2.8145,2.7824,2.7931,2.8262,2.7707,2.6518,2.6844,2.6209,2.5034,2.5741,2.5784,2.5515,2.59,2.6268,2.6636,2.697,0.0,0.0,0.0,0.0,2.6952,2.6449,2.6197,2.5831,2.4726,2.4232,2.3984,2.323,2.2856,2.2606,2.2606,2.2111,2.1734,2.1607,2.1362,2.1109,2.1109,2.0856,2.0736,2.0736,2.0361,2.01,1.9833,1.8407,1.6856,1.5168,1.3731,1.2293,1.0853,1.0721,1.0721,1.0721,1.0721,1.0721,1.0721,1.0721,1.0721,1.0721,1.0721,1.0721,1.0721,1.0721,1.0721,1.0721,1.0721,1.0721,1.0721,1.0721,1.0721,1.0721,1.0721,1.0721,1.0721,1.0721,1.0721,1.0721,1.0721,1.0721,1.0601,1.0046,0.9721,0.9248,0.0,0.0,0.0,0.0,0.0,0.0,0.0,0.0,0.0,0.0,2.7262,2.7262,0.0,0.0,0.0,0.0,0.0,0.0,0.0,0.0,0.0,2.9973,2.9994,2.9994,2.9994,2.9994,2.9669,2.891,2.9669,2.9237,2.7824,2.9016,2.9669,2.9784,2.9669,2.9669,2.9564,2.8145,2.7931,2.8145,2.5999,2.5459,2.5907,2.5604,2.5637,2.5908,2.6285,2.6662,2.7004,2.7056,2.7073,0.0,0.0,0.0,2.7073,2.6952,2.6571,2.6075,2.5831,2.4964,2.3984,2.323,2.3106,2.2988,2.2606,2.2487,2.2362,2.1734,2.1362,2.1109,2.1109,2.1109,2.0982,2.0982,2.0736,2.0482,2.0482,1.8798,1.698,1.5544,1.3857,1.2293,1.0853,1.0721,1.0721,1.0721,1.0721,1.0721,1.0721,1.0721,1.0721,1.0721,1.0721,1.0721,1.0721,1.0721,1.0721,1.0721,1.0721,1.0721,1.0721,1.0721,1.0721,1.0721,1.0721,1.0721,1.0721,1.0721,1.0721,1.0721,1.0721,1.0721,1.0591,0.9946,0.9645,0.922,0.0,0.0,0.0,0.0,0.0,0.0,0.0,0.0,0.0,0.0,0.0,2.7262,0.0,0.0,0.0,0.0,0.0,0.0,0.0,0.0,0.0,2.9984,2.9994,2.9994,2.9994,2.9994,2.9774,2.9448,2.9774,2.9343,2.8145,2.9448,2.9774,2.9237,2.9237,2.9237,2.9237,2.8465,2.7824,2.7168,2.6527,2.6209,2.6127,2.6104,2.6608,2.7459,2.7266,2.7546,2.7891,2.7891,2.7547,2.7073,2.7073,0.0,0.0,0.0,2.6943,2.6449,2.5717,2.4849,2.3984,2.323,2.3106,2.3113,2.2856,2.2738,2.248,2.2237,2.1734,2.1362,2.1109,2.1109,2.1109,2.1109,2.0982,2.0856,2.0609,1.9833,1.8536,1.685,1.5159,1.3595,1.2029,1.1111,1.0721,1.0721,1.0721,1.0721,1.0721,1.0721,1.0721,1.0721,1.0721,1.0721,1.0721,1.0721,1.0721,1.0721,1.0721,1.0721,1.0721,1.0721,1.0721,1.0721,1.0721,1.0721,1.0721,1.0721,1.0721,1.0721,1.0721,1.0588,1.0323,0.9927,0.9719,0.912,0.0,0.0,0.0,0.0,0.0,0.0,0.0,0.0,0.0,0.0,0.0,0.0,0.0,0.0,0.0,0.0,0.0,0.0,0.0,0.0,0.0,2.9994,2.9994,2.9994,2.9994,2.9994,2.9889,2.9669,2.9889,2.9448,2.8368,2.9459,2.9554,2.8688,2.891,2.891,2.8688,2.89,2.7931,2.6518,2.7276,2.7159,2.6464,2.6984,2.7818,2.8597,2.8413,2.8446,2.848,2.848,2.79,2.7073,2.7073,2.7073,0.0,0.0,0.0,2.683,2.5717,2.4972,2.4355,2.3604,2.3362,2.3362,2.3106,2.2863,2.2731,0.0,2.2111,2.1607,2.1229,2.1109,2.1109,2.1109,2.1109,2.0982,2.0736,2.0609,1.9833,1.8016,1.6711,1.5284,1.3075,1.2029,1.1244,1.0721,1.0721,1.0721,1.0721,1.0721,1.0721,1.0721,1.0721,1.0721,1.0721,1.0721,1.0721,1.0721,1.0721,1.0721,1.0721,1.0721,1.0721,1.0721,1.0721,1.0721,1.0721,1.0721,1.0721,1.0721,1.0588,1.0455,1.0193,0.9661,0.9546,0.9177,0.0,0.0,0.0,0.0,0.0,0.0,0.0,0.0,0.0,0.0,0.0,0.0,2.7262,2.7262,2.7427,2.7852,2.8307,2.897,2.9901,2.9984,2.9994,2.9994,2.9994,0.0,2.9994,2.9994,2.9564,2.8794,2.9564,2.9122,2.7492,2.9237,2.9554,2.8688,2.9554,2.9448,2.8688,2.9207,2.8668,2.7384,2.7912,2.7805,2.7371,2.8191,2.8512,2.8748,2.9562,2.9275,2.848,2.848,2.79,2.7073,2.7073,2.7073,2.7073,0.0,0.0,0.0,2.6197,2.6075,2.57,2.4348,2.4108,2.386,2.323,2.3113,2.2988,2.2606,2.2355,2.1985,2.1607,2.1355,2.1109,2.1109,2.1109,2.1109,2.1109,2.0862,2.0081,1.864,1.8127,1.6705,1.3582,1.3193,1.2545,1.085,1.0721,1.0721,1.0721,1.0721,1.0721,1.0721,1.0721,1.0721,1.0721,1.0721,1.0721,1.0721,1.0721,1.0721,1.0721,1.0721,1.0721,1.0721,1.0721,1.0721,1.0721,1.0721,1.0721,1.0721,1.0323,1.0193,1.0057,0.9386,0.9407,0.9166,0.0,0.0,0.0,0.0,0.0,0.0,0.0,0.0,0.0,0.0,0.0,0.0,0.0,2.751,2.7748,2.7914,2.8618,2.9321,2.9953,2.9994,2.9994,2.9994,2.9994,2.9994,2.9994,2.9994,2.9889,2.9554,2.9889,2.9343,2.8252,2.9448,2.9554,2.8688,2.9564,2.9564,2.9016,2.9323,2.8784,2.7716,2.8668,2.9156,2.9369,2.9859,3.06,3.138,3.1401,3.0917,3.0236,2.9648,2.871,2.79,2.7306,2.7073,2.7073,2.7073,2.7073,2.6952,2.6319,2.6075,2.5831,2.498,2.4355,2.3984,2.386,2.3362,2.3106,2.2981,2.2606,2.2362,2.223,2.1607,2.1109,2.1109,2.1109,2.1109,2.1109,2.0982,2.0596,1.9947,1.8908,1.7479,1.5154,1.411,1.2939,1.1115,1.0986,1.0982,1.0721,1.0721,1.0721,1.0721,1.0721,1.0721,1.0721,1.0721,1.0721,1.0721,1.0721,1.0721,1.0721,1.0721,1.0721,1.0721,1.0721,1.0721,1.0721,1.0721,1.0588,1.0323,1.019,0.9924,0.9519,0.925,0.9004,0.8488,0.0,0.0,0.0,0.0,0.0,0.0,0.0,0.0,2.7262,2.7262,0.0,0.0,0.0,0.0,2.8048,2.8359,2.9094,2.9673,2.9973,2.9994,2.9994,2.9994,2.9994,2.9994,2.9994,2.9849,2.9839,2.9994,2.9839,2.9516,2.9122,2.9774,2.9669,2.9132,2.9973,2.9869,2.9333,3.0151,2.9618,2.8475,3.0108,3.0779,3.0805,3.1079,3.2065,3.3087,3.2612,3.2197,3.1727,3.0917,3.0109,2.9057,2.7891,2.7306,2.7073,2.7073,2.7073,2.6952,2.6571,2.6449,2.6327,2.5594,2.5095,2.4595,2.4232,2.3736,2.3355,2.3106,2.2863,2.2606,2.2606,2.1985,2.1362,2.1235,2.1109,2.1109,2.1109,2.1109,2.0982,2.0729,1.9941,1.8646,1.6969,1.5923,1.4493,1.2289,1.2029,0.0,1.0853,1.0721,1.0721,1.0721,1.0721,1.0721,1.0721,1.0721,1.0721,1.0721,1.0721,1.0721,1.0721,1.0721,1.0721,1.0721,1.0721,1.0721,1.0721,1.0588,1.0455,1.019,0.9921,0.9519,0.9117,0.8984,0.8734,0.8215,0.0,0.0,0.0,0.0,0.0,0.0,0.0,0.0,2.7357,2.7357,0.0,0.0,0.0,0.0,0.0,2.9249,2.9735,2.9994,2.9994,2.9994,2.9994,2.9994,2.9994,2.9994,2.9994,2.9559,2.9539,2.9994,2.9539,2.9559,2.9994,2.9994,2.9994,2.9994,3.0588,3.0359,2.9733,3.1586,3.1289,2.9795,3.2257,3.2581,3.1774,3.1991,3.2791,3.3759,3.2983,3.2892,3.2964,3.2405,3.1592,3.0548,2.8938,2.7779,2.7073,2.7073,2.7073,2.7073,0.0,0.0,0.0,2.6319,2.6067,2.5709,2.4479,0.0,2.386,2.323,2.2856,2.2606,2.2606,2.2355,2.1985,2.1734,2.1355,2.1109,2.1109,2.1109,2.1109,2.1109,2.1109,2.0456,1.864,1.8506,1.7216,1.411,1.3456,1.2676,1.1247,1.085,1.0721,1.0721,1.0721,1.0721,1.0721,1.0721,1.0721,1.0721,1.0721,1.0721,1.0721,1.0721,1.0721,1.0721,1.0721,1.0721,1.0721,1.0323,1.019,1.0057,0.9383,0.9117,0.8984,0.872,0.8598,0.8341,0.0,0.0,0.0,0.0,0.0,2.8362,2.8538,2.8445,2.8269,0.0,0.0,0.0,2.8752,2.8838,2.9156,2.9746,2.9922,2.9994,2.9994,2.9994,2.9994,2.9994,2.9994,2.9994,2.9994,2.987,2.987,2.9994,2.987,2.987,2.9994,2.9994,2.9994,2.9994,3.1013,3.1208,3.1094,3.2004,3.1885,3.1064,3.2597,3.3409,3.3755,3.3464,3.3988,3.4858,3.4202,3.3808,3.3367,3.254,3.1255,2.9874,2.8011,2.7306,2.7073,2.7073,2.7073,2.7073,2.7073,0.0,0.0,0.0,0.0,0.0,2.498,0.0,2.386,2.323,2.2988,2.2988,2.2988,2.2731,2.2487,2.2355,2.1859,2.1488,2.1488,2.1235,2.1109,2.1109,2.1109,2.0462,1.9036,1.8902,1.7613,0.0,1.4115,1.3206,1.1247,1.085,1.0721,1.0721,1.0721,1.0721,1.0721,1.0721,1.0721,1.0721,1.0721,1.0721,1.0721,1.0721,1.0721,1.0721,1.0721,1.0721,1.0721,1.0323,0.9921,0.9383,0.9117,0.8984,0.872,0.8587,0.8598,0.848,0.0,0.0,0.0,2.9268,2.9084,2.8991,2.936,2.9084,2.8806,0.0,0.0,0.0,3.0035,3.0319,3.0477,3.066,3.0713,3.0713,3.0713,3.0495,3.0287,3.0287,3.0088,2.9994,2.9994,2.9808,2.9798,2.9994,2.9798,2.9902,3.0287,3.0088,3.0203,3.0703,3.1322,3.1721,3.2026,3.2746,3.2788,3.2339,3.3406,3.4189,3.4695,3.423,3.4802,3.5708,3.4814,3.4145,3.3695,3.3561,3.2052,2.9982,2.871,2.7779,2.7073,2.7073,2.7073,2.7073,2.7073,2.7073,2.7073,2.7073,0.0,0.0,2.5357,2.4857,2.4232,0.0,2.3106,2.3106,2.3106,2.2981,2.2863,2.2863,2.2355,2.1985,2.1859,2.1481,2.1362,2.1362,2.1235,2.0722,1.9947,1.9297,1.8005,1.5679,1.4772,1.3468,1.1247,1.0986,1.0853,1.0721,1.0721,1.0721,1.0721,1.0721,1.0721,1.0721,1.0721,1.0721,1.0721,1.0721,1.0721,1.0721,1.0721,1.0588,1.0455,1.019,0.9791,0.9253,0.8987,0.872,0.8587,0.8587,0.8595,0.8603,0.0,0.0,2.9897,2.9988,2.9715,2.9624,2.9988,2.9624,2.9268,0.0,3.0227,3.1099,3.1438,3.1814,3.1928,3.1779,3.1618,3.1618,3.1618,3.1105,3.0888,3.0888,3.0391,3.0203,3.0203,2.9797,2.9786,3.0203,2.9786,2.9982,3.0888,3.0391,3.0713,3.1618,3.1618,3.1913,3.2443,3.3571,3.3731,3.3432,3.4462,3.4858,3.4904,3.4659,3.5256,3.6157,3.5035,3.4458,3.4202,3.4792,3.3304,3.0897,2.9992,2.871,2.7427,2.7194,2.7194,2.7194,2.7073,2.7073,2.7073,2.7073,2.7073,0.0,2.548,2.5226,2.4857,0.0,2.3355,2.3355,2.3355,2.3238,2.3238,2.3238,2.2856,2.248,2.2237,2.1859,2.1607,2.1607,2.1362,2.1109,2.1109,1.9941,1.8652,1.7109,1.5294,1.3337,1.138,1.1247,1.1118,1.0721,1.0721,1.0721,1.0721,1.0721,1.0721,1.0721,1.0721,1.0721,1.0721,1.0721,1.0721,1.0721,1.0721,1.0588,1.019,0.9794,0.9661,0.9528,0.8856,0.8587,0.8587,0.8587,0.8587,0.8587,0.0,3.0563,3.0742,3.1134,3.15,3.1589,3.1311,3.0956,3.0956,3.15,3.1972,3.2441,3.2732,3.2137,3.1916,3.251,3.2015,3.1618,3.1618,3.1516,3.1414,3.1414,3.1311,3.1322,3.1322,3.1224,3.1224,3.1322,3.1224,3.1224,3.1414,3.1322,3.1424,3.1629,3.2015,3.2308,3.2443,3.3571,3.4154,3.4589,3.5187,3.5573,3.5911,3.5443,3.5708,3.6157,3.5477,3.5146,3.4902,3.3314,3.2737,3.2156,2.963,2.9403,2.9738,2.7659,2.7659,2.8011,2.7306,2.7073,2.7073,2.7073,2.7073,0.0,2.6075,2.5953,2.5709,0.0,2.4734,2.4734,2.4734,2.4232,2.386,2.386,2.3362,2.2863,2.2606,2.223,2.1859,2.1607,2.1481,2.1362,2.1109,2.0849,1.9686,1.7238,1.4385,1.2568,1.2177,1.1512,1.1118,1.1115,1.0853,1.0721,1.0721,1.0721,1.0721,1.0721,1.0721,1.0721,1.0721,1.0721,1.0721,1.0721,1.0721,1.0721,1.0588,0.9927,0.9525,0.912,0.872,0.8587,0.8587,0.8587,0.8587,0.8587,3.1565,3.1828,3.219,3.2476,3.2476,3.2476,3.2488,3.2202,3.2113,3.2683,3.3314,3.3787,3.3921,3.3371,3.3012,3.3047,3.2656,3.2454,3.2454,3.2128,3.2015,3.2015,3.1721,3.1618,3.1618,3.1618,3.1618,3.1618,3.1618,3.1721,3.2015,3.1721,3.1936,3.2454,3.242,3.2656,3.3232,3.4074,3.4693,3.5175,3.5416,3.5603,3.5817,3.5817,3.5817,3.5817,3.5817,3.5817,3.5477,3.3427,3.2499,3.2031,3.0198,2.963,2.9285,2.7659,2.7779,2.825,2.7306,2.7073,2.7073,2.7073,2.7073,0.0,0.0,2.6075,2.5953,2.5226,2.5111,2.5111,2.5111,2.461,2.4108,2.4108,2.3487,2.2981,2.2856,2.2613,2.2237,2.2111,2.1859,2.1481,2.1355,1.9941,1.7876,1.5168,1.3481,1.2441,1.2309,1.1909,1.1644,1.1247,1.0982,1.0853,1.0721,1.0721,1.0721,1.0721,1.0721,1.0721,1.0721,1.0721,1.0721,1.0721,1.0721,1.0721,1.0588,0.9927,0.9525,0.9389,0.8853,0.8587,0.8587,0.8587,0.8587,0.8587,3.2834,3.3189,3.3556,3.3398,3.3189,3.3079,3.3386,3.3106,3.3121,3.364,3.4311,3.4903,3.5095,3.4535,3.4028,3.3557,3.3381,3.3281,3.3281,3.2846,3.2521,3.2521,3.2128,3.1936,3.1936,3.1936,3.1936,3.1936,3.1936,3.2128,3.2521,3.2139,3.2454,3.3281,3.2745,3.3107,3.4039,3.4578,3.5083,3.5531,3.5623,3.5574,3.5488,3.6048,3.5938,3.5488,3.6048,3.6157,3.5697,3.3754,3.2613,3.1802,3.0655,2.9865,2.8938,2.7547,2.79,2.848,2.7427,2.7073,2.7073,2.7073,2.7073,2.6952,0.0,0.0,0.0,2.5602,2.548,2.548,2.548,0.0,0.0,2.4479,0.0,0.0,0.0,2.2981,0.0,2.2613,2.2111,2.1734,2.1607,1.9036,1.6333,1.3744,1.3354,1.2964,1.2441,1.2309,1.2045,1.1383,1.1247,1.0982,1.0721,1.0721,1.0721,1.0721,1.0721,1.0721,1.0721,1.0721,1.0721,1.0721,1.0721,1.0721,1.0588,0.9927,0.9661,0.9661,0.8856,0.8587,0.8587,0.8587,0.8587,0.8587,3.4134,3.423,3.4063,3.3484,3.381,3.4063,3.3471,3.3792,3.4376,3.5555,3.5151,3.5132,3.6382,3.4678,3.3656,3.4201,3.3656,3.3281,3.3281,3.3281,3.3181,3.3181,3.3181,3.3081,3.3081,3.3081,3.3081,3.3081,3.3081,3.3181,3.3181,3.3181,3.3181,3.3281,3.3281,3.3545,3.4039,3.4578,3.5083,3.5554,3.6002,3.5881,3.5488,3.6048,3.5938,3.5488,3.6048,3.5598,3.458,3.3427,3.3077,3.2499,2.963,3.01,3.1139,2.8011,2.8361,2.9294,2.7547,2.7073,2.7073,2.7073,2.7073,2.7073,2.6952,0.0,2.6952,2.6952,0.0,2.683,2.683,0.0,0.0,2.5823,0.0,0.0,2.3984,2.3479,2.2988,2.2613,2.2487,2.2237,2.1607,1.9935,1.8133,1.6586,1.5429,1.4132,1.2836,1.2441,1.2177,1.178,1.1383,1.0982,1.0721,1.0721,1.0721,1.0721,1.0721,1.0721,1.0721,1.0721,1.0721,1.0721,1.0721,1.0721,1.0588,0.9927,0.9661,0.9661,0.8856,0.8587,0.8587,0.8587,0.8587,0.859,3.4397,3.4397,3.4314,3.4063,3.423,3.4431,3.4529,3.5244,3.598,3.647,3.5793,3.561,3.659,3.4628,3.3557,3.4299,3.3744,3.3281,3.3281,3.3656,3.3744,3.3281,3.3744,3.3744,3.3281,3.3281,3.3281,3.3281,3.3281,3.3281,3.3281,3.3281,3.3281,3.3281,3.3281,3.3545,3.4039,3.4578,3.4861,3.5018,3.5951,3.5708,3.4925,3.5598,3.5378,3.4925,3.5146,3.4925,3.4469,3.4011,3.2964,3.1582,3.0907,3.0334,2.9747,2.8361,2.848,2.8829,2.7427,2.7771,2.8233,2.7306,2.7771,2.8233,2.7306,2.7073,2.7073,2.7073,0.0,0.0,0.0,0.0,0.0,0.0,2.5341,2.4487,0.0,0.0,2.3487,0.0,0.0,0.0,2.0569,1.9674,1.8256,1.5944,1.5168,1.4263,1.2836,1.2704,1.2441,1.2045,1.178,1.138,1.0982,1.0853,1.0721,1.0721,1.0721,1.0721,1.0721,1.0721,1.0721,1.0721,1.0721,1.0721,1.0588,0.9927,0.9661,0.9661,0.8856,0.8587,0.8587,0.8587,0.8595,0.8603,3.4397,3.4397,3.445,3.462,3.4646,3.4894,3.5652,3.6475,3.7063,3.7233,3.6281,3.5858,3.6628,3.4628,3.3557,3.4299,3.3744,3.3281,3.3281,3.3831,3.3831,3.3281,3.3831,3.3831,3.3281,3.3281,3.3281,3.3281,3.3281,3.3281,3.3281,3.3281,3.3281,3.3292,3.3419,3.3752,3.4257,3.4773,3.5055,3.5102,3.6008,3.5708,3.4814,3.5035,3.4925,3.448,3.448,3.4368,3.4256,3.3909,3.2519,0.0,3.1602,3.0684,2.9303,2.9176,2.9176,2.9066,2.7779,2.8352,2.8811,2.7418,2.7882,2.8462,2.7306,2.7073,2.7073,2.7073,2.7073,0.0,0.0,0.0,2.6319,2.6319,0.0,2.5226,2.4726,2.4479,0.0,0.0,0.0,0.0,0.0,2.0303,1.8896,1.5809,0.0,1.4777,1.2836,1.2836,1.2704,1.2309,1.2045,1.1648,1.1247,1.0986,1.0853,1.0721,1.0721,1.0721,1.0721,1.0721,1.0721,1.0721,1.0721,1.0721,1.0721,1.006,0.9797,0.9667,0.8995,0.8731,0.8598,0.8595,0.8606,0.8619,3.4397,3.4397,3.458,3.5168,3.5273,3.5652,3.6776,3.6985,3.7207,3.7795,3.6534,3.5858,3.6628,3.4628,3.3557,3.4299,3.3744,3.3281,3.3281,3.3281,3.3281,3.3281,3.3281,3.3281,3.3281,3.3281,3.3281,3.3281,3.3281,3.3281,3.3281,3.3281,3.3281,3.3304,3.3775,3.428,3.4808,3.529,3.5784,3.6243,3.6266,3.5938,3.5256,3.4703,3.448,3.448,3.448,0.0,0.0,3.254,3.1842,0.0,0.0,0.0,3.1169,3.0791,3.0917,3.082,2.8948,2.848,2.8241,2.7306,2.7194,2.7194,2.7073,2.7073,2.7073,2.7073,2.7073,2.7073,2.7073,2.7073,2.7073,2.7073,2.6449,0.0,0.0,2.5472,2.461,2.3238,2.2856,0.0,0.0,2.223,2.069,0.0,1.7479,1.6063,1.2964,1.2836,1.2704,1.2309,1.2309,1.1912,1.1247,1.1247,1.0986,1.0721,1.0721,1.0721,1.0721,1.0721,1.0721,1.0721,1.0721,1.0721,1.0721,1.0323,1.007,0.9949,0.9416,0.9021,0.8625,0.8617,0.8619,0.863,3.4397,3.4724,3.5051,3.526,3.5587,3.6096,3.6881,3.6858,3.6878,3.7083,3.575,3.5078,3.5858,3.4323,3.3557,3.4299,3.3744,3.3281,3.3281,3.3744,3.3843,3.3281,3.3744,3.3843,3.3281,3.3281,3.3557,3.4017,3.3557,3.3557,3.4017,3.3568,3.3281,3.3304,3.3786,3.4108,3.4326,3.5164,3.5397,3.5244,3.5572,3.5598,3.5367,0.0,3.448,3.448,3.448,3.4155,0.0,3.3264,3.2332,3.1401,3.1883,3.1295,3.0461,3.0927,3.081,0.0,0.0,0.0,2.9747,2.8361,0.0,0.0,2.7306,2.7073,2.7073,2.7073,2.7073,2.6996,2.673,2.6687,2.661,2.6362,2.6084,2.5923,0.0,2.5327,2.4734,2.386,2.323,2.2856,0.0,0.0,0.0,0.0,1.7742,0.0,1.4263,1.3358,1.2704,1.2572,1.2441,1.2045,1.1648,1.1383,1.0982,1.0721,1.0721,1.0721,1.0721,1.0721,1.0721,1.0721,1.0721,1.0721,1.0721,1.006,0.9797,0.967,0.9146,0.7529,0.5776,0.5774,0.7,0.8102,3.4672,3.5195,3.5587,3.5587,3.6227,3.6881,3.726,3.697,3.6709,3.6709,3.5355,3.4678,3.5475,3.4237,3.3557,3.4299,3.3744,3.3281,3.3281,3.3744,3.3843,3.3281,3.3744,3.3744,3.3281,3.3281,3.3568,3.4028,3.3568,3.3557,3.4028,3.3568,3.3281,3.3315,3.3981,3.4188,3.4085,3.5279,3.5466,3.5018,3.5504,3.5708,3.5708,0.0,3.5035,3.4814,0.0,3.4054,3.384,3.3399,3.2592,3.1883,3.2716,3.2008,3.1063,3.1872,3.1526,3.083,3.047,3.0461,0.0,2.8829,2.8591,0.0,2.7306,0.0,2.7073,2.7185,2.7073,2.6824,2.6824,2.6583,2.6259,2.6148,2.602,2.5787,0.0,2.5422,2.5035,2.4293,2.3784,2.3238,2.2856,0.0,0.0,0.0,0.0,0.0,0.0,1.3613,1.2836,1.2836,1.2572,1.2309,1.2045,1.1648,1.1251,1.085,1.0721,1.0721,1.0721,1.0721,1.0721,1.0721,1.0721,1.0588,1.0455,1.006,0.9797,0.9537,0.9012,0.7667,0.5783,0.5783,0.5655,0.4986,3.5182,3.5757,3.6162,3.6188,3.7142,3.79,3.79,3.7214,3.6615,3.6615,3.5259,3.469,3.5379,3.4139,3.3557,3.4299,3.3744,3.3281,3.3281,3.3281,3.3281,3.3281,3.3281,3.3281,3.3281,3.3281,3.3381,3.3381,3.3381,3.3381,3.3381,3.3381,3.3281,3.3327,3.4349,3.4498,3.4108,3.5623,3.599,3.56,3.6071,3.6266,3.6266,3.6266,3.5938,3.5268,3.4065,3.4054,3.4368,3.3172,3.2727,3.2841,3.3399,3.3182,3.2727,3.3285,3.3069,3.2487,3.1526,3.0577,2.9648,2.8829,2.7779,0.0,0.0,0.0,2.7194,2.7401,2.6986,2.6704,2.7279,2.6514,2.602,2.6354,2.6122,2.5908,2.5908,2.5645,2.5275,2.4539,2.4239,2.3837,2.3106,2.3113,0.0,0.0,0.0,1.7211,0.0,1.3744,1.2836,1.2836,1.2836,1.2704,1.2309,1.1912,1.1648,1.1247,1.0853,1.0721,1.0721,1.0721,1.0721,1.0721,1.0721,1.0455,1.0193,1.019,0.98,0.9282,0.9282,0.8762,0.8112,0.8112,0.4717,0.0,3.5182,3.6096,3.692,3.7364,3.7691,3.79,3.79,3.6734,3.5858,3.5858,3.4519,3.3656,3.3854,3.3568,3.3381,3.3568,3.3369,3.3281,3.3281,3.3281,3.3281,3.3281,3.3281,3.3281,3.3281,3.3281,3.3854,3.5005,3.3854,3.3854,3.4993,3.3866,3.3281,3.3327,3.4349,3.4498,3.4108,3.5623,3.6197,3.6094,3.622,3.6266,3.6266,0.0,3.5938,3.5378,3.5046,3.4714,3.4368,3.3614,3.3069,3.2727,3.2841,3.2363,3.1642,3.1872,3.1757,3.1642,3.1401,3.0577,2.9884,2.9648,2.837,2.7073,0.0,0.0,0.0,0.0,0.0,0.0,0.0,2.5831,2.5455,2.5275,2.5395,2.5515,2.5515,2.5724,2.5369,2.4292,2.4243,2.407,2.3208,2.2856,2.248,0.0,0.0,0.0,1.6964,0.0,0.0,1.2836,1.2836,1.2704,1.2309,1.1912,1.1648,1.1247,1.0853,1.0721,1.0721,1.0721,1.0721,1.0721,1.0721,1.0455,1.019,0.9927,0.9525,0.9128,0.8884,0.6055,0.2154,0.2154,0.1211,0.0,3.5482,3.6593,3.7508,3.7848,3.7611,3.7413,3.7413,3.6048,3.5078,3.5078,3.404,3.3281,3.3281,3.3281,3.3281,3.3281,3.3281,3.3281,3.3281,3.3281,3.3281,3.3281,3.3281,3.3281,3.3281,3.3281,3.3767,3.4617,3.404,3.4225,3.5078,3.4225,3.3744,3.3779,3.4289,3.428,3.4085,3.5393,3.6071,3.6266,3.6266,3.6266,0.0,3.6266,3.5938,3.5378,3.5146,3.4602,3.4054,3.3399,3.2955,3.2727,3.2727,3.2373,3.1883,3.1401,3.1285,3.1285,3.1285,3.0353,2.9412,2.9766,2.848,2.7073,2.7073,2.6944,2.6816,0.0,2.6506,2.6102,0.0,0.0,2.5061,2.4855,2.4992,2.5129,2.5129,2.5218,2.487,2.3941,2.3889,2.3572,2.2811,2.2821,2.2738,0.0,0.0,0.0,0.0,0.0,0.0,1.2836,1.2836,1.2704,1.2572,1.2177,1.1912,1.1644,1.1115,1.0986,1.0853,1.0721,1.0721,1.0721,1.0721,1.0455,1.0193,0.9794,0.9528,0.9134,0.8762,0.6606,0.3501,0.0942,0.0,0.0,3.5874,3.7077,3.79,3.79,3.7108,3.6521,3.6521,3.5355,3.4385,3.4385,3.3744,3.3281,3.3281,3.3281,3.3281,3.3281,3.3281,3.3281,3.3281,3.3281,3.3281,3.3281,3.3281,3.3281,3.3281,3.3281,3.3381,3.3568,3.4115,3.4483,3.4678,3.4483,3.4385,3.4409,3.4167,3.4039,3.4165,3.5049,3.5715,3.6174,3.6174,3.6208,3.6157,3.6157,3.5719,3.5046,3.4602,3.4054,3.3512,3.2955,3.2727,3.2727,3.2727,3.2612,3.2363,3.1295,3.1043,3.0927,3.0684,2.9639,2.8591,2.9285,2.8197,2.6996,2.6875,2.6577,2.6422,2.6785,2.6097,2.5699,0.0,0.0,2.4821,2.471,2.471,2.471,2.4821,2.4524,2.4155,2.3475,2.3302,0.0,0.0,0.0,0.0,0.0,0.0,0.0,0.0,0.0,1.3744,1.2836,1.2836,1.2836,1.2836,0.0,1.2177,1.2177,1.1516,1.1115,1.1118,1.085,1.0721,1.0721,1.0588,1.0455,1.006,0.9797,0.941,0.9157,0.8781,0.8658,0.7841,0.2154,0.0,0.0,3.5874,3.7077,3.79,3.79,3.6734,3.5763,3.5763,3.4969,3.4385,3.4385,3.3744,3.3281,3.3281,3.3281,3.3281,3.3281,3.3281,3.3281,3.3281,3.3281,3.3281,3.3281,3.3281,3.3281,3.3281,3.3281,3.3953,3.5187,3.4678,3.5066,3.6238,3.4969,3.4385,3.4409,3.4167,3.4245,3.467,3.4854,0.0,3.5657,3.5657,3.5574,3.5598,3.5598,3.4836,3.3952,3.384,3.3738,3.3512,3.2955,3.2727,3.2727,3.2727,3.2133,3.1285,2.9747,2.9275,2.903,2.7709,2.7829,2.8188,2.7357,2.6893,2.644,2.5877,2.5476,2.5445,2.6037,2.5677,2.5508,2.5682,0.0,0.0,2.4144,2.4033,2.4256,2.471,2.4306,2.3787,2.3109,2.3304,2.2688,2.0795,0.0,2.2703,0.0,0.0,0.0,0.0,0.0,0.0,0.0,1.2836,0.0,0.0,0.0,1.1912,1.1912,1.1118,1.0853,1.0853,1.0721,1.0721,1.0721,1.0455,1.006,0.9794,0.954,0.9163,0.8649,0.8655,0.866,0.7848,0.2155,0.0,0.0,3.594,3.6547,3.6959,3.7256,3.6036,3.4981,0.0,3.4311,3.3843,3.3843,3.3568,3.3281,3.3281,3.3281,3.3281,3.3281,3.3281,3.3281,3.3281,3.3281,3.3281,3.3281,3.3281,3.3281,3.3281,3.3281,3.3854,3.4981,3.4981,3.5559,3.6709,3.5941,3.5355,3.5005,3.4268,3.4142,3.4406,0.0,0.0,3.5152,3.5152,3.5078,3.5103,3.5341,3.4888,3.4163,3.4414,3.4177,3.3512,3.2955,3.2727,3.2727,3.2727,3.2248,3.1411,2.9512,2.9048,2.8765,2.6756,2.6833,2.7265,2.6583,2.6302,2.6065,2.573,2.5444,2.529,2.5528,2.5352,2.5086,2.5086,2.5035,0.0,0.0,0.0,2.4487,2.471,2.4256,2.3809,2.3464,2.3278,2.2689,2.1408,2.1597,2.1817,2.1626,2.0943,0.0,0.0,0.0,0.0,0.0,0.0,0.0,0.0,0.0,0.0,1.2309,1.1648,1.1251,1.1251,1.0853,1.0721,1.0721,1.0588,1.0326,0.9791,0.8053,0.7809,0.8246,0.5258,0.3637,0.2694,0.0808,0.0,0.0,3.5574,3.5584,3.5688,3.6256,3.5196,3.4267,3.4374,3.3744,3.3281,3.3281,3.3281,3.3281,3.3281,3.3281,3.3281,3.3281,3.3281,3.3281,3.3281,3.3281,3.3281,3.3281,3.3281,3.3281,3.3281,3.3281,3.3656,3.4385,3.5174,3.5953,0.0,3.6521,3.5953,3.5114,0.0,0.0,0.0,0.0,3.4636,3.4636,3.4636,3.4589,3.4633,3.4998,3.4815,3.4322,3.4591,3.4085,3.3215,3.2663,3.2571,3.2716,3.2613,3.2468,3.1731,2.9395,2.879,2.8491,2.616,2.5864,2.6167,2.5968,2.5733,2.5575,2.5467,2.518,2.5136,2.5136,2.4906,2.471,2.459,2.4915,0.0,0.0,0.0,0.0,2.4599,2.4144,2.3801,2.3921,2.3239,2.2562,2.2101,0.0,0.0,0.0,0.0,0.0,1.8506,0.0,0.0,0.0,0.0,1.2968,1.2968,0.0,1.2704,1.2704,1.2045,1.178,1.1648,1.1118,1.0721,1.0721,1.0588,1.0323,0.9661,0.7116,0.6325,0.6341,0.175,-0.0942,-0.202,-0.0942,-0.0404,-0.0269,3.4336,3.4361,3.4379,3.4922,3.428,3.3862,3.4314,3.3744,3.3281,3.3281,3.3281,3.3281,3.3281,3.3281,3.3281,3.3281,3.3281,3.3281,3.3281,3.3281,3.3281,3.3281,3.3281,3.3281,3.3281,3.3281,3.3656,3.4385,3.5174,3.5953,0.0,3.6048,3.4908,0.0,0.0,0.0,0.0,3.3866,3.4073,3.4073,3.4073,3.405,3.3944,3.3989,3.3681,3.304,3.2642,3.2446,3.224,3.1715,3.2054,3.2654,3.224,3.2106,3.1442,2.8615,2.782,2.7344,2.4902,2.4659,2.501,2.4416,2.4382,2.4474,2.3809,2.3894,2.4082,2.4082,2.4393,2.459,2.4144,2.4479,2.4479,0.0,0.0,0.0,0.0,2.3464,2.3239,2.3809,2.2901,2.2093,2.1707,2.0622,0.0,0.0,1.9322,0.0,0.0,0.0,0.0,1.4796,0.0,1.3748,1.3748,1.2832,1.2309,1.2309,1.2045,1.1648,1.1247,1.1115,1.0982,1.0721,1.0323,0.9667,0.8748,0.837,0.5391,0.0808,0.0269,-0.0942,-0.2155,-0.202,-0.1616,-0.0942,0.0,0.0,0.0,0.0,0.0,0.0,0.0,3.3261,3.3281,3.3281,3.3281,3.3281,3.3281,3.3281,3.3381,3.3481,3.358,3.358,3.358,3.358,3.3481,3.3281,3.3744,3.3744,3.3281,3.3744,3.4115,3.4385,3.5174,3.5953,0.0,0.0,0.0,0.0,0.0,3.3465,3.3292,3.3488,3.3568,3.3568,3.3568,3.3593,3.3606,3.3891,3.3589,3.3099,3.3281,3.2846,3.221,3.2004,3.1929,3.1888,3.1702,3.1519,3.1004,2.9,2.8512,2.8022,2.5715,2.5663,2.5848,2.4383,2.4323,2.444,2.3448,2.323,2.3352,2.3352,2.3809,2.4033,2.3464,2.4462,2.4804,2.3239,0.0,0.0,0.0,2.3464,2.3464,2.3352,2.3239,2.2893,2.1972,2.0931,0.0,0.0,0.0,0.0,0.0,0.0,0.0,1.6136,0.0,1.3761,1.3875,1.3095,1.2572,1.2572,1.2309,1.1912,1.1516,1.1247,1.0853,1.0326,1.0203,0.8728,0.6717,0.8099,0.5257,0.0,0.0,-0.0673,-0.1616,-0.202,-0.202,-0.175,3.1698,0.0,3.1067,0.0,3.2192,3.2144,3.254,3.2897,3.3296,3.3457,3.358,3.3481,3.3381,3.3481,3.358,3.3779,3.3779,3.3779,3.3679,3.3679,3.358,3.3381,3.3843,0.0,3.3381,3.3843,3.4115,3.4115,3.4884,0.0,0.0,0.0,0.0,0.0,3.3568,3.3281,3.3281,3.3281,3.3281,3.3281,3.3281,3.3281,3.3315,3.3446,3.3266,3.3014,3.3049,3.2528,3.1785,3.1581,3.128,3.0998,3.1133,3.1045,3.0557,2.9189,2.8848,2.8458,2.6466,2.606,2.5895,2.4504,2.4111,2.3784,2.2901,2.2901,2.3014,2.3014,2.3352,2.3472,2.3127,2.4016,2.4462,2.3014,0.0,0.0,0.0,2.3127,2.3239,2.2885,2.3006,2.2901,2.2328,2.1167,0.0,0.0,0.0,0.0,0.0,0.0,0.0,0.0,0.0,0.0,1.3791,1.3147,1.2652,1.2704,1.2572,1.2177,1.1648,1.1251,1.0721,1.0193,0.994,0.8189,0.5765,0.6868,0.4307,-0.0269,-0.0269,-0.0807,-0.1481,-0.202,-0.2155,-0.2155,3.0453,3.0023,2.9838,3.0835,3.1031,3.1446,3.2715,3.2878,3.3173,3.4005,3.4075,3.3977,3.3679,3.3977,3.4075,3.4075,3.4075,3.3977,3.3679,3.3679,3.3679,0.0,0.0,3.3381,3.3679,3.3481,3.3281,3.3281,0.0,0.0,3.4385,0.0,3.4017,3.3281,3.3281,3.3281,3.3281,3.3281,3.3281,3.3281,3.3281,3.3281,3.3281,3.2633,3.242,3.2218,3.1208,3.0806,3.0703,3.0214,3.0015,3.0087,3.0553,3.0698,3.0381,2.8759,2.831,2.8087,2.6881,2.5331,2.4111,2.4667,2.3448,2.2116,2.2108,2.2562,2.3014,2.3014,2.3014,2.3014,2.3014,2.3014,2.2788,2.2222,0.0,0.0,0.0,2.2116,2.2214,2.2523,2.1759,2.1539,2.241,2.0831,0.0,0.0,0.0,0.0,0.0,0.0,0.0,1.4413,1.3676,0.0,1.3602,1.2955,1.2527,1.2309,1.2704,1.2177,1.1247,1.0853,1.0455,1.0193,0.9531,0.8184,0.6297,0.4962,0.2147,-0.1075,-0.1075,-0.148,-0.2155,-0.2155,-0.2155,-0.2155,2.8724,2.891,2.915,2.9883,3.0582,3.1123,3.1527,3.2341,3.3033,3.3196,3.3926,3.4249,3.415,3.4162,3.4162,0.0,3.4347,3.4249,0.0,3.4064,3.4052,3.3679,3.4064,3.415,3.3679,3.3941,3.3831,3.3281,0.0,0.0,0.0,3.4385,3.4028,3.3281,3.3281,3.3281,3.3281,3.3281,3.3281,3.3281,3.2846,3.2734,3.2633,3.2026,3.1607,3.1289,3.0888,3.0588,3.0193,3.0099,2.9994,3.0015,2.9949,2.999,2.9853,2.9384,2.893,2.8514,2.8077,2.6735,2.5287,2.4633,2.3303,2.1866,2.1074,2.1074,2.1189,2.1189,2.2085,2.2652,2.141,2.2877,2.344,2.1181,2.1752,0.0,2.1074,0.0,2.141,2.106,2.1067,2.1181,2.106,2.0493,0.0,0.0,0.0,0.0,0.0,0.0,0.0,0.0,1.4204,0.0,1.3392,1.2888,1.2463,1.2129,1.2382,1.2045,1.1247,1.0853,1.0455,0.9794,0.9401,0.8731,0.766,0.4702,0.2822,0.1613,-0.0942,-0.2019,-0.2155,-0.2155,-0.2155,-0.2155,2.8175,2.8538,2.891,2.9669,3.0308,3.0778,3.1078,3.1819,3.2544,3.3013,3.3643,3.411,3.4409,3.4249,0.0,3.4433,3.4531,3.4445,3.4075,3.4249,3.4237,3.3965,3.4359,3.4359,3.3965,3.404,0.0,3.3481,3.3843,3.4028,3.4028,3.4028,3.3744,3.3281,3.3281,3.317,3.2958,3.317,3.3069,3.2667,3.2745,3.2633,3.2308,3.2015,3.1618,3.1105,3.0888,3.0495,2.9994,2.9994,2.9994,2.9994,2.9659,2.9554,2.9343,2.9248,2.9046,2.8621,2.8398,2.6943,2.5168,2.4403,2.2741,2.1174,2.05,2.0608,2.0952,2.0952,2.1509,2.1737,2.106,2.2191,2.2531,2.0608,2.0952,2.1174,2.0385,0.0,2.0723,2.0155,0.0,0.0,0.0,2.027,2.0033,0.0,0.0,0.0,0.0,0.0,0.0,1.5899,1.3747,0.0,1.2815,1.2557,1.2143,1.1698,1.1605,1.1454,1.1115,1.0721,1.0193,0.9661,0.9395,0.8998,0.8336,0.5372,0.3762,0.2956,-0.0,-0.1615,-0.2155,-0.2155,-0.2289,-0.2424,2.8445,2.8631,2.9002,0.0,3.0125,0.0,3.1159,3.1356,3.1809,3.3029,3.3278,3.3598,3.4326,3.4374,3.4397,3.4433,0.0,0.0,0.0,3.4347,3.4433,3.4433,3.4261,3.4261,3.4433,3.3965,3.3679,3.3679,3.3481,3.3281,3.3281,3.3281,3.3281,3.3281,3.3281,3.2958,3.2521,3.3058,3.2667,3.1834,3.2869,3.2846,3.2409,3.2308,3.2015,3.1516,3.1002,3.0495,2.9994,2.9994,2.9994,2.9889,2.9669,2.9343,2.9026,2.8727,2.8621,2.8514,2.8067,2.6173,2.4292,2.4094,2.2184,2.05,2.0385,2.1288,2.2191,2.2078,2.1174,2.0838,2.1851,2.1067,2.0385,2.027,2.0277,2.0277,2.0277,2.0277,2.0155,0.0,0.0,0.0,1.9815,2.004,2.0162,0.0,0.0,0.0,0.0,0.0,1.3195,1.3784,1.2603,1.1971,1.2012,1.2024,1.1748,1.1296,1.0809,1.0695,1.1101,1.0452,1.006,0.9661,0.9253,0.8851,0.8454,0.6439,0.4693,0.295,0.1074,-0.0673,-0.2289,-0.2289,-0.2425,-0.2694,0.0,0.0,2.8839,2.9117,2.976,3.025,3.0479,3.11,3.1715,3.2054,3.2828,3.3469,3.4078,3.4126,3.4198,3.4397,3.464,3.464,3.4347,3.4531,3.4628,3.4433,3.4347,3.4347,3.4433,3.3965,3.358,3.3381,3.358,3.3481,3.3281,3.3281,3.3281,3.3281,3.3281,3.3181,3.3069,3.3281,3.3181,3.2869,3.2645,3.2521,3.2308,3.1924,3.1414,3.0991,3.0888,3.0495,2.9994,2.9994,2.9879,2.9669,2.9343,2.9036,2.8727,2.8737,2.8398,2.8067,2.796,2.6509,2.4956,2.4965,2.364,2.2078,2.1174,2.1964,2.2531,2.1623,2.1964,2.2191,2.1509,2.1174,2.0723,1.9707,1.9597,1.9597,1.9597,1.9597,1.9597,0.0,1.9591,1.9597,1.9482,1.9591,1.9707,0.0,0.0,0.0,0.0,1.6626,1.4981,1.5095,1.3909,1.2741,1.1837,1.1963,1.1872,1.1676,1.1195,1.0897,1.1069,1.0406,1.006,0.9661,0.9253,0.872,0.8056,0.5095,0.3488,0.255,-0.0403,-0.2019,-0.2559,-0.2559,-0.2828,-0.3095,2.7357,2.8008,2.856,2.9024,2.9577,2.9943,3.0216,3.0628,3.1077,3.1333,3.1902,3.2546,3.3244,3.3506,3.3863,3.4149,3.4594,3.4738,3.4433,3.4628,3.4738,3.4628,3.4628,3.4628,3.4628,3.4249,3.3866,3.3481,3.3679,3.358,3.3281,3.3281,3.3281,3.3281,3.3281,3.317,3.2958,3.3181,3.2969,3.2555,3.2745,3.2533,3.2015,3.2015,3.1505,3.0785,3.0785,3.0495,2.9994,2.9879,2.9774,2.9554,2.9036,2.8834,2.8621,2.8408,2.8184,2.7853,2.7745,2.6409,2.5075,2.4411,2.364,2.2869,2.2191,2.2531,2.2974,2.2869,2.2531,2.2191,2.2078,2.1067,2.0162,1.9482,1.9243,1.9127,1.9127,1.901,1.8894,1.8894,1.8894,1.8894,1.8894,1.8894,1.901,1.9113,1.8402,0.0,1.9113,1.7701,1.652,1.5575,1.4381,1.3075,1.1776,1.1618,1.1379,1.1176,1.0756,1.0614,1.0753,1.0185,0.9732,0.9661,0.912,0.8182,0.6844,0.429,0.255,0.1478,-0.1211,-0.2424,-0.2694,-0.2694,-0.2962,-0.3498,2.7452,2.7726,2.8186,2.9117,2.9301,2.9577,3.0034,3.0125,3.0388,3.094,3.0986,3.1449,3.2417,3.2865,3.3351,3.3827,3.4402,3.4642,3.4433,3.4628,3.4823,3.4823,3.4823,3.4823,3.4823,3.4531,3.415,3.3779,3.3679,3.358,3.3381,3.3281,3.3281,3.3281,3.317,3.2846,3.242,3.2857,3.2454,3.1732,3.2656,3.2454,3.1618,3.2117,3.1699,3.0785,3.0785,3.0391,2.9889,2.9669,2.9448,2.9343,2.8834,2.8621,2.8514,2.796,2.7853,2.7745,2.7422,2.6309,2.5084,2.376,2.3424,2.3424,2.3199,2.3432,2.3768,2.4667,2.2974,2.1737,2.2749,2.106,1.9482,1.9249,1.912,1.9107,1.9107,0.0,1.8415,1.8648,1.8538,1.8421,1.8421,1.8421,1.8421,1.8421,1.8421,1.8421,1.8421,1.8421,1.7473,1.5569,1.4381,1.3075,1.1651,1.1035,1.0738,1.0507,1.0284,1.0181,1.0426,0.9695,0.952,0.9501,0.8848,0.7512,0.5635,0.3889,0.2147,0.0269,-0.148,-0.2424,-0.2828,-0.2828,-0.3231,-0.3768,2.6986,2.7357,2.782,2.8186,2.8549,2.9013,2.9577,2.9783,3.0182,3.0909,3.1168,3.1549,3.2369,3.2592,3.2831,3.3368,3.3873,3.4258,3.4702,3.4738,3.4823,3.4823,3.4823,3.4823,3.4823,3.4531,3.4249,3.4075,3.3779,3.3679,3.3679,3.3381,3.3281,3.3281,3.2745,3.2521,3.242,3.2026,3.1732,3.1629,3.1834,3.1732,3.1618,3.1721,3.13,3.0785,3.0588,3.0078,2.9659,2.9237,2.9036,2.8727,2.8504,2.8184,2.796,2.7647,2.7314,2.7098,2.7098,2.6554,2.5898,2.534,2.545,2.534,2.4326,2.511,2.5798,2.5008,2.3656,2.2636,2.2605,2.1494,2.0033,1.8771,1.9461,2.004,2.004,0.0,1.8765,1.9924,1.9113,1.8421,1.8421,1.8421,1.8421,1.8421,1.8421,1.8421,1.8421,1.8421,1.7226,1.4842,1.4604,1.3297,1.1035,1.091,1.08,1.0708,1.0479,1.0322,1.0002,0.9607,0.9205,0.8972,0.8679,0.7376,0.5364,0.3887,0.2012,-0.0134,-0.1615,-0.2558,-0.3095,-0.3095,-0.3633,-0.4172,2.6602,2.6986,2.7452,2.8269,2.8538,2.9002,2.976,2.9954,3.0136,3.0499,3.0679,3.0941,3.138,3.1845,3.221,3.2632,3.3239,3.3729,3.4159,3.4703,3.503,3.503,3.503,3.4932,3.4823,3.4628,3.4445,3.4075,3.3977,3.3779,3.3481,3.3381,3.317,3.2846,3.2521,3.2218,3.1924,3.1721,3.1618,3.1618,3.1618,3.1414,3.1208,3.1208,3.0795,3.0172,2.9973,2.9659,2.9237,2.9036,2.8727,2.8408,2.8184,2.7853,2.753,2.7314,2.6989,2.6772,2.6554,2.6227,2.5898,2.5679,2.534,2.4889,2.5,2.5119,2.5119,2.5229,2.4326,2.3424,2.3295,2.1729,2.0263,1.9577,1.9461,0.0,0.0,1.8409,1.8175,1.8286,1.7707,1.7479,1.7602,1.7608,1.7719,1.7954,1.7954,1.7954,1.7954,1.7954,1.6756,1.4252,1.3057,1.186,1.0547,1.0547,1.0425,1.0304,1.0138,0.9968,0.9807,0.9311,0.9062,0.8807,0.7539,0.599,0.4023,0.2415,0.0537,-0.1211,-0.1885,-0.2558,-0.3228,-0.3228,-0.3633,-0.4308,2.64,2.6602,2.7081,2.8081,2.8351,2.8735,2.9658,2.984,2.9943,3.0216,3.0306,3.0397,3.0668,3.1211,3.1719,3.19,3.2687,3.3196,3.3356,3.4241,3.4907,3.5029,3.5054,3.503,3.4823,3.4738,3.4543,3.4162,3.4075,3.3779,3.3381,3.3281,3.2958,3.2409,3.2319,3.1913,3.1414,3.1322,3.1219,3.1219,3.1219,3.1002,3.0588,3.0578,3.0172,2.9554,2.9459,2.9248,2.893,2.8621,2.8398,2.8184,2.7853,2.753,2.7215,2.6999,2.6663,2.6336,2.6008,2.5789,2.5569,2.5467,2.4787,2.4437,2.534,2.4898,2.4556,2.5459,2.4778,2.388,2.3768,2.2191,2.0716,2.0378,0.0,0.0,0.0,1.8169,1.7929,1.6997,1.6885,1.6891,1.6903,1.6903,1.7015,1.725,1.7244,1.7244,1.7244,1.7367,1.629,1.3784,1.1627,1.0425,1.0183,1.0183,1.0061,0.9822,0.97,0.9642,0.9382,0.9041,0.879,0.8593,0.6547,0.4623,0.2671,0.1073,-0.0538,-0.2155,-0.2155,-0.2558,-0.3228,-0.3228,-0.3633,-0.4308,2.61,2.64,2.6602,2.6986,2.7262,2.7715,2.8631,2.8839,2.9301,3.0397,3.0578,3.0679,3.0972,3.1175,3.1365,3.1365,3.2046,3.2563,3.2551,3.3252,3.3971,3.4469,3.4667,3.4823,3.4823,3.4531,3.4433,3.4335,3.3965,3.3679,3.3679,3.3381,3.2958,3.242,3.1924,3.1414,3.0795,3.0297,3.0099,3.0099,3.0099,3.0099,2.9994,2.9764,2.9659,2.9554,2.894,2.8737,2.8621,2.8174,2.796,2.7853,2.7206,2.7098,2.6989,2.6691,2.6245,2.5679,2.534,2.5221,2.5229,2.4923,2.5017,2.511,2.5221,2.545,2.5569,2.5688,2.4778,2.3768,2.3536,2.2854,2.1836,2.0458,0.0,0.0,1.9781,1.9435,1.8978,1.8273,1.8046,1.7467,1.6655,1.6537,1.6537,1.6537,1.6537,1.6537,1.6537,1.6903,1.6065,1.3784,1.1265,0.9822,0.9819,0.9819,0.9822,0.9822,0.9457,0.9223,0.8998,0.862,0.844,0.8103,0.6362,0.4073,0.1451,0.0802,-0.0538,-0.2155,-0.2155,-0.2558,-0.3228,-0.3228,-0.3633,-0.4308,2.6304,2.64,2.6688,2.7441,2.7631,2.7987,2.8631,2.9013,2.9393,2.9852,3.0216,3.0397,3.0499,3.0871,3.1151,3.1151,3.1687,3.2075,3.2176,3.2345,3.2841,3.3898,3.4035,3.3956,3.3873,3.3779,3.3744,3.3679,3.3496,3.3256,3.2935,3.2835,3.2218,3.1403,3.1197,3.0795,3.0287,3.0099,2.9994,2.9994,2.9994,2.9889,2.9774,2.9659,2.9343,2.9036,2.8737,2.8621,2.8408,2.8067,2.7745,2.753,2.7098,2.689,2.6682,2.6136,2.5907,2.5578,2.5136,2.4915,2.4915,2.4821,2.4923,2.4915,2.4915,2.5034,2.5145,2.5145,2.4804,2.4351,2.3784,2.2869,2.1957,2.0931,0.0,2.0263,1.9332,1.9448,1.9332,1.8506,1.7812,1.7232,1.7126,1.6543,1.6312,1.6537,1.6537,1.6537,1.6537,1.5822,1.4743,1.3181,1.1386,1.0183,0.9822,0.9579,0.9457,0.9457,0.9217,0.8854,0.8613,0.8538,0.8358,0.7937,0.5217,0.3358,0.2234,-0.0132,-0.1602,-0.2155,-0.2155,-0.2558,-0.3228,-0.3228,-0.3633,-0.4308,2.6217,2.64,2.6678,2.7431,2.762,2.7904,2.8456,2.8828,2.9117,2.9198,2.9669,2.9943,2.9943,3.0499,3.0871,3.0871,3.1229,3.1584,3.1761,3.1749,3.2147,3.3339,3.3453,3.3458,3.3377,3.3272,3.316,3.3041,3.2849,3.254,3.2259,3.1961,3.1361,3.0654,3.0451,3.0053,2.9559,2.9559,2.9642,2.9777,2.9683,2.9651,2.9554,2.9353,2.9036,2.8737,2.8621,2.8408,2.8184,2.7853,2.753,2.7215,2.6999,2.6682,2.6364,2.5798,2.5679,2.5459,2.4923,2.4821,2.4821,2.4821,2.4821,2.4821,2.4821,2.4821,2.4821,2.4821,2.4599,2.4368,2.4033,2.2885,2.1972,2.1524,2.096,2.027,1.9345,1.9815,1.9686,1.8156,1.7695,1.7349,1.6891,1.6312,1.6076,1.6183,1.6183,1.6307,1.6425,1.5467,1.4267,1.2697,1.1744,1.0664,0.9579,0.9339,0.9217,0.9335,0.8976,0.8613,0.8369,0.8244,0.817,0.7881,0.4392,0.2678,0.2218,-0.0788,-0.2127,-0.2155,-0.2155,-0.2558,-0.3228,-0.3228,-0.3633,-0.4308,2.5742,2.612,2.6496,2.6496,2.6976,2.7441,2.7893,2.7998,2.8175,2.8631,2.9198,2.9485,2.9485,3.0125,3.0566,3.0566,3.0871,3.1062,3.1306,3.1572,3.199,3.2804,3.3076,3.3365,3.3618,3.3131,3.2758,3.2477,3.172,3.1624,3.2016,3.0868,3.0383,3.0458,2.9698,2.9116,2.8618,2.8618,2.8876,2.9301,2.9003,2.9166,2.9544,2.893,2.8717,2.8611,2.8398,2.8174,2.7843,2.753,2.7196,2.698,2.6682,2.6345,2.6008,2.578,2.5441,2.511,2.4804,2.4812,2.4812,2.4821,2.4821,2.4821,2.4812,2.4812,2.4812,2.4812,2.4359,2.3904,2.3913,2.2893,2.2101,2.2101,2.1539,2.0852,1.9924,2.0622,2.0148,1.7337,1.7806,1.7689,1.5828,1.5596,1.5596,1.5596,1.5601,1.572,1.6087,1.572,1.4753,1.2697,1.2337,1.1137,0.8976,0.8854,0.8976,0.9335,0.8732,0.8369,0.8369,0.7997,0.788,0.7656,0.4376,0.2284,0.1031,-0.1178,-0.2127,-0.2155,-0.2155,-0.2558,-0.3228,-0.3228,-0.3632,-0.4308,2.5713,2.6004,2.6304,2.6699,2.689,2.7177,2.7441,2.7809,2.8081,2.8175,2.8631,2.891,2.891,2.9669,3.0148,3.0148,3.0781,3.1306,3.1572,3.1661,3.1834,3.218,3.2159,3.2244,3.2231,3.195,3.1948,3.2225,3.1855,3.1364,3.0942,3.0566,2.9981,2.9204,2.8906,2.8607,2.8297,2.8297,2.8288,2.833,2.8239,2.8096,2.7991,2.7898,2.7693,2.7496,2.7185,2.7072,2.6968,2.6465,2.6255,2.6045,2.5624,2.5412,2.5191,2.4757,2.4534,2.4321,2.4115,2.4025,2.4162,2.4693,2.4821,2.4744,2.447,2.441,2.4224,2.3636,2.3361,2.2928,2.2057,2.1618,2.1289,2.0855,2.0634,2.0412,2.0079,1.9849,1.9389,1.8486,1.7126,1.6217,1.6109,1.5246,1.4881,1.5237,1.5505,1.5601,1.572,1.4753,1.354,1.2093,1.1008,0.993,0.8613,0.8491,0.8613,0.861,0.8241,0.7997,0.7997,0.7994,0.788,0.7774,0.445,0.2373,0.1142,-0.1161,-0.2095,-0.2125,-0.2146,-0.2424,-0.2827,-0.3095,-0.3498,-0.4038,2.5713,2.5907,2.6197,2.6699,2.6805,2.6986,2.7262,2.7536,2.7715,2.7715,2.8081,2.8445,2.8445,2.9209,2.9783,2.9783,3.0601,3.1306,3.1484,3.1661,3.1749,3.1849,3.1761,3.1761,3.1849,3.1484,3.1461,3.177,3.1042,3.0546,3.0359,2.9609,2.8946,2.8471,2.8177,2.7981,2.7686,2.7686,2.7699,2.7573,2.7472,2.7462,2.7389,2.7196,2.6992,2.6807,2.649,2.6387,2.6191,2.5891,2.5693,2.558,2.5163,2.4945,2.4727,2.4193,2.3982,2.3877,2.3453,2.3356,2.3474,2.393,2.4258,2.4299,2.4068,2.4008,2.3832,2.3078,2.2708,2.228,2.131,2.0884,2.0666,2.023,2.0237,2.0128,1.9785,1.9339,1.8671,1.7668,1.6328,1.5321,1.509,1.4323,1.4104,1.4776,1.5264,1.5499,1.5591,1.4873,1.3904,1.2577,1.1249,1.0048,0.897,0.8485,0.8244,0.8369,0.8119,0.7872,0.7872,0.7872,0.7508,0.6775,0.4182,0.2233,0.0756,-0.1273,-0.2071,-0.2111,-0.2129,-0.2412,-0.2694,-0.3095,-0.3498,-0.3902,2.5635,2.5917,2.6197,2.64,2.6699,2.6996,2.7262,2.7262,2.7262,2.7262,2.762,2.7904,2.7904,2.8839,2.9393,2.9485,3.042,3.1062,3.1306,3.1572,3.1661,3.1661,3.1661,3.1749,3.195,3.1484,3.1306,3.1306,2.9943,2.9588,3.0125,2.8373,2.7831,2.8301,2.7641,2.7177,2.69,2.69,2.6942,2.7011,2.6804,2.6933,2.7179,2.6681,2.6477,2.6477,2.6161,2.5872,2.5685,2.5685,2.5469,2.5262,2.495,2.4629,2.4297,2.4088,2.3773,2.3457,2.3042,2.283,2.283,2.283,2.3254,2.3571,2.3605,2.3614,2.3394,2.2838,2.2298,2.1648,2.1009,2.0468,2.0041,2.015,2.0041,1.9707,1.8927,1.87,1.7812,1.5479,1.5142,1.4585,1.3122,1.3027,1.3356,1.4265,1.475,1.5088,1.5435,1.5327,1.4733,1.3665,1.2217,1.1008,0.9805,0.8477,0.7997,0.8369,0.7997,0.7872,0.7625,0.7625,0.6764,0.5289,0.3565,0.1736,0.0126,-0.1386,-0.2052,-0.2106,-0.2108,-0.2394,-0.2694,-0.3095,-0.3363,-0.3768,2.5333,2.5635,2.5927,2.64,2.6506,2.6784,2.7262,2.7262,2.7262,2.7262,2.7357,2.7441,2.7441,2.8269,2.8921,2.8932,3.0239,3.1151,3.1572,3.1661,3.1661,3.1661,3.1661,3.1661,3.1484,3.1395,3.1306,3.1306,3.0937,3.0397,2.9669,2.9209,2.8466,2.7547,2.7357,2.7071,2.6602,2.6602,2.6363,2.5967,2.5967,2.6026,2.6006,2.571,2.5612,2.5513,2.4998,2.4799,2.4808,2.4618,2.4518,2.4418,2.3907,2.3705,2.3503,2.3097,2.2894,2.2783,2.269,2.269,2.269,2.269,2.2792,2.2869,2.316,2.2925,2.2319,2.1514,2.0932,2.0307,1.9792,1.9386,1.9281,1.9484,1.8731,1.7982,1.7536,1.6353,1.5161,1.4184,1.3103,1.2463,1.2573,1.272,1.3017,1.3346,1.348,1.3683,1.3893,1.3429,1.3026,1.2933,1.1129,1.0044,0.9805,0.8233,0.763,0.7994,0.7994,0.7255,0.5902,0.5902,0.5538,0.4682,0.2092,0.0123,-0.149,-0.1883,-0.204,-0.2076,-0.21,-0.2128,-0.2289,-0.2693,-0.3096,-0.3631,2.544,2.5635,2.583,2.6207,2.64,2.6592,2.7081,2.7262,2.7262,2.7262,2.7262,2.7262,2.7262,2.8175,2.9002,2.9577,3.051,3.1151,3.1484,3.1661,3.1661,3.1661,3.1661,3.1496,3.1139,3.1217,3.1306,3.1306,3.0949,3.0306,2.9485,2.9117,2.8384,2.7262,2.7262,2.6976,2.6496,2.6496,2.6207,2.5742,2.5742,2.5742,2.5635,2.5235,2.5137,2.5039,2.4538,2.4341,2.4341,2.4251,2.4152,2.3954,2.3555,2.3347,2.3147,2.2745,2.2644,2.2544,2.2241,2.2131,2.2131,2.2131,2.2131,2.2291,2.28,2.2434,2.1759,2.1059,2.0498,1.9983,1.9376,1.8639,1.8213,1.8632,1.7569,1.6717,1.6399,1.5328,1.4256,1.3176,1.2214,1.1568,1.1564,1.1986,1.2353,1.2556,1.28,1.3003,1.3211,1.3315,1.3053,1.2434,1.1086,1.0041,0.9313,0.7867,0.7266,0.7385,0.6764,0.6023,0.5163,0.4548,0.369,0.2586,0.1107,-0.0493,-0.1977,-0.1992,-0.2016,-0.2046,-0.2076,-0.2106,-0.2135,-0.2553,-0.3097,-0.39,2.5635,2.5742,2.583,2.61,2.639,2.6592,2.689,2.7177,2.7262,2.7262,2.7262,2.7262,2.7262,2.8175,2.9187,3.0487,3.0871,3.1062,3.1306,3.1572,3.1661,3.1661,3.1661,3.1496,3.0984,3.1139,3.1217,3.1217,3.0578,3.0125,2.9577,2.885,2.8113,2.7452,2.7357,2.6976,2.6496,2.6496,2.6207,2.5742,2.5742,2.5742,2.5635,2.5137,2.4932,2.4843,2.435,2.4152,2.4152,2.4152,2.4053,2.3845,2.3546,2.3247,2.3046,2.2644,2.2644,2.2443,2.203,2.1827,2.1827,2.1827,2.1827,2.1928,2.2342,2.2038,2.142,2.1019,2.0181,1.9457,1.916,1.7779,1.7028,1.7667,1.6611,1.5654,1.5232,1.4583,1.3722,1.2327,1.1678,1.124,1.0802,1.1131,1.1524,1.1677,1.2135,1.2562,1.2776,1.3404,1.3166,1.1812,1.1129,1.0134,0.8821,0.75,0.6778,0.6775,0.5412,0.4795,0.4795,0.3444,0.1968,0.0369,0.0123,-0.074,-0.1977,-0.1977,-0.1993,-0.2021,-0.2046,-0.2078,-0.2113,-0.2679,-0.3365,-0.457,2.5635,2.5742,2.583,2.64,2.6496,2.6688,2.7167,2.7262,2.7262,2.7262,2.7262,2.7262,2.7262,2.8196,2.9301,3.0487,3.0871,3.1062,3.1306,3.1572,3.1661,3.1661,3.1661,3.1496,3.0984,3.1062,3.096,3.0668,3.0871,3.0601,3.0125,2.9312,2.8768,2.8207,2.7547,2.6976,2.6496,2.6496,2.6207,2.5742,2.5742,2.5742,2.5635,2.5137,2.4932,2.4843,2.435,2.4152,2.4152,2.4152,2.4152,2.4053,2.3546,2.3347,2.3247,2.2745,2.2644,2.2544,2.2544,2.2443,2.2443,2.2443,2.2443,2.2342,2.1928,2.142,2.1027,2.0917,1.9131,1.766,1.8094,1.6823,1.5867,1.6723,1.5885,1.4809,1.403,1.3181,1.2214,1.1017,1.0911,1.0802,1.0692,1.0802,1.081,1.0835,1.0949,1.1027,1.1218,1.123,1.1151,1.111,0.972,0.8951,0.8821,0.7253,0.6526,0.6403,0.4798,0.4183,0.443,0.32,0.1601,0.0,-0.1111,-0.1852,-0.1977,-0.1977,-0.1993,-0.2019,-0.2023,-0.2059,-0.2245,-0.2811,-0.4166,-0.577,2.5645,2.5742,2.583,2.6207,2.64,2.6592,2.6986,2.7167,2.7262,2.7262,2.7262,2.7262,2.7262,2.8186,2.9106,2.9943,3.0499,3.0871,3.1151,3.1318,3.1572,3.1661,3.1661,3.1496,3.0984,3.0984,3.0793,3.0397,3.0679,3.0408,2.9577,2.922,2.8664,2.7736,2.7452,2.6976,2.6496,2.6496,2.6207,2.5742,2.5742,2.5635,2.543,2.5039,2.4833,2.4637,2.435,2.4152,2.4152,2.4152,2.3954,2.3746,2.3447,2.3147,2.2946,2.2644,2.2644,2.2644,2.2644,2.2644,2.2644,2.2644,2.2644,2.2443,2.1827,2.0893,2.0071,1.9768,1.861,1.7562,1.7358,1.5968,1.5227,1.5873,1.4595,1.3521,1.3511,1.2649,1.1673,1.0802,1.0692,1.0692,1.0692,1.0692,1.0692,1.0692,1.0692,1.0729,1.081,1.1119,1.1062,1.0398,0.9537,0.8812,0.7975,0.6768,0.6162,0.616,0.5419,0.4679,0.406,0.197,0.0739,-0.0123,-0.1358,-0.1977,-0.1977,-0.1977,-0.1984,-0.1996,-0.2012,-0.2696,-0.369,-0.4275,-0.5499,-0.7234]}]]